GFSSGP_sfc_temp_000.txt.gz
Temp
75 72 66 65 56 52 47 54 60 62 63 67 68 66 65 62 64 58 63 69 69 71 73 76 78 78 78 78 77 77 77 77 78 77 78 77 77 77 77 76 76 76 75 75 75 77 77 75 75
71 74 65 58 50 44 48 56 58 64 67 69 67 64 63 61 64 62 64 69 72 72 73 73 77 78 78 78 77 77 77 77 77 78 77 77 77 76 76 76 75 75 74 74 73 76 75 74 76
74 71 59 53 47 46 49 58 62 67 68 68 65 67 64 63 64 65 66 70 71 71 72 74 77 78 78 77 77 77 77 77 77 78 77 77 77 76 76 75 75 74 73 73 73 73 74 74 75
68 63 58 50 47 55 55 61 67 66 68 70 67 62 63 65 67 69 70 71 69 68 70 74 77 77 77 77 77 76 77 77 77 76 77 76 77 76 75 75 74 73 73 73 72 72 72 73 74
63 56 48 46 50 56 60 66 71 67 66 67 67 63 61 67 65 69 69 71 68 67 69 74 76 77 77 77 76 76 77 77 77 77 76 76 76 76 75 74 74 73 73 72 72 72 72 72 72
58 55 45 43 49 57 60 66 69 67 66 67 66 64 62 63 66 67 70 67 71 69 71 73 75 76 76 77 76 76 76 76 77 77 75 75 76 75 75 74 74 74 72 72 72 72 72 72 72
55 50 44 45 50 54 62 67 64 67 63 67 69 61 59 61 67 69 68 67 68 69 70 70 72 73 75 75 75 76 76 76 76 77 75 75 74 74 74 74 73 74 73 73 72 72 72 72 72
58 53 46 46 49 53 63 66 69 67 68 70 69 62 62 65 68 68 67 67 66 67 69 68 68 69 69 69 73 74 74 74 75 75 73 72 71 71 73 72 72 73 73 72 72 72 72 72 72
61 49 44 49 52 57 64 62 69 71 68 67 67 65 68 67 67 65 63 64 64 67 66 67 66 66 66 67 70 72 72 72 72 71 70 69 64 65 66 68 69 72 72 72 72 72 72 71 70
55 47 50 58 57 58 63 62 65 66 65 63 64 66 66 67 64 64 63 64 63 64 64 66 66 65 65 71 66 65 67 66 65 65 64 63 62 62 66 65 68 71 71 71 71 71 71 69 60
56 51 57 61 63 63 62 63 65 62 62 66 66 64 64 62 63 64 64 64 65 65 65 67 65 66 65 68 64 62 62 62 62 63 62 62 63 60 60 60 62 63 65 62 65 62 61 58 57
52 60 61 63 65 62 62 65 63 63 66 69 71 70 64 63 63 64 65 65 63 65 66 66 66 66 64 66 64 62 62 61 60 61 62 60 60 58 58 59 61 60 60 59 58 57 57 56 56
54 59 62 64 63 62 65 62 62 63 70 68 71 67 65 64 64 64 65 65 65 65 66 67 66 66 67 63 62 61 63 63 63 62 63 62 61 60 58 59 60 59 58 58 57 57 57 56 55
59 60 61 62 63 62 61 62 60 66 68 68 68 66 64 64 66 63 64 67 66 66 68 68 68 68 67 66 62 64 64 64 63 63 64 63 64 63 60 60 60 60 58 58 59 58 58 57 57
61 54 57 60 61 61 61 58 60 66 64 66 66 65 67 66 64 65 66 66 67 67 67 67 69 68 66 67 65 65 65 65 63 64 64 64 64 64 64 62 62 61 57 58 57 57 56 55 56
52 51 46 55 58 61 61 49 62 66 58 62 65 60 63 64 65 63 66 67 67 67 67 67 73 70 68 68 67 66 66 64 64 64 63 64 64 62 61 61 61 60 58 58 57 58 58 56 56
47 42 44 51 59 58 57 52 62 61 62 63 57 57 59 60 62 61 63 62 63 63 65 66 66 68 69 68 68 65 65 65 65 62 62 64 63 63 61 61 61 60 58 59 59 60 57 61 58
42 42 44 45 55 54 52 54 59 59 59 56 55 55 57 60 60 60 62 59 61 60 62 64 65 66 65 66 64 62 62 65 63 64 64 63 63 63 62 64 63 60 59 60 57 60 58 60 62
49 45 44 50 57 55 53 53 58 58 56 54 54 55 56 58 57 60 59 58 59 59 60 61 64 64 63 61 60 60 64 62 61 62 64 64 64 64 63 64 64 61 61 63 63 61 60 60 55
50 46 45 52 57 54 51 53 56 55 55 54 56 55 57 56 58 59 59 57 57 57 58 60 61 62 62 62 62 63 62 61 62 63 63 64 64 64 64 64 65 64 62 62 62 60 60 60 57
47 45 45 48 53 53 48 48 49 54 54 56 55 56 57 57 57 57 56 55 55 55 55 59 60 61 61 63 62 62 62 61 61 61 61 63 64 65 65 66 65 65 62 63 63 61 59 60 64
44 53 54 51 46 41 48 38 43 49 52 52 51 54 55 56 56 56 56 55 54 55 56 58 59 60 62 60 60 59 58 58 59 59 60 62 63 63 64 65 65 65 64 62 63 64 62 62 59
51 56 51 49 43 39 42 40 44 50 49 52 52 53 54 54 55 55 55 56 55 55 55 56 58 60 59 58 58 56 56 56 57 57 58 59 60 62 62 62 62 62 64 64 65 64 63 64 62
57 51 48 43 41 35 42 43 42 46 52 50 50 52 55 54 54 54 55 56 56 55 55 56 58 57 58 58 57 56 55 55 56 55 56 57 58 59 60 61 61 61 61 63 65 65 64 64 63
50 43 35 34 33 34 41 40 47 52 53 58 53 53 53 54 54 54 53 54 55 55 55 57 57 56 56 56 56 55 55 54 54 54 54 54 56 56 60 58 59 59 60 61 62 62 62 63 62
46 45 36 32 31 37 43 39 48 51 54 56 56 54 54 53 53 54 54 54 54 55 55 55 55 55 55 55 55 55 55 54 54 54 54 54 54 55 56 58 59 59 60 60 59 57 59 60 61
46 42 47 41 36 36 40 45 49 51 50 52 52 53 53 53 53 54 53 54 55 54 53 53 54 53 53 53 54 53 53 53 53 53 53 53 55 60 58 57 55 57 57 58 58 58 57 57 56
47 51 41 39 33 31 36 38 43 44 47 50 50 51 52 53 53 53 54 54 53 52 52 52 52 52 52 52 52 53 52 52 52 53 52 54 55 56 56 56 57 57 57 57 57 57 57 56 57
45 43 43 42 39 34 31 38 48 49 50 51 52 53 53 52 52 52 53 52 52 51 51 50 51 51 51 51 51 50 50 50 50 51 52 52 53 54 54 55 55 55 55 56 56 56 56 56 56
46 47 45 39 37 36 35 39 51 48 52 53 53 54 51 52 52 52 50 50 49 49 48 48 49 49 49 50 49 49 49 50 50 50 51 52 51 53 53 54 54 54 54 55 54 54 54 53 53

GFSSGP_sfc_temp_003.txt.gz
Temp
74 71 64 64 55 51 46 53 56 61 61 63 66 65 62 60 63 57 63 66 67 68 71 75 78 79 78 78 77 77 77 77 77 78 78 77 77 77 76 76 75 75 76 75 76 76 77 75 76
70 72 63 56 49 43 47 54 57 61 66 66 65 65 63 61 62 61 61 68 69 70 71 72 77 77 78 78 77 77 77 77 77 78 77 77 77 77 77 77 76 75 74 74 74 76 75 75 75
72 68 59 52 44 44 48 55 60 65 67 64 63 63 62 63 63 62 65 68 69 69 71 72 77 77 78 77 77 76 77 77 77 77 76 76 77 77 76 75 75 75 74 73 73 73 74 74 75
67 63 56 49 45 52 53 60 62 63 68 66 64 63 63 63 63 66 67 68 67 67 69 73 76 77 77 77 77 76 77 77 77 77 77 76 77 77 75 75 75 73 73 73 73 72 72 73 73
61 56 48 43 47 53 57 62 64 63 65 66 67 63 62 63 63 66 66 68 66 66 68 72 76 77 77 77 76 76 76 76 77 78 77 76 77 77 76 74 74 73 73 72 72 72 72 72 73
58 54 44 41 47 54 57 61 61 63 63 65 63 60 62 61 64 66 66 65 68 66 68 71 75 76 76 76 76 76 76 76 76 77 77 76 76 75 75 74 74 74 73 72 72 72 72 72 72
54 49 44 43 47 52 59 63 61 61 62 65 66 59 61 59 65 67 65 64 67 67 68 69 71 73 75 75 75 75 76 75 76 76 77 75 74 74 74 74 73 74 73 73 72 72 72 72 72
56 52 44 44 46 52 60 63 65 64 62 69 65 62 63 63 66 66 64 64 64 66 68 67 68 69 69 69 73 74 74 74 74 74 74 72 71 71 73 73 72 73 73 73 72 72 72 72 72
58 48 43 48 49 54 61 59 65 68 64 66 63 61 65 65 65 62 61 61 62 65 65 66 66 66 67 67 69 72 72 72 72 71 70 69 64 64 65 67 69 71 73 73 72 72 72 71 70
54 46 49 56 55 56 60 58 62 63 63 63 64 64 64 63 61 62 61 61 60 62 64 65 64 64 64 70 65 65 67 65 65 65 64 63 62 61 65 64 68 70 71 71 72 72 71 69 60
53 49 55 59 61 60 59 60 63 60 59 64 65 66 61 60 61 62 62 61 61 62 63 65 64 64 63 64 62 62 62 62 62 62 62 61 62 59 60 59 60 62 64 62 64 62 60 58 57
50 57 59 61 62 59 59 62 61 62 65 69 68 68 63 62 61 62 62 62 62 63 63 64 64 63 62 63 61 61 62 61 60 60 61 60 59 58 57 58 58 59 59 59 58 57 57 56 56
52 57 60 62 61 59 61 58 59 61 67 67 68 66 64 62 62 63 63 64 62 63 64 64 63 64 64 61 61 60 61 61 60 60 60 60 59 58 57 57 57 58 58 57 57 56 56 55 55
58 58 60 60 61 60 58 59 57 62 65 66 66 67 64 62 63 61 61 62 62 63 64 66 65 65 64 63 60 61 59 60 59 59 61 60 61 59 58 57 57 57 57 57 57 57 57 57 56
58 53 56 58 60 58 58 56 57 64 61 62 62 62 63 63 62 64 63 64 64 65 66 65 66 65 63 64 61 62 61 62 60 62 60 60 60 59 60 58 57 58 57 57 57 56 55 55 56
52 49 45 54 56 58 60 50 59 64 57 61 57 56 57 59 59 59 61 61 61 62 64 65 70 67 64 64 62 63 61 61 62 61 60 61 62 61 59 61 60 60 58 58 57 58 56 56 56
50 40 43 50 56 54 54 49 60 58 59 60 54 55 57 57 58 57 59 58 59 59 59 61 63 65 64 63 62 62 62 62 63 60 60 61 62 61 61 61 62 59 59 58 59 59 56 59 58
43 41 43 44 52 51 49 51 60 57 57 54 53 54 55 57 57 57 58 56 58 57 59 60 62 62 62 62 61 60 60 61 61 60 61 62 62 62 61 62 62 60 59 60 57 58 59 58 61
48 45 43 47 53 50 49 51 57 56 54 52 52 53 54 56 55 57 57 56 57 58 58 58 60 59 60 59 58 58 59 60 60 60 62 62 62 62 60 62 62 62 60 62 63 59 58 58 56
49 43 43 50 53 50 48 50 54 54 53 52 53 52 53 54 54 55 55 54 54 54 55 57 58 58 59 59 59 60 60 60 60 61 62 62 62 62 61 61 62 62 60 60 60 59 58 58 60
46 43 43 46 51 50 47 46 49 51 51 54 53 54 55 54 53 53 53 52 52 53 53 57 57 59 59 59 60 60 60 60 59 59 59 61 61 62 61 61 61 61 59 60 61 59 58 57 60
45 52 49 48 44 39 45 36 44 48 49 51 49 51 53 53 52 54 54 53 52 53 54 55 57 58 60 58 58 56 55 55 55 55 56 58 59 60 60 60 60 59 60 59 60 63 62 60 58
47 53 49 47 43 37 40 38 44 46 47 50 50 50 50 52 53 53 53 54 53 53 53 54 57 57 56 56 54 54 53 53 53 53 55 55 57 57 57 57 56 57 59 59 59 60 61 62 61
54 49 46 41 39 33 40 41 42 43 51 47 48 50 51 52 51 52 53 54 53 53 53 53 56 55 55 56 55 53 52 52 53 53 53 53 54 55 58 57 56 54 54 55 56 57 57 58 59
48 43 34 32 32 32 38 37 49 49 51 55 52 50 51 51 51 51 52 52 52 51 52 55 53 53 53 54 53 52 51 51 50 50 51 51 53 54 55 54 54 55 55 55 53 53 53 54 54
44 45 35 30 30 33 39 36 47 49 50 55 55 52 51 51 50 51 51 51 51 51 51 51 51 51 52 51 51 50 50 50 50 50 50 50 50 52 53 54 55 55 55 55 55 53 51 52 51
44 41 45 39 34 32 37 43 48 48 47 50 50 50 50 50 50 51 51 50 49 49 49 49 50 50 50 50 50 49 49 49 48 48 48 49 50 55 53 52 52 53 54 54 54 54 52 53 52
47 50 40 37 31 29 34 35 42 43 44 46 48 49 50 50 50 50 50 49 48 48 48 49 49 48 48 48 48 48 47 47 47 47 47 48 50 50 50 51 51 52 52 53 52 52 53 52 52
43 41 41 41 37 32 29 37 46 48 48 49 49 51 50 49 50 49 48 48 48 47 47 47 47 47 47 47 47 45 46 46 45 46 47 47 48 48 49 49 49 50 50 51 50 51 52 51 51
43 44 43 37 34 33 32 38 47 47 50 50 51 51 49 50 49 48 47 47 46 45 45 45 46 45 45 46 45 45 44 45 45 45 45 46 46 47 47 47 47 47 48 48 48 48 49 49 48

GFSSGP_sfc_temp_006.txt.gz
Temp
72 69 63 62 54 49 44 52 53 59 60 60 65 61 61 60 62 57 61 65 65 67 69 74 78 78 78 78 77 77 76 76 77 78 79 78 77 77 76 76 76 77 76 76 76 77 77 77 76
69 71 63 55 49 43 46 52 55 58 63 65 63 62 61 62 62 62 61 66 67 68 69 71 77 78 78 78 77 77 76 76 77 77 78 77 77 77 77 77 76 75 75 74 74 74 76 75 75
70 67 59 50 44 43 46 53 57 62 64 63 61 63 61 63 63 62 64 67 67 67 69 71 77 78 77 77 77 77 76 77 77 77 77 76 77 77 76 75 75 75 74 73 73 73 74 74 74
66 63 56 49 43 50 51 54 60 61 65 63 62 63 63 64 63 65 65 67 66 66 68 72 76 77 77 77 77 76 76 76 77 77 77 76 76 77 76 75 74 74 73 73 73 73 73 73 73
60 55 47 42 45 51 54 59 61 58 61 63 62 62 61 62 63 63 65 67 65 66 67 70 76 77 77 77 76 76 76 77 77 77 77 77 76 77 76 75 74 74 73 73 73 73 73 73 73
57 53 44 40 44 52 55 59 58 57 60 64 60 59 63 60 61 63 65 64 66 66 67 70 74 76 76 76 76 76 76 76 76 76 78 77 76 77 76 75 74 74 74 73 73 73 73 73 72
53 49 44 41 45 49 56 60 57 59 58 61 62 59 62 61 64 64 63 63 65 66 67 68 70 72 75 75 75 75 76 75 76 76 76 77 74 74 75 74 74 74 74 74 73 73 73 73 72
55 52 43 42 45 49 58 60 62 59 61 67 63 60 61 61 63 63 62 62 62 65 66 67 68 69 69 69 74 74 74 74 74 74 73 73 71 71 73 73 73 73 73 74 73 73 73 73 72
56 47 43 47 48 52 58 58 62 64 61 63 63 61 65 64 63 60 58 60 60 64 64 66 66 67 67 67 69 72 72 72 72 71 70 69 64 64 65 67 69 71 72 73 74 73 72 71 70
53 45 48 55 54 54 58 56 60 60 60 61 62 65 63 61 58 60 59 60 59 61 63 65 65 65 65 69 66 66 67 66 65 64 64 63 62 61 64 64 67 70 70 71 72 72 72 69 59
52 48 53 57 59 58 57 58 60 57 57 62 64 66 63 59 60 60 61 61 60 59 62 64 64 64 64 64 63 62 63 62 62 62 62 61 62 59 59 58 59 59 62 61 62 61 60 59 57
49 56 56 59 60 58 56 59 58 59 62 67 66 65 63 62 61 61 60 59 58 60 62 64 64 63 63 62 61 61 61 61 60 60 61 59 58 58 57 57 57 57 58 58 58 58 58 57 56
50 54 58 60 59 58 58 56 56 59 65 65 65 65 64 62 61 59 61 61 61 61 63 63 63 63 63 61 60 60 60 61 60 60 60 59 58 58 57 57 56 57 57 57 57 57 58 57 56
56 57 57 58 60 58 57 58 56 59 61 63 63 62 62 62 61 58 61 62 61 62 62 64 63 63 63 63 60 61 59 60 59 59 59 60 59 58 57 57 57 56 57 58 58 58 58 57 56
56 50 55 56 57 57 56 55 55 62 57 61 59 57 59 60 60 58 59 59 60 60 62 63 64 62 62 62 61 61 60 61 59 59 59 59 59 58 59 57 57 58 57 57 57 57 56 56 56
51 48 43 52 54 57 56 50 58 60 56 58 58 54 55 56 56 56 57 57 58 58 58 59 67 64 61 60 60 60 59 59 59 59 59 59 59 59 58 58 60 60 56 56 56 57 56 55 56
51 45 42 48 55 53 51 47 57 56 57 55 52 50 53 55 55 55 56 55 56 56 57 58 60 62 62 60 60 59 60 59 59 58 58 59 60 60 58 59 60 59 56 55 57 58 55 59 59
45 46 40 43 49 49 48 49 58 55 54 53 51 50 51 53 53 54 56 54 56 55 56 57 59 58 59 59 59 59 59 58 58 58 59 60 60 60 58 59 59 59 56 57 56 56 60 59 60
47 43 43 46 51 47 47 47 53 55 54 51 50 51 51 53 52 54 54 53 55 55 55 55 58 56 57 58 57 57 58 59 59 60 61 60 60 60 59 58 58 58 57 59 60 57 55 58 57
49 47 42 48 50 47 47 48 53 52 54 51 51 51 51 51 52 53 53 52 52 52 54 57 57 57 56 58 58 59 58 59 59 59 60 60 60 60 61 58 58 58 57 57 57 57 59 59 60
48 46 42 44 48 48 45 44 46 49 49 51 51 51 51 52 52 51 51 50 51 51 52 55 55 57 57 57 58 58 58 57 55 56 57 57 58 59 58 57 56 56 57 57 57 58 58 57 61
42 49 51 47 43 37 44 35 42 46 47 48 48 49 50 50 49 52 53 52 51 52 53 53 55 55 56 54 56 53 52 51 51 52 52 54 55 55 56 55 54 53 54 53 54 58 56 57 56
46 53 51 49 40 35 37 36 41 42 45 47 47 48 49 49 50 51 52 52 52 52 51 51 54 54 53 54 52 52 51 50 50 51 51 51 53 54 55 55 53 53 53 52 51 52 52 52 53
54 50 48 44 39 32 38 40 38 42 45 44 45 48 49 49 49 50 51 51 50 50 50 50 53 52 52 52 51 50 49 49 50 49 50 51 51 52 53 53 53 52 52 52 52 51 49 50 50
50 47 35 34 31 31 35 34 42 46 49 52 50 49 49 48 48 49 49 49 49 49 49 52 51 49 50 50 50 49 48 47 46 47 47 48 49 50 51 51 51 51 52 52 51 50 48 49 48
46 43 34 29 29 32 36 34 44 45 47 50 54 51 49 48 48 49 49 48 48 48 48 48 48 48 48 48 47 47 47 47 47 46 46 47 47 48 49 49 50 50 51 51 51 50 48 49 47
42 41 44 37 31 31 35 41 48 47 46 45 49 49 47 47 48 48 47 47 46 47 47 47 47 47 47 46 46 45 45 45 44 44 44 45 46 50 48 47 47 48 49 49 49 48 48 49 48
47 49 39 36 30 28 32 34 40 45 43 43 45 47 47 48 48 47 47 46 46 46 46 46 46 45 45 45 44 45 43 43 43 43 42 43 44 45 45 45 45 46 46 46 46 47 47 47 48
43 40 39 40 35 31 28 36 43 45 46 46 46 47 47 47 48 47 46 45 45 45 45 44 44 44 44 44 43 43 43 42 42 41 41 42 42 42 43 44 44 44 44 44 44 45 46 46 45
43 43 42 36 32 31 31 36 45 44 45 47 47 48 48 49 48 46 45 44 44 44 43 43 43 43 43 43 42 41 41 40 39 39 40 41 40 42 41 42 42 42 43 43 43 43 43 43 43

GFSSGP_sfc_temp_009.txt.gz
Temp
75 73 70 69 62 57 54 58 64 66 69 73 72 71 73 74 72 69 73 74 73 75 76 79 78 78 78 77 77 77 77 77 77 78 79 78 78 77 77 76 76 77 77 76 77 77 78 77 77
74 75 68 62 56 51 55 61 62 67 72 72 70 72 72 74 74 75 74 74 74 75 77 78 77 78 78 78 77 77 77 76 77 77 79 79 78 78 77 77 76 76 76 74 74 75 76 75 75
75 71 64 56 51 52 55 61 65 68 70 68 72 75 74 75 75 75 75 74 74 75 77 77 77 78 78 78 77 76 76 77 77 77 77 77 77 78 78 76 75 75 75 74 73 74 73 74 74
71 68 64 56 53 58 59 64 65 66 71 69 73 72 76 77 77 76 74 74 74 75 77 76 76 78 78 77 76 76 76 77 77 77 77 77 77 77 77 75 75 74 73 73 73 73 73 73 73
66 62 54 52 53 58 62 64 66 64 66 69 73 72 73 75 73 73 73 73 74 74 76 77 76 77 77 77 77 77 76 76 77 77 77 77 77 77 77 76 74 74 74 73 73 73 73 73 73
62 60 53 50 52 58 61 64 64 64 66 69 70 71 75 72 73 72 72 73 74 74 74 76 75 76 77 76 76 76 76 76 76 77 77 78 77 76 78 76 74 74 74 74 73 73 73 73 73
60 56 52 51 52 55 61 66 65 66 65 69 73 69 76 75 72 71 72 72 73 74 74 75 77 77 74 75 75 76 76 75 76 76 76 76 76 74 75 75 74 74 74 74 74 73 73 72 73
60 58 50 51 52 55 64 65 68 67 68 73 73 70 72 74 72 71 70 70 71 72 74 74 75 76 77 78 74 74 74 74 74 74 73 72 72 72 73 73 72 73 73 73 74 73 72 73 73
62 53 48 52 52 58 64 62 67 70 68 69 72 72 74 71 69 69 69 68 69 70 72 73 74 75 76 76 75 73 73 72 72 73 70 72 75 74 72 69 69 70 72 72 73 73 73 72 70
59 50 52 59 59 60 63 62 65 65 65 67 71 74 73 70 69 69 69 69 68 69 70 72 73 73 74 74 75 75 75 76 76 75 74 75 74 72 70 67 67 69 69 69 70 71 71 70 73
56 53 57 60 62 63 61 61 65 64 62 67 70 72 72 71 70 68 69 69 70 71 70 72 72 73 72 73 74 73 73 73 73 73 72 72 70 70 70 69 70 70 66 71 71 71 72 71 71
54 57 59 62 63 63 61 63 62 63 67 71 71 70 69 71 71 70 68 70 70 70 71 72 72 71 71 72 72 73 72 71 71 71 71 70 69 68 68 69 69 68 70 69 69 70 70 70 70
54 58 60 62 61 60 61 59 61 62 68 71 68 68 69 69 70 69 69 70 71 69 71 71 71 71 71 70 71 71 71 71 71 70 70 70 68 68 69 69 69 68 69 68 69 69 69 69 69
58 59 61 60 62 61 60 62 61 67 67 68 67 67 66 66 68 68 68 69 69 69 70 72 71 71 71 71 70 71 71 71 70 70 70 69 69 68 68 68 68 68 69 70 69 69 69 69 69
59 55 57 58 61 61 60 57 56 68 66 66 66 64 62 62 63 62 63 65 65 67 67 68 70 71 70 70 70 70 70 70 70 70 70 69 68 68 68 68 68 69 69 68 68 68 67 67 68
55 55 48 57 59 60 61 53 63 63 62 63 64 61 60 60 60 61 61 63 64 65 66 66 68 70 69 69 69 70 70 70 70 70 69 69 69 68 68 67 68 69 68 67 67 67 66 66 64
51 44 46 51 58 58 57 53 60 63 63 63 63 60 60 60 61 60 61 61 62 63 64 65 66 67 68 67 68 68 68 69 69 69 69 69 69 68 68 68 69 69 67 67 66 66 65 65 66
44 46 48 48 55 54 53 52 59 61 60 62 62 58 58 58 58 59 60 61 62 63 64 64 64 65 66 67 67 67 68 68 68 68 68 68 68 67 67 67 67 67 66 66 66 64 66 63 63
50 50 50 51 55 53 51 51 57 60 59 58 57 57 58 58 58 59 59 60 63 62 63 62 63 63 66 66 66 67 65 66 66 66 67 67 67 67 66 66 66 66 65 65 65 64 64 64 66
49 48 47 50 53 53 52 52 58 57 58 59 56 56 57 57 58 57 58 59 59 60 61 62 62 62 63 65 65 66 66 64 64 64 63 64 64 64 64 63 63 63 63 63 63 63 61 63 66
48 46 46 47 50 52 49 49 51 57 57 54 55 56 57 57 56 56 57 57 58 58 58 60 60 61 61 63 65 65 64 63 62 61 61 61 62 62 61 61 61 60 61 59 59 60 58 56 61
44 51 52 49 47 42 51 40 47 54 53 52 53 55 55 55 56 56 56 57 57 56 57 58 58 59 60 61 60 59 58 57 57 58 59 60 60 60 60 59 59 59 59 58 58 60 57 56 54
47 53 51 50 46 43 44 43 48 49 50 51 51 53 54 55 56 54 55 55 56 56 55 57 57 57 57 58 58 57 56 56 57 57 57 57 58 58 57 58 57 57 57 57 56 56 55 55 54
52 49 47 46 44 37 42 45 45 49 51 50 51 52 53 54 54 54 54 55 55 55 55 55 56 54 55 55 55 55 54 54 54 53 54 54 55 56 56 55 55 56 55 55 55 55 54 53 54
51 46 35 32 34 35 40 39 48 51 53 55 54 53 53 54 53 53 53 54 54 53 54 55 54 52 54 53 53 53 52 52 51 51 52 52 52 52 52 53 53 53 53 53 53 52 52 53 51
46 46 37 32 32 36 39 38 49 53 53 53 55 54 52 52 53 53 53 53 52 52 53 53 53 51 52 52 51 52 52 51 51 51 51 50 50 51 52 51 52 52 52 52 52 51 51 52 50
42 41 48 38 37 36 40 45 52 52 50 49 51 52 51 52 52 52 52 52 52 51 51 52 51 50 51 51 51 50 50 49 48 49 49 49 49 51 50 50 49 50 50 50 50 50 50 50 51
48 52 39 40 34 32 36 38 44 49 50 47 48 51 50 51 51 51 51 50 50 50 50 50 50 49 49 49 50 48 48 48 48 48 47 47 48 48 48 48 48 48 48 49 48 48 49 49 48
44 41 43 43 39 35 34 41 48 49 50 49 49 50 51 51 51 50 50 50 49 49 49 49 49 48 48 48 47 47 46 47 47 46 46 46 46 46 46 46 46 46 46 47 47 47 48 46 46
47 45 46 39 35 35 36 41 50 48 48 49 50 50 51 52 51 50 49 48 48 47 48 47 47 47 46 46 46 45 45 45 45 45 45 45 44 45 45 45 45 45 45 45 45 44 45 44 44

GFSSGP_sfc_temp_012.txt.gz
Temp
84 85 88 84 71 70 66 67 74 72 74 81 83 79 80 83 80 74 83 86 84 86 86 83 78 79 79 78 77 77 77 77 77 77 78 78 78 77 78 76 77 77 77 76 76 77 76 78 77
87 86 82 78 67 62 67 72 70 74 79 81 82 80 79 81 87 86 86 86 84 86 87 87 77 78 78 78 77 77 77 77 77 77 79 78 78 78 77 77 77 76 76 74 74 74 74 74 75
86 85 79 72 64 61 65 70 73 77 81 78 80 84 83 83 86 88 86 86 85 86 87 85 77 78 78 78 77 77 77 76 77 77 77 77 77 78 78 76 76 75 75 74 74 73 74 73 74
84 84 79 68 63 66 66 72 74 76 80 79 82 80 86 88 87 86 85 86 86 87 87 80 77 78 78 78 77 77 76 76 76 77 77 77 76 77 77 76 75 74 74 73 73 73 73 73 73
86 79 68 64 63 69 74 75 75 72 76 78 79 80 82 84 84 85 84 85 85 86 87 85 76 77 77 77 76 77 76 76 77 77 77 77 77 77 77 75 74 74 74 74 73 74 73 73 73
75 75 63 60 64 69 74 75 74 75 77 78 79 79 82 85 84 83 84 85 85 85 84 85 77 76 77 77 76 77 76 76 76 76 77 77 77 77 77 76 74 74 74 74 74 74 73 74 73
70 68 63 63 64 66 71 76 74 74 77 76 81 75 85 87 83 82 84 85 84 85 84 85 85 80 74 75 76 76 76 76 76 76 76 75 75 74 75 75 74 74 74 74 74 73 74 74 73
73 70 62 64 64 63 72 74 76 75 75 83 82 78 80 84 83 82 82 83 83 82 84 84 85 85 85 84 74 74 74 74 74 74 73 72 72 73 73 73 73 72 73 73 73 74 73 73 73
73 63 60 62 63 67 73 71 77 79 76 80 82 82 84 83 80 80 79 79 81 81 83 84 85 85 85 85 82 74 73 73 73 73 71 73 81 81 78 72 70 70 71 72 72 73 73 72 71
68 62 63 70 72 70 71 71 73 73 76 78 80 84 85 84 84 81 81 82 81 82 83 84 83 84 84 83 84 83 84 83 83 83 82 82 82 82 77 70 67 69 70 70 71 71 71 70 79
68 62 70 70 72 72 70 71 74 71 70 77 77 82 84 84 84 83 83 83 83 84 84 83 83 84 83 83 84 84 84 84 84 82 81 81 81 80 80 79 78 78 70 77 77 78 79 79 79
62 68 71 71 71 70 69 73 70 73 73 81 82 82 80 82 83 85 84 83 83 81 82 84 84 82 82 84 83 84 83 83 82 82 81 80 79 78 78 78 78 77 79 78 78 78 79 78 78
63 68 70 72 71 70 71 68 70 71 78 82 82 80 80 81 82 84 82 82 82 81 82 82 83 82 82 81 83 83 82 82 82 81 80 80 78 78 78 78 78 78 79 78 78 78 78 78 79
68 67 68 71 70 71 66 70 68 75 82 81 80 78 79 77 76 79 79 80 81 81 80 82 82 82 83 82 81 82 83 83 81 81 80 78 78 78 77 77 78 78 79 79 78 78 78 77 78
68 61 66 68 69 68 70 64 67 77 79 75 77 78 73 71 74 73 74 76 77 80 79 80 79 82 82 82 81 82 82 81 81 81 80 78 77 77 76 76 76 78 79 77 78 77 77 76 77
60 61 55 67 69 69 67 59 72 76 74 73 74 75 72 70 71 72 73 74 75 77 77 77 77 79 80 81 81 82 82 82 81 81 80 78 77 76 76 76 76 77 77 76 75 75 74 74 74
58 51 54 60 68 67 65 62 72 73 73 74 77 74 72 71 72 72 72 73 74 76 76 76 76 78 78 78 79 78 78 80 80 80 79 76 76 75 75 75 75 76 75 75 74 74 73 71 70
50 52 57 57 64 63 62 62 70 74 71 73 75 73 72 71 69 70 71 73 74 76 77 76 76 77 78 78 78 78 77 76 76 76 76 76 75 75 75 74 74 75 74 73 73 72 73 72 72
61 58 56 61 65 60 62 64 67 73 73 71 72 72 71 70 69 70 71 73 74 75 75 75 75 76 78 77 76 75 72 72 72 72 73 72 73 72 71 72 71 71 70 70 70 70 68 69 71
59 55 54 63 61 60 62 61 68 72 71 72 72 71 70 68 69 68 70 71 72 72 73 73 72 74 75 75 74 73 71 71 71 70 70 70 70 70 69 68 68 68 68 67 66 66 64 66 68
56 53 57 57 58 61 59 60 65 66 66 65 70 72 70 69 67 68 68 69 70 69 69 70 70 70 72 73 73 72 71 70 69 68 68 67 68 67 67 66 67 66 66 64 64 64 62 59 64
48 61 58 55 51 49 59 50 62 68 65 64 66 67 68 68 68 67 68 67 67 66 67 68 68 68 69 71 70 69 67 64 65 66 67 67 66 65 65 65 64 64 64 62 62 64 61 60 58
55 60 58 55 51 49 55 51 61 61 62 62 65 66 66 67 67 65 65 64 65 65 65 66 66 66 67 67 68 67 65 65 65 66 65 65 65 64 62 62 62 62 62 61 60 60 59 60 58
58 56 54 54 50 45 55 53 58 63 64 64 64 65 65 66 66 65 64 65 64 64 64 65 64 64 65 65 65 64 63 63 63 62 62 63 63 62 61 60 61 60 59 58 58 58 58 58 58
57 50 37 37 37 44 51 50 60 65 63 66 63 64 65 65 64 63 63 63 63 62 62 63 63 61 63 62 62 62 61 61 60 60 60 59 60 59 58 58 58 58 58 57 57 57 56 57 55
48 54 48 38 41 47 48 48 60 63 64 65 69 67 65 64 65 64 64 63 62 61 62 62 62 60 61 61 60 61 60 60 60 58 58 58 58 58 57 56 57 57 57 57 57 56 56 56 55
44 42 57 48 48 48 53 57 63 61 61 61 64 64 62 63 64 63 63 63 62 62 61 61 60 59 59 59 60 59 59 58 57 57 57 56 56 56 56 56 55 56 56 55 55 55 55 55 55
51 58 44 49 40 39 49 50 58 60 61 59 61 62 63 63 63 62 62 62 62 61 60 60 60 58 58 58 58 57 57 57 56 56 54 54 55 55 54 54 54 54 54 54 54 53 54 53 52
50 46 48 53 50 47 46 52 63 61 62 61 62 64 63 62 62 62 62 61 60 59 59 58 58 57 57 57 57 56 55 55 55 54 54 54 54 53 53 53 52 52 52 53 52 52 51 50 50
57 53 53 47 43 49 49 54 62 61 60 60 63 63 64 63 63 62 61 59 58 58 58 57 57 57 56 55 55 54 53 54 54 53 53 53 52 53 51 51 51 51 51 51 50 49 50 49 48

GFSSGP_sfc_temp_015.txt.gz
Temp
87 93 89 85 70 71 67 72 78 76 76 83 85 82 81 84 82 73 87 91 90 90 89 83 79 78 79 78 78 77 77 77 77 77 78 78 78 78 78 77 77 77 77 76 75 75 75 75 76
89 92 87 78 65 63 67 78 74 78 81 85 84 83 81 82 91 88 89 90 90 90 90 88 78 79 79 78 77 77 77 77 77 77 78 78 78 78 77 77 77 76 75 75 74 74 74 74 74
90 92 79 73 66 60 65 75 77 80 85 83 82 87 86 84 90 91 91 90 90 90 90 85 78 78 78 78 77 77 77 76 76 77 77 77 77 78 78 77 76 75 74 74 74 74 74 74 73
86 86 82 67 65 71 70 75 77 77 83 84 84 81 89 90 90 90 91 91 91 91 91 78 77 78 78 78 77 77 77 77 76 76 77 77 77 76 77 76 75 74 74 73 73 73 73 73 73
86 80 67 66 67 72 78 79 77 74 78 80 82 81 84 87 90 90 90 91 91 91 91 84 77 78 78 77 77 76 76 76 76 76 77 77 77 77 76 76 75 74 74 74 74 74 74 74 73
73 77 64 62 68 73 78 81 79 78 80 81 79 79 81 90 89 87 89 90 91 89 88 86 76 76 77 77 76 77 76 76 76 76 76 77 76 76 76 76 75 74 74 74 75 75 75 74 74
70 68 63 66 67 70 75 81 78 77 79 80 84 78 86 86 87 87 89 91 89 90 88 88 85 79 74 75 76 76 76 76 76 76 76 75 74 75 75 75 74 74 74 74 74 74 74 74 74
75 71 63 66 65 67 77 77 80 78 77 87 86 79 80 85 88 87 88 88 89 88 88 88 88 86 84 82 75 74 75 74 75 74 74 72 72 73 74 74 74 72 73 73 73 73 73 74 73
78 64 60 64 66 70 78 74 81 83 78 82 86 85 86 88 87 86 84 84 86 86 87 88 89 88 88 88 80 74 73 73 73 73 71 72 79 81 80 73 71 71 72 72 72 73 73 72 70
69 62 64 74 75 73 76 75 76 75 77 79 83 89 89 89 89 86 86 86 85 85 86 88 88 88 87 87 84 83 84 82 81 82 83 82 83 83 80 73 70 70 70 70 71 72 71 70 75
69 62 72 74 77 76 73 73 79 74 71 78 79 83 87 87 87 87 88 88 88 88 88 87 87 87 87 86 86 86 86 85 85 85 84 84 83 82 81 80 79 78 71 75 77 76 76 78 78
64 71 72 74 76 73 70 75 73 75 76 82 83 85 85 84 86 87 88 89 89 87 87 88 88 86 86 87 85 86 85 85 85 84 83 83 81 80 80 80 79 79 79 78 78 78 79 78 79
63 70 73 75 75 74 74 71 71 73 80 84 85 84 84 84 85 88 89 88 89 87 86 86 87 86 85 84 86 85 85 84 84 83 83 82 80 79 80 80 79 79 79 79 78 78 79 79 80
67 70 71 74 73 73 70 71 73 75 81 82 83 83 84 84 83 83 85 85 86 87 85 87 86 86 86 84 84 85 85 85 84 83 82 81 80 79 78 78 78 79 79 79 79 78 78 78 79
67 62 67 69 72 70 74 65 67 78 81 79 81 83 83 80 80 80 80 81 82 85 83 84 84 86 85 84 84 84 84 84 83 82 82 81 80 78 78 77 77 78 79 78 76 76 76 76 77
60 59 51 65 70 72 70 58 73 81 78 77 79 80 78 76 77 78 78 79 80 81 81 81 81 81 84 85 83 84 84 83 82 81 81 80 80 79 77 76 75 75 74 74 75 75 74 74 74
54 49 52 58 72 70 67 61 73 79 76 76 79 80 78 76 77 77 77 78 79 81 80 79 81 82 82 83 82 82 81 81 80 80 79 78 77 77 76 74 74 76 75 75 73 73 73 71 72
49 49 55 55 67 67 64 63 71 76 77 76 78 81 78 76 74 75 76 78 80 80 80 79 80 80 81 80 80 80 78 77 76 75 75 75 75 74 74 74 73 73 72 71 71 70 70 69 70
58 56 57 63 69 66 63 64 69 74 76 75 76 78 77 75 74 75 76 78 78 78 78 79 79 80 80 79 76 75 72 72 72 72 73 73 73 72 71 71 71 70 69 69 68 67 65 65 67
51 54 59 63 67 63 63 63 70 74 74 76 77 77 76 73 73 73 74 76 76 76 76 76 76 77 78 76 75 73 72 71 71 70 71 71 70 70 69 67 67 67 66 66 65 64 61 63 64
52 53 58 57 63 64 62 58 63 71 75 76 76 79 77 73 71 71 72 73 73 72 72 72 73 73 72 73 72 72 71 71 69 69 68 68 68 67 66 66 65 65 64 62 62 62 59 57 61
43 60 61 59 56 49 62 50 65 70 67 69 72 75 74 73 73 72 71 70 69 68 70 71 71 72 73 74 73 71 68 65 67 67 68 68 67 65 64 64 63 63 63 61 60 62 59 58 55
47 63 60 57 55 51 53 51 61 70 66 68 71 73 72 72 71 70 69 68 68 68 67 69 69 69 70 71 71 69 67 67 67 67 66 66 66 65 62 62 62 61 60 59 58 58 57 58 57
54 60 57 56 53 43 54 55 59 64 67 71 71 71 70 70 70 69 68 67 66 66 66 67 67 67 68 68 68 66 65 65 64 63 63 64 64 63 61 61 60 60 58 57 57 57 56 56 57
48 47 37 37 37 44 59 55 61 66 68 71 68 69 69 69 68 66 65 65 65 64 65 66 66 64 66 65 65 64 63 63 61 62 61 61 61 59 58 58 58 58 58 57 57 56 55 55 54
45 50 46 37 40 47 55 49 60 68 69 73 72 70 69 68 68 66 66 66 64 64 65 65 64 63 64 64 63 63 63 62 61 60 60 59 58 58 58 57 58 58 57 57 56 55 55 55 54
44 46 58 51 55 52 53 59 64 67 65 67 69 68 66 67 67 66 67 66 65 64 65 64 63 62 62 62 62 61 61 60 59 59 59 57 58 58 57 56 56 56 56 56 55 54 53 54 53
51 60 48 53 42 42 52 55 57 61 64 65 66 66 66 67 67 67 66 66 66 65 64 64 64 62 61 61 61 60 59 59 58 58 56 56 57 56 55 55 55 54 55 54 54 53 53 52 52
45 45 53 57 55 48 48 53 68 65 65 65 67 68 67 66 66 66 66 66 64 63 62 62 61 60 60 60 60 59 58 57 58 57 56 55 55 55 54 54 53 53 53 53 52 51 51 50 49
55 49 55 49 46 53 51 53 67 67 65 66 67 67 68 67 67 66 66 64 62 61 61 61 60 60 59 59 59 57 57 57 56 55 54 55 53 54 53 53 52 52 51 51 49 48 49 48 47

GFSSGP_sfc_temp_018.txt.gz
Temp
81 86 84 72 59 58 55 62 72 69 68 73 77 73 71 74 72 60 76 82 84 81 79 78 78 79 79 78 78 77 77 77 77 78 78 78 78 78 77 77 77 77 76 75 75 75 75 75 75
80 83 77 67 54 51 56 68 67 70 74 76 77 75 72 70 80 76 76 82 85 83 79 79 78 78 79 78 77 77 77 77 77 77 78 78 78 78 77 77 77 76 75 75 74 74 74 74 74
83 86 66 61 57 52 56 67 68 73 76 74 73 76 74 72 80 77 80 83 84 82 82 79 78 78 78 78 77 77 77 76 77 77 77 76 77 77 78 77 76 75 74 74 74 74 73 73 73
78 73 70 57 56 64 64 68 71 71 75 77 77 72 76 78 77 80 84 84 82 81 76 76 77 78 78 77 77 77 77 76 76 76 76 77 77 76 77 76 75 74 74 73 73 73 73 73 73
77 69 57 55 60 67 67 73 72 67 71 73 74 70 70 76 82 82 82 84 81 81 76 76 77 77 78 77 77 76 76 76 76 76 76 77 77 77 76 75 75 74 74 74 75 75 75 75 74
65 67 54 52 60 70 69 73 71 71 73 74 69 70 68 76 77 77 82 79 84 81 80 76 76 76 77 77 76 76 76 76 76 76 76 77 75 76 76 76 75 74 74 74 75 75 75 75 74
63 59 55 57 60 65 70 75 65 70 70 71 73 67 71 74 77 80 79 81 80 81 80 77 75 75 75 75 75 76 76 75 75 76 75 75 73 74 75 75 75 74 74 74 74 74 74 74 74
67 63 56 58 58 60 72 73 72 69 69 78 76 66 64 71 78 79 77 79 78 79 79 78 77 76 74 72 74 74 74 74 74 74 73 72 71 72 74 73 73 73 73 73 73 73 73 73 73
72 56 53 57 60 64 73 68 75 77 71 74 77 75 77 80 80 77 73 75 75 79 78 78 78 78 77 77 74 73 73 73 73 72 71 69 67 70 71 71 71 72 72 72 73 73 73 72 70
63 54 56 67 68 67 72 70 70 70 70 70 73 80 81 80 76 74 74 73 74 75 77 78 78 78 78 82 72 71 73 70 71 72 70 69 69 69 73 69 70 72 71 71 72 72 72 70 67
63 55 64 68 72 73 69 69 72 68 64 70 70 73 76 75 74 76 77 77 76 77 76 78 77 78 77 76 73 74 74 73 74 73 73 72 72 69 68 67 67 64 66 65 69 67 67 66 67
59 66 67 68 72 71 66 70 67 69 68 75 75 76 76 76 74 76 75 74 75 77 77 78 78 76 76 76 74 74 74 73 72 73 74 70 69 68 68 67 67 67 67 65 67 67 69 69 70
59 63 69 71 71 71 72 66 66 67 73 76 77 77 75 76 75 76 76 75 76 75 77 77 77 75 75 74 74 74 73 73 73 72 73 71 69 67 68 67 67 67 67 67 67 67 71 72 72
63 63 65 68 70 70 67 66 66 68 73 73 75 75 75 75 73 70 74 73 72 75 76 77 77 76 76 74 73 73 74 74 73 72 72 73 69 68 67 67 70 69 72 72 71 71 71 71 71
64 56 63 63 67 67 68 61 62 70 72 72 72 72 75 72 72 67 70 71 71 71 73 75 75 76 75 74 74 73 74 75 74 73 75 72 71 69 68 67 68 70 71 71 70 70 67 65 66
54 56 47 60 65 67 64 52 65 72 71 70 70 69 69 70 69 69 69 68 68 68 72 72 76 72 73 74 73 74 76 73 74 73 74 73 73 69 67 69 69 69 66 64 63 62 61 61 60
50 42 47 52 64 65 62 55 66 71 70 66 66 68 69 68 68 68 67 66 67 70 70 70 71 72 73 73 72 74 72 70 70 73 72 71 68 68 67 64 62 63 62 60 60 59 58 57 58
41 43 48 48 58 61 58 59 64 69 67 65 67 68 67 67 67 67 68 65 69 70 70 69 70 71 71 70 70 70 68 67 66 64 64 65 64 64 61 61 60 60 59 58 57 56 56 55 55
49 49 48 54 63 58 58 60 62 66 67 64 65 66 65 65 66 66 66 67 67 68 68 68 69 70 69 67 66 65 61 60 61 61 63 63 62 62 59 58 58 58 56 56 57 55 53 52 53
47 45 47 54 62 60 58 58 62 64 66 67 66 66 65 63 63 64 65 64 65 65 66 66 67 67 68 66 65 63 61 60 60 60 61 61 60 59 60 56 55 55 54 53 53 52 50 50 51
46 43 46 46 57 61 54 52 57 63 67 68 69 68 66 64 61 62 61 62 61 60 61 63 63 63 64 65 65 64 62 59 57 57 56 58 58 58 56 55 54 53 52 50 50 49 49 46 48
40 52 49 51 44 41 54 37 53 60 62 65 63 64 64 63 63 63 61 59 58 58 60 62 63 63 63 63 61 59 56 54 55 55 56 56 57 55 56 55 53 52 51 49 49 53 48 47 45
43 52 48 48 44 46 48 42 50 59 58 61 60 62 63 63 62 60 59 60 59 58 57 58 60 60 61 60 59 57 55 54 55 55 55 55 55 54 54 53 51 50 49 48 48 47 47 47 45
49 47 45 46 45 37 46 44 46 54 58 59 61 61 63 62 61 60 59 59 57 56 56 57 57 58 58 57 57 55 53 53 52 52 51 52 52 51 51 53 50 50 49 48 47 47 46 46 45
46 41 34 34 34 34 51 45 49 56 62 65 62 61 62 61 60 58 56 55 55 55 55 57 56 55 56 55 55 54 53 52 50 50 49 49 49 48 48 49 48 48 48 48 48 46 45 45 43
43 36 33 29 30 37 51 42 49 60 63 64 64 62 62 60 59 57 56 55 55 56 55 55 55 54 54 54 53 52 52 50 50 50 49 48 47 47 48 48 48 48 48 48 47 45 44 46 42
42 33 44 42 46 41 43 47 53 59 57 60 60 61 59 59 58 57 57 56 55 55 55 54 54 53 54 53 52 51 50 50 49 49 48 47 48 52 48 47 46 47 47 47 46 43 43 43 42
44 48 39 43 37 33 40 43 45 51 52 57 58 58 58 59 58 58 58 56 56 55 54 54 54 53 52 52 51 51 49 49 49 48 47 47 48 48 47 46 46 46 46 45 44 43 43 43 43
41 41 45 49 46 38 35 40 55 55 57 56 57 60 59 59 59 58 58 57 55 54 53 53 52 52 51 51 50 48 48 49 48 47 47 47 47 46 46 46 45 45 44 44 43 42 44 43 41
46 46 46 41 39 42 41 40 58 56 58 58 58 61 60 60 59 58 57 55 53 52 52 51 51 51 50 51 49 48 48 47 46 46 46 46 44 45 44 44 44 44 43 43 42 41 42 39 39

GFSSGP_sfc_temp_021.txt.gz
Temp
76 76 73 69 55 51 49 57 59 65 66 66 69 67 65 66 67 58 72 75 75 74 76 77 78 79 79 79 78 77 77 77 77 78 78 78 78 78 77 77 77 76 76 75 75 75 75 75 75
72 76 69 61 51 45 49 58 59 63 68 70 72 68 67 64 71 71 71 78 77 76 76 76 78 78 78 78 78 77 77 77 77 78 78 78 78 77 77 77 76 76 75 74 74 74 74 74 74
75 75 62 54 49 46 50 58 60 68 71 70 69 71 67 65 72 71 73 79 77 75 77 77 77 78 78 78 77 77 77 76 77 77 77 76 77 78 79 77 76 75 74 74 73 73 73 73 73
71 66 62 51 50 58 58 62 64 67 71 73 69 67 69 72 70 75 78 79 75 73 76 76 77 78 77 77 77 77 76 76 76 76 76 77 77 77 77 76 75 74 73 73 73 73 73 73 73
67 59 50 47 52 59 63 68 66 63 66 69 69 64 65 71 74 76 77 79 73 71 74 76 77 77 77 77 77 77 76 76 76 76 76 76 76 76 76 75 75 74 74 74 75 75 75 75 74
59 57 45 44 51 61 64 69 67 64 64 69 66 65 63 68 73 73 78 76 75 73 74 75 75 76 77 77 76 76 76 76 76 76 76 76 75 76 76 75 74 74 74 74 74 74 74 74 74
55 50 46 48 52 57 64 69 66 63 62 66 68 63 63 66 73 77 74 76 75 75 73 72 72 74 75 75 75 76 76 75 75 75 75 74 74 74 75 75 75 74 74 74 74 74 74 74 74
59 53 48 48 52 54 65 69 69 67 63 71 71 62 60 69 76 76 76 77 75 74 73 70 69 71 71 71 73 74 74 74 74 74 73 72 71 72 74 73 73 74 74 73 73 73 73 73 73
62 47 46 50 53 58 66 65 70 73 67 67 70 69 74 75 74 71 71 71 71 75 72 71 71 71 71 71 72 73 73 72 72 71 70 69 66 67 69 69 71 72 73 73 73 73 73 72 70
54 47 51 59 61 59 66 65 66 65 64 64 67 74 74 72 71 69 68 69 69 71 73 73 72 72 72 77 70 68 70 68 68 68 67 66 65 65 70 68 70 72 72 72 72 73 72 70 64
55 50 58 61 65 66 64 64 67 62 59 65 66 67 70 74 73 72 70 69 71 73 72 74 73 73 72 73 70 69 68 67 67 67 67 66 68 65 65 63 64 63 65 64 66 65 65 64 63
50 59 61 63 66 65 62 66 62 64 64 69 70 71 70 71 71 73 71 72 70 70 73 74 74 72 72 71 71 70 70 68 66 67 68 66 65 64 64 63 63 63 63 62 63 63 65 67 69
53 58 63 65 66 66 67 63 62 63 68 71 72 73 70 70 71 72 72 71 69 71 72 72 72 72 72 70 71 70 72 69 69 69 70 67 65 64 64 64 64 64 65 68 68 69 70 70 70
59 59 61 63 63 65 63 62 61 63 67 68 69 69 69 70 70 69 67 67 68 69 72 73 73 71 72 70 69 69 71 73 70 71 69 69 66 65 65 65 68 67 69 70 69 69 68 62 62
55 52 56 58 61 61 64 58 59 65 67 66 68 66 70 68 69 67 68 68 66 67 68 70 71 71 71 71 70 71 74 74 73 71 73 71 68 66 65 64 68 68 69 67 63 61 60 60 62
48 50 44 54 59 63 62 49 60 65 62 63 65 63 64 67 68 66 68 67 67 67 68 69 74 70 69 70 70 73 73 72 71 71 71 70 69 68 65 65 64 63 59 58 57 55 55 54 55
44 37 41 48 58 58 58 52 61 64 64 65 61 61 63 63 63 64 67 66 65 66 67 68 68 68 68 67 69 70 70 69 68 68 68 66 63 62 62 59 57 57 56 55 55 54 52 51 52
39 37 40 41 52 55 53 54 59 62 62 62 60 62 60 62 61 64 67 64 66 65 65 65 65 65 68 67 66 66 66 64 63 62 61 61 60 59 57 56 56 55 54 53 52 51 51 50 49
42 40 40 47 55 53 52 53 58 62 64 58 58 59 58 59 60 63 63 63 63 63 64 64 65 65 67 64 62 61 56 59 59 60 60 58 58 58 55 54 54 53 51 50 52 50 49 48 48
42 38 38 46 53 52 52 52 59 62 61 62 61 59 57 56 58 60 61 60 60 59 59 61 62 62 64 64 60 58 58 56 57 56 57 57 56 55 56 52 51 51 49 49 48 47 46 46 47
41 38 39 41 49 52 48 47 53 59 64 64 63 63 61 59 58 57 56 56 56 57 58 59 60 62 63 63 63 60 57 55 53 52 52 53 54 54 53 51 50 49 47 46 46 45 45 42 44
35 47 46 45 43 38 48 37 46 55 56 58 59 56 59 58 59 59 56 54 55 54 57 58 60 61 60 61 59 56 53 51 51 51 51 51 52 52 52 51 49 48 47 45 45 48 44 43 41
40 48 45 45 41 40 42 38 42 52 55 59 61 54 58 59 60 57 56 56 55 54 54 54 56 56 56 56 55 54 51 50 51 50 50 50 49 50 51 50 48 47 46 45 45 44 43 43 42
46 42 42 42 41 32 39 39 40 47 55 59 60 56 57 58 57 56 56 56 53 53 53 53 55 53 54 54 53 52 50 49 48 48 47 47 47 47 48 50 47 46 45 44 44 43 43 42 41
41 35 26 28 29 30 44 40 43 51 56 60 57 57 57 57 55 54 53 53 51 51 52 53 53 51 52 52 51 50 48 48 47 46 46 46 46 45 45 46 45 44 44 45 44 43 42 41 40
37 36 30 21 29 35 44 36 44 59 57 62 60 59 57 55 55 53 53 52 51 52 51 51 51 50 50 50 49 48 48 47 46 46 45 45 45 44 45 45 44 44 45 44 43 41 41 42 39
36 31 43 34 36 35 37 44 50 52 53 56 55 56 54 53 53 53 53 53 51 50 50 51 50 49 50 49 48 47 47 47 45 45 45 44 44 50 45 44 44 43 44 43 42 40 40 39 39
43 48 33 32 29 28 36 38 41 46 49 53 54 54 54 54 53 53 53 53 51 51 50 50 50 49 48 48 47 47 46 46 45 45 44 44 44 45 44 43 42 42 42 42 40 39 40 39 38
37 35 41 40 36 33 31 37 48 51 53 53 54 55 54 54 54 53 53 54 51 51 50 49 49 48 47 47 46 45 45 45 45 44 43 44 44 43 43 42 42 41 41 41 39 38 40 38 36
47 40 42 33 35 39 37 37 51 52 53 55 54 56 55 55 54 54 53 52 51 50 49 49 47 47 47 46 46 45 45 44 43 43 43 43 42 42 41 41 41 41 41 40 38 37 37 36 35

GFSSGP_sfc_temp_024.txt.gz
Temp
74 73 68 66 55 51 46 52 56 61 63 65 69 67 64 62 64 57 66 71 72 72 75 77 78 79 79 78 78 77 77 77 77 77 77 78 78 77 77 77 76 76 75 75 75 74 74 75 74
71 74 66 58 49 44 48 55 56 61 66 69 68 67 64 61 67 68 66 71 74 74 75 76 78 78 79 78 77 77 77 77 77 78 78 78 78 77 77 77 76 76 75 74 74 74 73 73 73
73 72 60 52 46 44 48 57 60 66 68 68 64 68 64 63 68 68 69 73 74 73 75 76 77 78 78 78 77 77 77 76 77 77 77 78 78 77 77 76 75 75 74 73 73 73 73 73 73
68 64 59 49 47 53 55 59 62 66 69 69 66 64 66 68 71 73 72 74 71 70 71 75 77 78 78 77 77 77 76 76 76 76 76 76 76 77 79 76 75 74 73 73 73 73 73 73 73
63 56 48 44 49 54 56 64 63 63 63 65 67 62 62 69 70 74 72 74 70 69 71 74 77 77 77 77 77 76 76 76 76 76 76 76 75 76 76 76 75 74 73 73 74 74 74 74 74
56 54 43 42 48 56 58 62 63 64 62 66 64 60 62 67 71 73 74 70 73 71 73 74 75 76 76 77 76 76 76 76 76 76 76 76 75 75 76 75 74 74 74 73 74 74 74 74 74
53 48 44 44 48 52 59 64 58 63 62 63 66 57 60 64 72 74 72 70 71 72 72 71 72 74 74 75 75 75 76 75 75 75 75 75 74 74 75 75 74 74 74 74 74 73 74 74 74
56 51 44 46 48 51 61 64 66 64 62 68 70 59 59 68 73 73 71 69 68 70 71 70 70 71 71 72 73 74 74 74 74 73 73 71 71 72 74 73 73 74 74 73 73 73 73 73 73
59 45 43 48 50 55 62 60 68 70 65 65 67 67 71 72 71 69 68 67 67 69 69 69 69 69 70 70 71 72 72 72 72 71 70 69 64 65 67 69 70 72 73 73 73 73 73 72 70
51 46 48 55 58 57 60 61 64 62 61 61 64 70 70 70 67 69 67 67 66 67 68 68 69 69 69 74 69 68 69 68 67 67 66 65 64 63 68 66 69 72 72 72 73 73 72 70 64
52 48 55 58 62 62 59 59 65 61 58 63 63 64 67 67 67 68 67 67 68 71 70 70 69 69 69 71 68 67 66 65 65 65 65 64 65 62 63 62 63 62 64 63 65 64 63 63 62
47 55 58 59 62 60 57 62 59 61 63 67 67 68 67 68 69 69 67 67 67 68 71 71 71 70 68 70 68 68 67 65 64 65 66 63 61 61 60 60 61 61 62 61 61 61 64 68 69
47 53 58 60 61 62 63 59 59 60 66 68 69 69 67 67 67 69 70 71 68 67 71 70 70 71 70 68 69 66 67 66 66 65 66 64 62 62 62 62 62 62 65 67 67 67 67 66 62
52 53 55 59 59 60 58 58 58 61 65 65 67 67 66 67 68 66 68 69 68 67 69 70 70 69 70 69 66 67 68 70 69 70 69 66 64 63 62 62 63 67 67 67 65 64 60 57 57
52 46 51 53 55 56 60 54 56 63 64 63 63 65 65 67 67 68 68 67 66 67 68 68 70 69 68 68 68 69 73 73 71 70 70 69 65 63 61 61 64 64 64 63 59 56 55 54 56
45 43 39 50 55 57 57 47 58 62 59 60 61 61 60 64 67 65 66 66 66 66 67 68 72 68 68 68 67 71 71 70 69 68 68 68 67 66 64 62 61 57 55 54 53 52 52 51 50
40 33 37 44 55 54 54 50 58 62 59 59 60 59 60 61 62 61 65 65 65 65 65 67 67 67 65 65 66 68 68 67 67 66 65 64 63 61 58 55 54 53 52 51 52 50 49 48 48
39 34 37 38 48 52 51 50 56 59 58 59 62 65 57 59 61 61 64 63 63 63 64 64 64 63 64 64 64 65 64 63 63 62 60 58 57 56 54 52 52 52 50 49 49 48 48 47 46
40 37 36 40 49 46 48 50 55 59 58 56 56 55 56 57 57 60 61 60 60 61 61 61 61 62 64 62 60 56 54 60 59 59 57 55 55 54 52 50 50 50 48 47 48 46 45 45 44
40 37 37 42 48 48 47 46 52 57 59 60 61 58 56 54 56 58 58 57 59 58 58 59 60 60 61 61 57 57 55 57 55 54 53 53 53 53 53 49 48 48 47 46 45 44 43 43 43
39 37 38 39 44 47 46 43 48 55 58 61 63 63 57 58 56 55 54 54 54 55 56 58 58 59 60 60 60 58 57 53 51 50 49 50 51 51 50 49 47 46 45 44 43 43 42 40 42
34 44 43 41 39 30 44 33 43 49 54 57 61 57 57 58 56 55 53 52 53 53 55 57 59 59 60 60 59 58 54 51 48 48 48 48 50 49 50 48 47 46 44 43 43 46 42 41 39
38 46 42 41 37 37 38 34 39 49 48 54 59 60 58 57 57 55 54 55 53 53 53 54 56 56 55 55 56 54 50 48 48 47 46 47 47 48 48 47 46 45 43 42 42 41 41 40 39
45 41 40 37 35 29 36 36 37 43 49 55 59 56 57 56 56 53 53 53 51 51 51 52 54 52 53 53 51 51 49 47 47 45 44 45 45 45 46 47 44 43 43 42 41 41 40 39 39
43 36 26 24 24 24 39 35 39 47 52 57 59 54 54 56 53 51 52 51 51 51 50 52 52 49 50 50 50 48 47 47 46 45 44 44 44 43 43 44 43 42 42 42 41 40 39 39 37
37 36 26 17 20 26 40 32 41 52 57 60 58 58 55 53 53 53 52 51 51 51 49 50 50 48 49 49 47 46 46 45 45 44 44 43 43 43 43 43 42 42 42 41 40 39 38 39 36
35 31 40 29 33 28 33 38 48 52 51 52 53 53 52 52 52 51 51 51 51 50 49 49 49 47 48 47 46 45 45 45 44 43 43 43 43 47 42 42 41 41 41 40 39 37 37 37 36
41 42 29 30 20 22 34 32 40 48 49 48 50 50 51 51 51 50 51 51 50 50 47 47 49 48 46 46 46 45 44 44 43 43 42 42 42 42 42 41 40 40 40 39 38 37 37 36 35
35 32 36 36 33 24 27 35 52 53 53 48 50 51 50 50 50 50 51 51 49 49 48 47 47 46 45 45 44 43 43 43 43 42 42 42 41 41 41 40 39 39 39 38 37 36 37 36 34
38 37 37 31 30 34 32 35 50 51 53 53 52 52 51 51 51 50 51 49 48 48 47 46 45 45 44 44 43 43 42 42 41 41 41 41 40 40 40 39 39 38 38 38 36 35 35 34 33

GFSSGP_sfc_temp_027.txt.gz
Temp
73 71 65 64 53 50 46 52 53 58 60 61 64 62 64 60 62 56 65 70 70 72 74 77 78 79 79 78 78 77 77 77 77 77 77 77 79 77 77 77 76 76 75 75 75 74 74 74 74
69 71 64 55 47 41 46 54 56 60 64 67 63 62 61 59 65 63 65 70 72 73 74 74 78 78 79 78 77 77 77 77 77 77 77 77 77 77 77 76 76 75 75 74 74 73 73 73 73
70 69 59 50 43 42 45 55 58 64 67 65 63 64 61 61 66 66 67 70 72 71 73 74 77 78 78 77 77 77 77 77 77 77 77 77 77 77 77 76 76 75 74 73 73 73 73 73 73
65 62 56 48 45 50 52 54 60 63 68 68 64 60 64 67 67 71 70 71 70 69 71 74 77 78 78 77 77 77 77 76 77 76 76 77 77 77 77 76 75 74 73 73 73 73 73 73 73
61 54 46 42 46 50 53 59 59 60 63 64 64 61 60 69 69 69 69 71 69 68 70 73 77 77 77 77 77 77 76 76 76 76 76 76 76 76 77 76 75 74 73 73 73 74 74 74 74
55 52 41 41 47 52 55 59 58 58 63 63 63 60 61 68 67 67 69 67 71 69 70 72 75 76 76 77 76 76 76 76 76 76 76 76 75 75 77 76 74 74 73 73 73 73 74 74 74
51 46 42 41 46 50 56 61 57 59 58 62 67 59 61 64 71 70 68 67 69 70 70 71 72 73 74 75 75 76 76 75 75 75 76 75 74 74 76 75 74 74 74 74 73 73 74 74 74
54 50 42 43 46 49 58 61 63 60 61 65 66 58 57 67 70 70 67 67 67 69 70 70 70 71 71 71 73 74 74 74 74 74 73 72 71 72 73 73 73 74 74 74 73 73 73 73 73
57 44 42 46 47 52 58 57 63 66 61 63 63 64 67 69 70 67 64 64 64 68 68 69 69 69 70 70 71 72 72 72 72 71 70 68 64 64 66 68 70 72 73 73 73 73 73 72 70
51 45 47 52 53 53 58 58 60 61 61 59 61 66 67 67 67 67 65 64 63 64 66 68 68 68 68 72 69 68 69 67 67 66 65 64 62 62 66 65 68 71 71 71 72 73 72 68 63
50 47 55 55 58 60 56 57 61 57 56 61 61 62 66 65 64 66 66 65 65 66 65 67 67 67 68 69 67 66 66 65 65 65 64 63 64 61 61 60 61 62 63 62 63 62 62 61 62
45 52 55 56 59 57 54 58 57 57 60 65 65 66 64 66 65 66 66 66 64 65 68 69 67 66 66 68 67 66 65 64 64 64 64 62 61 60 59 59 59 59 60 60 60 63 66 66 66
45 49 55 57 58 57 59 56 55 57 63 66 66 65 65 65 65 66 67 67 67 66 68 69 68 67 67 66 65 65 65 64 64 64 64 63 61 59 59 59 60 60 65 66 65 65 64 62 58
49 50 51 55 55 56 55 56 55 56 61 62 63 64 65 65 64 64 65 66 66 67 69 70 69 68 67 68 65 65 64 65 64 67 66 66 65 62 60 59 60 64 64 64 63 61 57 53 54
50 44 48 50 52 52 56 52 53 60 61 59 60 61 64 65 64 64 67 67 67 66 65 67 69 68 67 68 66 65 66 68 69 69 69 68 66 61 59 59 61 59 60 59 54 53 52 51 52
43 40 36 47 52 54 55 44 54 61 60 57 58 58 60 62 64 64 65 65 64 64 64 65 71 68 67 66 65 70 70 69 67 66 66 67 66 65 62 60 55 54 53 52 51 49 49 48 47
40 32 34 42 52 52 50 46 55 59 57 56 56 57 59 60 61 62 62 62 63 63 63 63 65 66 64 64 65 67 67 66 65 65 64 64 62 61 59 54 52 51 49 48 49 48 46 45 47
35 32 33 36 45 47 46 47 53 56 56 53 54 56 58 58 61 62 61 60 62 62 62 62 62 62 63 63 62 63 63 62 62 61 60 59 56 55 52 50 49 49 48 47 46 46 45 44 43
37 35 33 39 47 42 42 44 48 53 54 56 53 55 59 56 58 59 59 58 58 58 60 59 59 60 63 61 59 57 58 58 58 59 59 57 53 52 50 48 48 47 46 45 46 44 43 43 42
37 35 36 40 45 43 41 41 48 51 52 55 56 57 59 54 55 58 57 55 57 57 57 57 58 59 60 60 56 55 54 54 56 56 55 52 51 51 50 47 46 46 45 44 43 42 41 41 41
36 35 38 38 43 44 40 39 45 52 55 56 58 60 61 58 55 55 54 54 54 55 55 56 56 57 57 58 58 57 58 56 54 53 48 48 49 49 48 47 46 44 43 42 41 40 40 38 40
32 41 41 39 36 29 38 27 40 44 49 54 56 58 59 54 57 57 52 52 53 53 54 55 57 57 58 59 58 58 55 52 50 46 45 46 48 47 47 46 45 44 42 41 41 43 39 39 37
38 45 40 39 34 31 34 28 33 44 45 50 50 56 56 55 56 54 54 54 53 52 52 53 55 55 55 55 56 54 50 49 45 45 44 45 45 46 46 45 44 43 41 40 40 39 38 38 37
45 41 40 38 33 25 33 31 34 40 45 48 51 53 55 56 56 54 51 52 50 50 51 52 54 51 52 53 52 52 50 47 46 43 43 43 43 43 44 45 43 42 41 40 39 39 38 37 37
42 35 25 24 24 22 35 31 36 44 46 49 52 54 54 53 52 50 50 50 49 50 50 51 53 49 50 50 49 49 48 48 45 43 42 42 42 42 42 42 41 40 40 40 39 38 37 37 35
35 35 27 19 19 21 38 29 38 48 54 57 58 57 53 52 52 52 52 51 50 50 50 50 50 48 48 48 46 45 46 45 43 43 42 42 42 41 41 41 41 40 40 39 38 37 36 37 34
34 30 39 30 31 26 30 35 43 50 49 49 51 51 49 50 51 52 51 50 50 49 48 49 48 47 47 46 45 43 43 44 43 42 42 41 41 45 41 40 40 39 39 39 37 36 35 35 34
38 41 29 30 19 17 26 29 35 41 48 53 49 49 49 50 51 50 50 49 49 47 46 47 48 47 45 44 45 43 42 42 42 42 41 41 41 41 40 39 39 38 38 37 36 35 35 34 34
35 32 34 34 28 18 21 29 45 48 53 51 47 47 48 49 49 49 49 49 47 46 46 45 46 45 44 44 43 42 41 41 41 41 40 40 40 40 39 39 38 37 37 36 35 34 35 34 33
42 37 36 28 24 29 29 31 47 45 48 50 47 48 48 49 49 49 48 47 47 46 45 44 44 44 43 43 42 41 41 40 40 40 40 40 39 39 38 38 37 37 36 35 34 33 34 33 32

GFSSGP_sfc_temp_030.txt.gz
Temp
72 69 64 62 53 47 42 48 50 57 57 60 61 62 61 60 61 56 63 67 68 70 72 78 79 79 79 78 78 77 77 77 77 77 78 78 78 77 77 77 76 76 75 75 75 74 75 74 74
68 70 63 54 46 40 44 49 53 57 64 65 62 62 59 59 63 63 64 68 70 72 72 73 78 78 78 78 77 77 77 77 77 77 77 78 78 77 77 76 76 75 75 74 74 73 73 73 73
68 67 58 50 42 40 44 51 54 60 63 64 61 63 61 60 65 64 67 69 71 71 72 73 77 78 78 78 77 77 77 77 77 77 77 77 77 77 77 76 76 75 74 73 73 73 73 73 73
64 61 55 47 44 48 50 51 56 60 65 65 64 61 63 66 65 68 68 70 69 69 71 74 77 78 78 77 77 77 77 77 77 77 77 77 77 77 77 76 75 74 73 73 73 73 72 72 73
59 53 45 41 44 48 51 56 58 57 59 61 63 61 61 67 66 67 67 69 68 68 70 72 77 77 77 77 77 76 76 76 77 76 76 76 77 77 77 76 75 73 73 73 73 74 74 74 73
54 51 40 39 44 49 53 56 57 56 58 62 59 60 61 66 67 66 68 67 69 68 70 72 75 76 76 77 76 76 76 76 76 76 76 76 76 75 76 76 75 74 73 73 73 73 73 74 74
50 45 41 39 43 48 53 59 54 57 57 60 61 56 60 63 68 69 67 66 68 68 69 70 72 73 74 75 75 76 76 75 75 75 76 75 74 74 77 75 74 74 74 73 73 73 74 74 74
52 49 40 42 45 47 56 59 60 57 59 64 63 57 56 63 68 68 66 66 66 67 68 69 70 71 71 71 74 74 74 74 74 74 73 72 71 72 73 73 73 74 74 74 73 73 73 73 73
54 44 40 43 45 49 55 54 61 64 59 62 61 60 65 66 66 64 63 64 65 67 67 68 68 69 69 69 71 72 72 72 72 71 70 68 64 64 65 68 70 72 73 73 73 73 73 71 69
50 43 45 51 51 50 55 55 56 58 58 58 61 65 65 65 63 64 63 63 63 65 66 67 67 68 68 71 69 68 69 67 66 66 65 63 62 61 65 65 68 71 71 70 71 70 69 66 61
48 46 51 53 56 56 54 54 58 54 53 59 57 62 64 62 62 64 63 63 63 63 65 67 67 67 67 69 67 66 66 65 64 64 63 62 63 60 60 59 60 60 63 61 62 61 61 61 61
43 49 52 54 57 55 52 56 53 55 58 62 61 64 62 63 64 64 64 64 64 64 66 67 67 66 66 67 67 66 65 64 63 63 63 61 60 59 58 58 58 59 59 59 60 64 65 64 63
44 47 52 54 54 54 56 54 53 54 60 64 63 63 63 63 63 64 64 64 64 64 65 66 66 66 66 66 66 65 65 64 64 63 64 62 61 58 58 58 59 59 64 64 63 63 62 59 55
47 48 49 52 53 53 52 53 53 55 59 59 60 61 61 61 64 61 63 65 63 65 65 66 67 67 66 67 65 65 65 64 64 67 67 66 65 64 62 60 60 62 62 61 57 53 52 51 51
48 42 46 47 50 50 53 48 49 59 59 58 59 59 62 62 62 63 65 65 64 65 65 65 67 67 66 67 66 65 64 67 66 68 68 67 65 64 61 61 59 56 54 54 52 51 50 49 50
46 43 34 45 48 51 52 41 53 58 57 56 56 56 58 61 64 62 63 63 64 62 63 63 69 66 66 67 65 65 67 67 67 66 67 66 65 64 61 58 53 52 51 50 48 47 47 46 45
43 36 35 40 49 49 47 42 50 54 52 52 52 53 56 58 60 61 62 62 62 61 62 61 63 64 65 63 64 64 67 65 64 64 64 63 62 61 59 56 51 49 47 46 48 45 44 43 45
33 38 41 39 43 44 42 42 49 52 53 53 52 53 53 56 60 62 62 61 60 60 60 59 60 61 61 62 61 61 61 60 61 60 60 59 58 56 54 51 48 47 46 45 45 45 43 42 41
40 35 36 40 45 40 40 42 46 51 50 49 52 55 53 55 61 59 60 58 57 58 57 57 58 59 62 60 59 59 55 57 58 58 58 57 56 52 49 47 46 45 44 43 44 43 41 41 40
38 36 37 40 44 41 40 40 46 48 49 52 52 54 54 56 54 57 57 55 56 57 56 56 56 58 60 61 55 55 55 54 56 55 55 55 54 50 49 46 44 45 44 42 41 41 40 39 39
34 32 33 34 40 42 39 37 43 50 52 53 55 56 57 56 56 54 54 54 54 54 55 55 55 55 56 56 56 55 55 55 53 53 52 51 49 47 46 45 44 43 42 40 39 39 39 37 38
32 39 39 37 33 27 36 26 36 42 46 48 51 53 54 56 54 55 54 52 53 54 54 53 54 54 56 58 57 57 55 54 53 51 50 49 46 45 46 45 43 42 41 40 41 41 38 37 35
35 42 38 37 33 30 32 29 31 39 40 44 46 48 52 57 56 55 54 57 53 52 51 51 53 54 53 55 57 55 51 51 50 49 47 43 43 44 44 44 42 41 40 39 39 38 37 36 35
44 40 39 37 33 26 33 29 32 37 42 45 47 49 53 55 51 55 54 52 50 50 50 51 53 50 51 53 53 55 52 50 48 46 43 41 41 41 42 43 41 40 40 39 38 37 37 36 35
40 34 26 24 24 22 33 29 35 42 45 47 48 49 50 51 50 48 49 50 49 49 49 51 52 49 51 55 54 53 52 50 46 43 42 41 41 40 40 41 40 39 39 39 38 37 36 35 34
36 34 27 20 20 19 33 26 35 45 50 53 54 53 50 49 47 49 51 52 50 50 50 52 51 48 51 51 48 47 48 46 44 43 42 41 40 40 40 39 39 39 39 38 37 36 35 35 33
34 30 38 29 29 25 27 32 41 46 45 48 47 50 51 49 47 48 50 51 50 50 50 50 49 47 47 46 46 44 44 44 42 41 41 40 40 42 39 39 38 38 38 37 36 34 34 33 33
39 40 29 29 21 19 23 25 31 38 45 49 47 50 47 47 46 48 49 49 49 48 47 48 49 47 45 45 45 44 42 42 41 41 39 39 39 39 39 38 38 37 37 36 35 34 34 33 33
34 32 33 32 28 17 20 26 38 42 46 45 49 51 47 46 48 48 47 47 46 46 47 46 46 45 44 44 43 42 41 41 40 40 39 38 38 38 38 38 37 36 36 35 33 33 34 33 32
41 36 35 27 24 27 23 29 46 43 44 47 48 47 44 46 46 46 45 45 46 44 45 45 45 44 43 43 42 41 40 40 39 38 38 38 37 37 37 37 36 35 35 34 32 32 33 32 31

GFSSGP_sfc_temp_033.txt.gz
Temp
75 73 71 69 61 57 53 57 62 64 66 71 71 71 71 72 70 67 73 75 75 78 79 82 79 79 79 79 78 77 77 77 77 78 78 78 78 78 77 77 76 76 76 75 75 75 75 75 75
73 74 69 62 56 50 54 59 60 65 70 71 69 70 71 70 73 73 75 75 75 79 80 82 78 78 79 78 78 77 77 77 77 77 78 78 79 77 77 76 76 75 75 74 74 74 74 73 74
74 71 66 59 52 50 53 59 64 66 68 69 70 71 72 72 74 75 77 75 76 78 79 80 78 78 78 78 77 77 77 77 77 77 76 78 78 77 77 77 76 74 74 73 73 73 73 73 73
69 68 63 56 52 54 57 62 64 65 71 72 71 69 72 76 75 77 76 76 77 77 79 79 77 78 78 77 77 77 77 77 77 77 77 77 78 77 77 76 75 74 73 73 73 73 73 73 73
65 62 54 50 51 56 59 62 64 64 66 69 70 70 71 75 74 74 74 75 75 74 78 80 77 78 77 77 77 77 77 77 77 77 77 77 78 77 77 76 75 73 73 73 73 74 74 74 74
60 59 49 47 51 56 60 64 65 64 66 69 69 68 72 75 75 72 73 74 75 73 76 78 76 76 76 77 76 76 76 76 76 76 76 76 76 75 76 76 75 74 73 73 73 74 74 74 74
56 53 48 48 49 54 59 66 64 64 65 68 71 67 73 74 76 73 74 74 74 75 75 77 79 77 74 75 76 76 76 75 76 76 76 75 74 74 76 76 75 74 74 74 73 74 74 74 74
57 56 47 49 51 52 62 63 68 66 67 72 73 68 70 75 74 73 73 72 72 73 74 75 76 78 78 78 74 74 74 74 74 74 73 72 71 71 72 73 74 74 74 74 73 73 74 73 72
59 50 46 48 49 55 62 61 67 69 67 68 71 71 71 70 71 71 70 70 71 72 73 74 75 76 76 76 75 73 73 72 72 72 70 71 74 73 73 69 70 72 73 73 73 73 72 70 68
54 47 49 54 55 57 60 60 62 64 63 65 69 72 72 70 69 70 70 70 70 71 72 73 73 74 74 75 75 75 75 76 76 75 75 74 73 73 72 68 68 70 69 69 70 70 68 69 73
52 47 53 56 59 60 58 58 63 61 58 64 66 69 70 71 70 69 71 72 73 72 72 73 73 73 73 75 74 74 74 73 74 74 73 73 72 72 73 72 73 73 67 73 72 72 72 70 70
48 52 53 56 59 57 56 59 58 59 62 68 68 68 68 70 71 71 71 72 72 71 73 73 73 72 73 75 74 74 73 72 72 72 73 72 71 71 71 72 71 72 73 72 71 69 67 65 65
48 50 54 56 55 56 57 55 57 57 63 66 67 66 67 68 70 71 72 72 73 72 73 73 73 72 72 72 73 73 73 73 73 72 72 72 71 70 70 70 70 70 70 67 66 68 67 66 66
51 51 51 53 54 55 54 55 55 59 63 63 63 65 67 67 69 70 70 72 72 74 73 74 73 73 73 72 72 73 73 73 72 72 69 68 68 66 67 64 65 63 65 65 66 65 64 63 64
51 46 48 50 52 52 55 50 50 61 63 63 63 64 65 67 70 69 72 72 74 74 75 72 73 73 72 73 72 73 73 73 70 70 70 69 67 66 63 62 61 60 64 64 64 63 62 61 62
47 47 40 48 51 52 54 44 55 61 59 58 61 64 66 68 71 72 71 71 74 72 71 72 72 71 72 73 72 73 73 72 69 68 69 68 66 65 63 60 59 61 62 62 60 60 59 59 58
43 35 37 43 51 50 49 45 55 57 56 56 58 59 61 63 67 69 70 69 71 71 70 69 70 70 70 72 72 72 72 72 67 66 66 65 64 63 61 60 58 60 59 58 59 57 57 56 57
34 35 39 41 48 46 44 44 51 55 55 56 57 57 59 60 63 68 69 69 70 69 69 68 68 69 70 69 68 67 66 63 62 63 62 61 60 60 56 58 58 58 57 56 56 56 55 54 53
40 37 37 44 48 43 44 44 48 53 53 53 55 56 58 59 64 67 67 68 67 66 66 66 65 66 66 65 64 62 59 61 60 60 59 58 58 56 55 56 55 55 54 54 55 55 53 52 53
40 37 39 44 47 43 42 41 47 50 52 54 55 56 58 61 62 63 64 65 65 67 65 64 65 64 66 67 64 62 58 58 58 57 57 56 54 53 54 55 54 54 53 53 52 53 52 51 50
36 34 35 36 41 44 41 38 46 52 54 55 56 58 59 60 60 63 63 63 63 63 62 62 62 63 63 60 59 57 56 56 55 55 53 52 53 52 54 53 53 52 52 50 50 50 50 48 48
32 40 39 37 34 29 39 29 43 48 50 53 54 55 56 58 60 63 62 62 61 62 61 61 60 60 60 61 60 60 58 56 55 52 51 51 52 51 52 52 52 51 51 50 50 50 49 49 46
37 42 39 38 34 33 34 30 39 43 42 47 52 53 54 58 59 60 62 62 63 60 59 59 59 60 60 61 62 61 57 54 51 51 49 49 49 51 51 52 51 50 49 49 49 48 47 47 47
44 39 39 38 34 27 35 32 36 42 45 48 53 55 54 56 58 61 61 61 59 57 57 57 57 57 58 60 60 59 53 51 49 49 47 49 49 50 50 49 49 49 49 48 47 47 46 46 45
41 34 26 25 25 25 36 31 37 46 51 50 51 53 55 56 55 55 55 55 55 55 55 55 56 54 57 58 58 57 55 54 51 49 47 47 48 48 48 49 49 48 47 47 47 46 46 45 45
36 34 27 20 22 25 33 28 38 47 52 54 55 55 55 54 55 54 55 55 56 55 54 56 55 53 56 57 56 56 54 52 50 49 49 50 49 48 48 47 48 47 47 46 46 46 45 45 44
34 31 39 30 32 26 31 36 43 47 46 49 50 51 52 55 55 54 54 55 55 54 55 55 54 54 55 53 52 51 50 49 48 49 50 49 48 47 47 47 46 46 46 46 45 45 45 44 44
38 41 29 29 21 20 28 28 33 40 47 51 50 50 52 54 53 53 53 54 54 55 54 54 54 53 52 51 51 49 49 50 49 49 47 47 47 47 46 46 46 45 45 44 44 44 43 43 43
35 32 33 33 31 24 24 31 42 44 47 47 48 49 49 51 52 52 52 52 51 51 52 51 50 50 49 49 48 48 48 47 48 47 47 46 46 46 46 45 45 44 44 43 43 42 42 41 41
41 37 36 28 27 29 27 30 48 46 47 48 48 49 48 48 49 49 48 47 48 49 49 50 51 49 47 48 48 47 46 46 46 45 45 46 45 45 44 44 43 43 42 42 42 41 41 40 39

GFSSGP_sfc_temp_036.txt.gz
Temp
83 88 88 84 70 69 64 66 74 71 73 80 80 78 79 81 79 74 82 86 87 87 89 85 79 79 79 79 78 77 77 77 78 78 78 78 78 78 77 77 77 76 76 76 76 75 75 75 75
85 86 85 80 65 61 65 72 69 73 78 80 80 79 78 79 83 82 84 85 87 88 89 88 78 79 79 78 78 77 77 77 77 78 78 78 78 78 77 77 76 75 75 75 74 74 74 74 74
83 83 77 71 66 61 64 71 74 75 79 78 78 81 81 80 82 86 87 86 87 88 90 87 78 78 78 78 77 77 77 77 77 77 77 78 78 77 77 77 75 74 74 74 74 74 74 74 74
82 81 78 65 62 68 69 73 74 74 79 79 80 77 83 85 85 87 87 86 87 89 89 80 77 78 78 77 77 77 77 77 77 77 77 78 78 77 77 76 74 74 73 74 74 73 73 73 73
82 78 66 62 64 70 73 74 75 73 75 78 79 77 80 85 85 85 86 87 87 88 89 85 78 78 77 77 77 77 77 77 77 77 77 77 78 77 77 76 74 74 73 73 74 74 74 74 74
71 74 61 58 64 69 73 77 75 75 77 78 77 78 81 85 84 84 86 87 88 86 86 86 77 77 77 77 77 77 77 77 77 77 77 77 77 76 76 76 74 74 74 73 73 74 74 74 74
68 65 61 63 64 66 71 77 73 75 76 77 81 76 83 84 85 85 86 87 86 86 86 86 85 80 75 75 76 76 76 76 76 76 76 76 74 74 75 76 75 74 74 74 73 74 74 74 74
71 68 62 62 62 62 72 73 77 75 75 81 82 76 78 81 84 85 85 85 85 85 85 86 86 85 83 81 74 74 74 74 74 74 74 73 72 72 73 74 74 74 74 73 73 73 73 73 71
69 61 58 61 62 65 70 69 77 77 75 77 80 79 80 81 82 82 81 81 83 83 84 85 86 85 85 84 78 74 73 72 72 73 71 71 81 80 79 70 72 72 73 73 72 72 71 70 69
65 59 61 68 68 66 69 69 70 71 73 75 77 80 80 79 80 79 80 81 81 82 83 85 85 85 84 83 82 81 81 81 81 81 80 82 82 82 80 72 69 71 70 70 71 70 70 72 82
63 59 65 63 66 66 66 66 71 70 67 74 76 79 79 79 79 79 82 85 84 85 84 84 84 84 83 82 83 82 82 82 82 82 81 81 81 80 81 81 80 80 70 81 78 78 80 77 78
56 62 63 64 66 63 63 68 66 68 71 78 76 77 77 78 80 81 81 83 85 83 83 83 83 80 81 84 83 84 83 82 82 81 81 81 81 79 80 81 80 80 82 80 79 79 77 76 77
57 61 62 64 62 63 65 63 65 67 73 76 76 76 77 79 80 83 83 85 86 83 84 84 83 80 81 81 83 84 83 82 82 81 81 82 80 79 80 80 81 80 80 78 77 78 78 76 75
58 58 59 61 61 63 59 62 64 67 73 73 73 74 77 78 81 82 82 82 84 86 86 86 85 84 84 82 82 83 83 83 82 82 81 81 79 74 77 77 74 71 75 77 77 76 75 74 74
58 53 59 60 61 60 62 56 58 68 71 70 72 75 76 78 81 80 83 83 86 88 88 86 85 85 84 82 82 83 83 82 81 81 81 76 72 71 71 67 66 67 71 74 75 74 73 73 72
53 54 49 57 57 59 58 52 64 69 69 67 70 73 75 76 79 83 84 84 85 85 85 85 83 83 84 83 83 83 83 82 82 80 77 74 72 69 67 68 71 72 71 72 71 71 70 69 69
52 47 47 51 59 57 56 53 62 65 66 65 68 70 71 73 77 80 83 84 84 85 85 84 82 82 83 83 83 83 83 82 81 79 74 72 70 67 66 67 69 71 69 69 69 67 67 66 66
46 46 49 48 55 55 53 53 60 64 64 64 67 69 70 71 73 77 80 82 84 84 85 84 83 82 83 82 82 82 81 78 78 75 70 68 66 68 63 66 67 69 67 66 66 65 64 63 62
48 47 46 52 55 52 51 52 56 61 62 62 64 66 68 70 75 77 78 80 81 81 82 82 81 80 80 78 77 77 74 68 70 70 69 65 64 62 64 61 67 67 65 64 65 63 61 60 61
46 44 45 51 54 51 50 49 56 58 59 62 63 66 68 70 73 76 77 79 79 80 81 81 79 79 78 78 76 76 71 62 61 63 64 66 62 58 63 63 64 64 62 62 62 61 60 59 59
44 43 45 44 50 51 48 47 55 62 64 64 65 66 67 68 70 73 77 76 78 78 79 78 78 76 76 76 75 68 64 59 58 59 59 61 60 56 61 61 63 62 62 59 59 59 58 57 57
40 49 45 44 41 37 46 37 51 58 60 62 65 67 67 68 70 71 73 75 78 78 77 76 76 74 74 72 68 66 66 59 59 60 57 53 54 53 58 60 62 61 60 58 57 58 58 59 55
42 48 45 44 41 39 41 31 47 54 53 57 63 67 69 69 70 70 71 72 76 76 74 73 73 72 70 70 71 70 67 65 61 58 55 52 54 56 61 61 60 59 59 58 57 56 56 57 57
48 44 43 43 38 29 41 37 43 53 57 60 63 65 68 69 70 70 72 72 73 74 71 70 70 69 69 70 70 70 65 59 57 55 49 49 52 58 60 59 59 59 57 56 55 55 54 55 55
44 36 31 28 26 30 46 42 44 56 58 60 62 66 67 69 69 69 69 69 69 70 68 68 68 67 68 69 69 68 62 59 59 56 50 55 53 57 57 58 58 57 56 55 55 54 54 54 53
38 38 33 26 33 37 42 35 47 60 62 63 65 64 65 67 69 68 69 68 69 68 68 67 67 66 67 67 67 64 60 60 54 53 52 55 55 56 58 58 57 56 55 55 54 54 54 53 53
37 32 44 33 36 30 38 47 55 59 58 59 61 63 62 64 66 67 69 68 69 68 68 67 67 65 66 66 65 60 58 54 55 51 53 54 57 57 57 57 56 55 54 54 53 55 53 52 52
43 47 31 32 24 26 38 41 43 51 54 58 59 60 61 63 65 67 67 68 68 68 67 67 67 65 65 65 64 59 54 52 51 52 51 54 57 56 55 55 55 54 53 53 52 52 51 50 51
37 33 35 39 37 29 31 41 54 54 57 57 59 59 61 61 63 63 65 67 66 66 65 64 64 63 62 62 60 56 52 51 52 54 55 57 56 56 55 54 54 53 52 52 52 51 50 48 48
48 43 41 30 31 33 32 35 55 58 59 57 57 60 61 61 59 60 62 63 62 61 62 62 61 60 59 58 56 53 51 53 55 56 56 56 55 55 54 53 53 51 50 51 50 49 48 47 46

GFSSGP_sfc_temp_039.txt.gz
Temp
83 92 93 85 70 70 66 70 79 75 76 85 85 82 82 84 80 73 87 90 93 91 89 84 79 79 79 79 78 78 78 78 78 78 78 78 78 78 77 77 77 76 76 76 76 76 76 75 75
86 90 87 80 65 62 67 77 72 78 81 84 85 84 81 81 89 84 85 89 93 92 89 84 78 79 79 78 78 77 77 77 78 78 78 78 78 78 77 77 76 75 75 75 75 75 74 74 75
85 89 77 71 66 62 67 76 78 80 83 82 82 86 85 83 87 90 92 90 93 92 91 84 78 78 78 78 77 77 77 77 77 78 78 78 78 78 77 76 75 74 74 74 74 74 74 74 74
84 82 80 65 64 72 74 77 80 78 82 83 84 80 87 90 89 92 92 92 92 92 93 78 77 78 78 77 77 77 77 77 77 77 77 78 78 77 77 76 74 74 74 74 74 74 74 74 74
83 79 66 64 65 74 79 81 80 77 79 81 83 80 83 88 91 91 90 92 92 92 91 84 77 78 77 77 77 77 77 77 77 77 77 78 78 77 76 75 74 74 74 74 74 74 74 74 74
72 76 62 60 67 75 80 81 80 79 81 82 80 81 84 90 89 89 91 92 93 91 90 85 77 77 77 77 77 77 77 77 77 77 77 78 78 77 77 75 74 74 74 74 74 74 74 74 74
68 67 62 65 67 72 76 82 77 78 80 80 86 78 86 89 89 90 91 92 92 92 90 87 84 79 75 75 76 76 76 76 76 76 76 76 75 74 75 76 75 74 74 74 74 74 74 74 73
73 69 63 66 65 67 79 79 80 79 78 87 86 77 80 86 88 90 91 90 90 89 89 89 87 84 81 80 74 74 75 74 75 75 74 72 72 73 75 74 74 74 74 74 73 73 73 72 71
75 62 59 63 67 69 78 73 80 83 79 81 85 85 84 85 88 87 86 86 87 87 88 89 89 85 85 82 78 74 73 73 73 73 71 71 80 80 77 71 72 73 73 73 73 72 71 71 70
65 60 63 73 75 72 75 74 76 75 75 77 80 85 84 84 84 83 83 83 84 84 87 89 89 88 88 85 78 80 79 79 79 79 78 80 83 82 79 72 70 72 72 71 72 71 71 70 78
66 59 70 72 72 72 71 72 76 72 70 78 78 82 84 83 83 83 85 87 86 87 87 88 88 88 88 86 79 80 78 81 83 82 81 82 82 79 78 77 76 76 70 77 74 74 79 78 78
60 67 69 71 71 68 66 72 70 73 73 82 83 83 81 81 83 84 84 87 88 87 87 87 88 87 87 87 85 82 83 83 84 83 83 81 80 80 80 80 80 79 80 79 77 79 78 77 78
60 64 68 69 68 67 68 66 67 70 76 80 81 80 79 80 83 86 87 88 89 87 87 87 87 86 85 85 85 86 86 84 83 82 83 83 81 80 81 80 80 80 79 78 77 78 77 76 76
65 64 65 66 66 66 63 64 67 69 75 75 76 77 79 80 82 85 86 86 88 89 88 88 87 86 85 84 85 85 86 85 80 83 82 83 82 81 80 79 78 76 78 78 77 76 75 74 74
62 56 61 63 65 63 66 58 60 70 73 72 75 77 78 79 82 82 86 86 88 89 90 89 88 88 86 85 85 86 86 85 79 83 82 82 81 79 78 77 73 72 75 76 75 74 73 72 72
56 58 51 64 63 65 62 52 68 74 72 71 73 75 76 79 81 84 86 87 89 89 89 90 89 88 87 86 85 86 86 85 77 81 82 81 78 76 73 72 72 73 74 73 72 71 70 69 69
56 50 54 58 65 62 59 55 68 70 69 70 72 74 76 78 80 83 86 87 88 89 88 87 87 86 87 87 86 86 86 83 78 79 81 79 76 74 71 73 73 74 72 71 70 68 68 66 66
51 52 54 54 61 59 56 56 64 68 68 67 69 72 73 75 77 81 83 86 88 89 88 88 88 85 86 87 86 85 85 79 78 77 78 77 74 71 71 71 71 72 69 68 67 66 65 64 63
56 51 51 57 61 56 55 56 61 66 66 65 67 69 71 73 78 81 81 83 84 86 86 86 86 86 85 84 82 82 81 71 70 72 76 73 72 69 68 68 68 70 68 67 67 65 63 60 61
51 48 49 55 59 55 54 53 60 63 64 66 66 67 69 71 75 78 80 81 81 82 84 84 85 85 84 84 83 82 71 65 65 69 71 69 68 67 64 65 66 67 64 64 64 64 60 59 59
48 46 48 48 54 56 52 50 58 66 67 68 69 69 70 70 72 76 78 80 81 81 82 83 84 84 83 82 82 79 66 62 59 61 60 63 63 64 62 63 63 62 64 60 60 60 60 57 57
43 53 50 48 44 41 51 39 53 61 64 67 68 69 70 71 73 74 76 78 80 80 80 81 83 82 81 80 77 73 65 60 58 56 58 59 61 61 62 63 61 62 62 60 59 60 58 59 54
46 50 47 47 43 41 44 38 49 61 58 61 66 68 71 73 74 74 75 75 77 79 78 79 81 80 79 78 76 70 67 66 61 55 56 55 55 57 59 59 62 62 61 60 58 57 57 57 57
51 47 44 43 39 30 43 43 46 55 61 64 68 69 70 72 73 74 75 76 76 76 77 77 77 77 77 75 72 70 70 63 56 54 52 52 55 57 59 61 61 61 59 57 57 56 56 55 55
47 38 33 30 28 31 50 46 48 59 63 63 64 68 70 71 71 72 73 73 73 73 73 75 74 74 74 71 73 72 70 63 58 55 51 51 53 55 56 58 59 59 57 57 56 55 54 54 53
42 40 34 28 35 40 50 39 49 63 66 66 67 68 69 69 71 70 71 72 72 72 73 73 72 72 72 71 72 73 66 63 59 57 57 57 55 54 58 59 59 58 57 56 56 55 54 53 52
41 33 45 35 38 33 41 50 58 62 63 65 65 66 65 68 69 69 71 72 73 72 72 72 72 72 71 71 72 68 65 62 59 58 58 56 58 57 59 58 57 57 56 56 55 55 53 53 52
46 50 33 33 25 28 41 45 48 55 59 62 63 64 65 66 67 68 69 70 73 73 73 73 72 70 70 70 69 65 62 57 55 56 53 53 54 57 56 57 56 56 55 55 54 53 53 51 52
40 36 39 42 38 31 33 42 55 52 55 57 61 65 64 65 65 66 66 68 72 73 71 71 71 68 68 67 64 61 57 55 54 52 52 53 54 55 56 56 56 55 54 54 53 52 51 50 50
50 42 41 30 34 36 33 36 56 56 57 58 58 62 64 65 66 64 63 66 69 69 69 69 68 67 66 65 60 56 55 53 53 53 53 55 54 57 56 55 55 54 53 53 52 50 50 49 48

GFSSGP_sfc_temp_042.txt.gz
Temp
78 85 84 73 57 58 54 62 66 67 67 74 76 73 70 74 70 59 78 83 84 80 80 79 79 79 79 78 78 78 78 78 78 78 78 78 78 78 77 77 77 77 76 76 77 76 75 75 75
78 82 76 67 54 50 56 68 66 68 74 77 77 74 72 70 79 76 76 84 86 83 80 78 78 78 78 78 78 77 77 78 78 78 78 78 78 78 77 76 76 76 76 75 75 75 75 75 75
77 82 65 60 55 52 56 69 70 74 75 72 72 78 76 72 80 78 81 85 86 82 82 79 78 78 78 78 77 77 77 77 78 78 78 78 78 78 77 76 75 75 75 75 75 74 74 74 74
76 72 69 56 55 62 64 70 73 73 73 74 75 70 77 81 78 81 83 86 84 83 80 76 77 78 77 77 77 77 77 77 77 77 77 78 78 77 76 75 74 74 74 74 75 74 74 74 74
74 67 56 54 57 64 71 74 73 68 71 72 73 70 71 78 83 83 82 86 83 79 77 77 77 77 77 77 77 77 77 77 77 77 78 78 78 77 76 74 74 74 74 74 74 74 74 74 74
62 64 52 51 58 67 71 75 72 68 73 74 69 71 69 80 80 81 83 82 85 77 79 77 76 76 76 77 76 76 77 77 77 77 78 78 77 77 76 74 74 74 74 74 74 74 74 74 74
60 58 53 56 58 64 70 76 69 69 69 71 75 65 72 76 80 83 82 83 84 83 79 77 76 75 75 75 75 76 76 76 76 76 76 75 74 75 76 75 74 74 74 74 74 74 74 74 73
64 60 55 57 57 60 72 74 75 71 69 77 76 65 63 73 81 82 82 82 81 81 80 77 77 75 74 73 74 74 74 74 74 74 73 72 72 73 74 73 74 74 74 73 73 73 73 73 72
70 54 51 55 59 63 73 67 73 75 71 74 73 72 76 79 81 78 76 77 78 80 79 80 78 77 76 74 73 73 73 73 72 72 70 69 69 71 73 71 72 73 73 73 73 72 72 71 70
59 51 55 65 67 65 71 68 69 68 68 68 72 77 78 78 75 75 74 73 75 76 78 79 80 78 77 79 72 71 72 70 69 70 67 69 71 71 73 69 70 72 72 72 73 72 72 70 67
59 53 63 66 70 68 66 66 69 65 62 68 69 73 76 76 74 75 75 76 75 77 77 79 79 80 80 77 73 76 73 72 73 72 70 70 71 69 68 65 66 65 67 67 69 69 68 68 68
56 63 64 66 69 66 62 67 64 66 66 73 73 74 74 72 73 75 75 77 77 77 78 79 80 78 78 76 74 76 76 75 77 74 73 72 68 68 67 67 67 67 67 70 71 67 69 68 68
58 61 66 67 66 64 66 61 61 63 69 73 74 74 70 71 73 75 77 78 78 77 78 78 78 77 77 78 76 75 74 75 78 73 73 71 69 68 68 68 69 68 71 68 67 66 66 65 65
62 62 62 64 63 63 61 60 61 63 68 69 71 70 70 71 73 73 75 76 76 78 78 79 79 78 77 76 75 77 79 77 74 74 72 73 70 69 69 68 66 66 67 67 65 64 63 62 62
61 52 57 59 60 59 61 54 56 65 67 66 67 69 71 71 73 73 75 75 77 77 79 79 79 78 77 75 75 76 76 79 70 76 73 73 71 69 68 66 64 63 65 66 64 63 62 59 61
52 52 44 58 60 62 59 46 60 66 64 63 65 67 69 71 73 75 77 77 77 77 77 79 83 80 78 78 77 77 76 78 73 75 74 73 71 69 64 63 62 63 63 62 60 59 57 56 56
51 41 45 52 60 59 55 47 60 64 61 60 62 65 68 69 71 73 75 78 78 77 77 76 76 78 79 79 79 78 77 77 76 74 76 75 70 67 64 63 62 63 61 59 60 55 55 53 53
43 44 47 48 55 54 51 51 58 62 62 60 61 62 63 66 68 72 74 76 77 78 79 76 75 75 75 75 77 78 74 76 76 75 74 72 67 65 63 61 62 61 58 57 56 54 53 51 51
52 48 46 51 58 52 50 52 55 60 60 60 61 62 64 66 70 71 72 72 72 74 74 79 74 75 77 70 72 73 73 69 71 70 72 69 66 64 61 59 60 59 57 56 56 53 52 49 50
49 44 43 50 56 51 48 48 54 58 59 60 61 62 63 64 66 70 70 69 71 71 72 73 74 73 76 76 71 70 63 63 64 66 66 65 61 60 59 58 59 57 55 55 54 53 50 49 49
44 41 42 43 49 50 47 43 49 57 59 61 63 64 65 64 65 67 69 69 69 73 72 73 73 73 73 72 69 61 59 57 56 58 57 59 57 57 58 58 58 57 54 52 51 51 52 47 47
39 50 49 46 40 32 45 29 43 51 54 58 57 58 60 62 65 67 68 66 67 72 73 73 72 72 71 72 69 63 62 58 53 55 55 56 56 57 56 56 56 56 55 54 51 52 49 48 45
44 49 46 44 38 35 37 30 38 49 50 54 56 57 60 61 62 63 64 67 67 66 63 70 72 70 70 74 71 63 59 54 54 53 54 53 54 56 57 56 55 56 54 53 50 49 48 47 45
51 45 42 40 35 25 35 35 34 44 49 53 56 56 62 61 59 61 62 64 63 63 63 64 66 68 68 68 67 62 59 53 51 52 50 49 52 54 57 58 54 53 51 50 48 48 47 46 45
47 39 23 23 24 21 43 36 40 52 56 57 56 54 58 59 58 59 60 60 61 62 61 63 64 65 66 65 63 62 60 54 50 50 49 51 51 53 54 55 55 51 50 50 48 47 46 46 43
41 38 23 20 22 27 41 31 40 55 59 58 58 57 59 58 58 57 57 60 60 61 61 62 63 63 64 64 62 62 57 53 52 52 51 51 52 52 55 55 52 51 50 49 48 46 45 45 43
39 31 40 31 31 21 31 39 49 57 56 57 55 58 56 57 58 55 58 59 60 60 61 61 62 63 62 62 63 59 57 54 52 50 52 51 52 55 54 52 51 50 50 49 48 45 44 44 43
44 46 31 27 13 19 31 35 39 44 47 52 52 53 56 57 57 57 57 58 60 63 61 62 62 62 61 62 61 59 56 54 53 53 51 54 55 55 53 51 52 50 49 48 47 45 45 44 42
38 36 38 37 33 20 23 32 45 47 47 50 53 56 55 55 56 56 56 58 59 61 60 60 61 63 61 60 60 52 51 52 53 53 54 54 53 54 53 53 51 48 48 48 46 45 45 43 42
45 40 37 28 26 30 25 31 53 50 50 51 51 55 55 55 56 56 54 55 56 58 59 59 63 64 59 57 53 50 50 51 51 51 52 53 53 53 53 49 51 50 48 47 46 45 45 42 41

GFSSGP_sfc_temp_045.txt.gz
Temp
74 74 71 66 53 49 45 53 58 64 63 64 69 69 65 66 67 58 71 76 76 75 78 78 79 79 79 78 78 78 78 78 78 78 78 78 78 78 77 77 77 77 77 77 77 77 76 76 76
70 75 67 59 47 41 46 58 59 65 67 69 72 69 67 64 71 71 71 77 78 77 77 77 78 78 78 78 78 77 78 78 78 78 78 78 78 77 77 76 76 76 76 76 76 75 75 75 75
72 73 59 53 46 43 47 58 63 67 70 69 68 69 67 67 72 72 75 78 78 76 77 77 78 78 78 78 77 77 77 77 78 77 77 78 78 77 76 76 75 75 75 75 75 75 75 75 75
66 63 59 49 47 53 57 61 67 66 69 72 68 65 70 73 74 76 79 79 76 76 75 76 77 78 77 77 77 77 77 77 78 77 77 78 77 77 76 75 74 74 74 75 75 74 74 74 74
63 57 47 44 49 55 59 64 67 64 66 66 67 63 65 73 76 77 79 80 76 75 75 76 77 77 77 77 77 77 77 77 77 77 77 78 77 76 75 74 74 74 74 75 75 74 74 74 74
55 55 42 44 48 57 62 66 66 64 65 66 65 63 64 74 74 76 79 76 77 74 75 76 76 76 76 77 76 76 77 76 77 77 77 77 77 76 75 74 74 74 74 74 74 74 74 74 74
52 48 44 45 49 54 62 67 64 66 63 65 67 60 62 67 73 77 77 75 75 75 75 75 75 75 75 75 75 76 76 76 76 76 77 76 76 75 75 74 74 74 74 74 74 74 74 74 73
56 51 46 47 50 51 63 66 69 66 64 70 70 61 59 70 76 77 75 75 75 74 74 72 72 73 73 72 73 74 74 74 74 74 73 72 72 73 74 73 73 74 74 73 73 73 73 73 72
61 46 43 48 52 55 66 62 70 70 66 67 68 67 72 76 76 73 71 73 74 73 73 72 71 71 71 70 72 72 72 72 72 71 70 69 67 69 70 70 71 73 73 73 73 73 72 71 70
52 46 48 57 59 57 63 61 64 64 64 61 66 70 74 75 73 72 70 70 71 71 72 73 72 72 72 75 70 68 70 68 67 67 66 66 66 67 71 69 70 72 72 72 73 73 72 70 65
53 46 56 60 63 62 61 61 64 60 57 63 64 67 69 70 71 71 70 71 71 72 74 75 73 73 73 73 70 69 68 66 66 66 65 65 68 66 66 65 66 65 66 66 68 67 66 64 64
48 56 59 61 64 62 58 62 59 58 60 66 67 68 69 68 69 70 70 71 71 73 75 75 75 74 74 73 71 71 69 68 67 68 67 64 63 65 63 63 63 63 63 63 63 63 64 65 65
51 55 61 62 61 61 62 57 57 58 63 67 67 67 66 69 69 69 71 73 72 74 75 76 76 75 75 71 72 72 71 71 71 70 69 66 66 65 64 63 63 63 63 64 63 62 62 62 62
57 56 56 59 58 59 58 57 56 58 63 63 64 65 64 66 68 69 69 71 70 74 75 77 76 76 75 72 72 72 72 72 72 72 71 68 68 65 65 63 63 64 64 63 62 61 60 59 59
57 49 52 54 56 55 59 51 52 60 61 60 61 62 65 65 67 68 70 70 71 71 76 77 77 77 74 72 73 73 73 74 68 72 72 70 69 66 64 63 62 62 62 62 61 60 58 57 58
49 47 39 52 57 58 56 44 55 60 57 58 61 63 62 66 67 69 70 70 70 71 71 77 81 77 76 75 74 72 74 76 68 73 73 70 68 67 63 62 60 61 60 59 58 57 55 53 53
44 35 39 46 56 55 52 44 57 60 59 55 58 61 63 66 67 66 68 73 75 70 71 74 77 76 76 76 76 73 71 75 73 72 72 68 67 65 64 61 60 60 58 57 58 53 53 50 50
37 37 39 42 51 52 48 46 52 57 56 55 55 55 57 61 65 71 71 68 72 75 71 71 73 77 77 76 77 75 69 74 73 74 74 69 67 64 62 60 59 58 56 54 54 52 49 49 48
45 43 40 46 53 47 47 47 50 55 54 56 58 54 59 62 65 65 66 66 66 67 67 70 68 72 76 72 72 73 70 70 71 72 74 68 65 64 61 58 58 57 56 54 54 50 49 47 46
44 40 39 45 51 47 45 46 51 54 55 57 58 55 58 62 60 62 64 63 64 67 66 66 67 72 74 74 73 68 64 62 65 68 69 67 63 61 59 58 57 56 54 53 53 51 48 47 46
39 36 37 39 45 44 42 40 44 50 54 57 60 61 60 60 60 61 60 62 62 63 64 67 67 68 70 70 62 58 58 57 57 60 61 59 59 58 58 56 56 54 53 52 51 50 50 45 46
36 45 44 42 36 28 40 25 35 46 49 52 51 54 58 59 58 59 60 60 61 62 63 65 67 67 68 65 65 62 61 61 56 55 52 54 55 55 56 54 53 51 51 50 50 51 49 48 45
41 47 43 41 34 30 31 27 33 41 45 50 51 51 53 57 60 61 61 63 64 62 61 62 65 66 66 69 68 66 61 54 52 52 51 52 53 56 57 57 56 55 52 49 49 49 48 48 47
48 43 40 36 32 22 30 30 30 40 46 47 50 54 56 57 58 59 58 59 59 59 59 59 62 63 63 67 64 65 55 52 51 50 49 49 51 52 56 56 54 53 52 49 50 47 47 46 46
45 34 18 26 25 20 35 31 33 46 52 53 53 55 56 57 55 57 56 57 56 56 58 58 59 61 62 62 62 59 56 54 53 50 49 48 49 50 53 54 53 52 51 50 48 46 46 44 44
38 35 21 19 20 23 35 27 37 49 55 54 55 54 55 56 54 57 54 55 55 56 56 57 58 59 59 59 60 58 55 53 52 51 49 49 51 51 54 53 53 52 51 50 46 45 44 44 42
36 30 38 30 25 16 26 34 43 49 48 49 51 51 50 54 54 52 53 54 54 55 56 56 56 58 58 59 58 54 52 51 50 49 49 51 52 53 55 53 51 51 51 50 48 47 43 44 43
40 42 26 23 10 16 24 28 35 41 44 48 48 49 51 53 51 54 53 54 55 55 55 55 56 58 57 57 55 53 50 50 49 49 48 49 52 55 52 51 51 50 50 48 47 43 43 44 42
37 35 38 33 27 18 20 27 41 43 43 45 46 49 52 55 55 53 52 53 53 54 54 55 55 56 55 55 53 51 49 49 49 49 50 54 54 53 52 51 50 49 48 47 45 44 45 43 42
40 36 35 20 22 25 21 28 49 48 46 51 51 53 52 51 52 51 51 52 52 52 53 54 54 53 54 52 50 50 49 49 49 50 53 53 52 52 52 51 50 49 48 47 46 46 43 41 41

GFSSGP_sfc_temp_048.txt.gz
Temp
72 71 67 64 52 47 43 50 53 60 62 64 66 69 63 63 64 57 68 72 74 74 77 77 78 79 79 78 78 78 78 78 78 78 78 78 78 77 77 77 77 77 79 78 78 78 77 77 76
68 72 64 55 46 39 43 51 57 61 66 67 68 66 64 61 68 66 67 74 76 75 76 76 78 78 78 78 78 78 78 78 78 78 78 78 78 77 77 77 77 77 77 77 76 76 76 75 75
70 70 59 52 43 41 44 54 58 65 66 67 63 67 66 65 68 69 70 75 76 75 76 76 77 78 78 77 77 77 77 77 78 78 77 77 77 77 76 76 76 75 75 75 75 75 75 75 75
64 61 56 47 44 50 52 55 59 64 69 67 65 63 66 69 71 72 75 76 73 73 74 76 77 77 77 77 77 77 77 78 77 77 77 77 77 77 76 75 75 74 74 74 74 74 74 74 74
61 54 45 42 46 51 55 60 62 62 65 64 65 61 62 70 71 74 74 75 72 72 73 75 77 77 77 77 77 77 77 77 77 77 77 77 77 76 75 74 74 74 74 74 74 74 74 74 74
53 52 40 42 46 53 57 61 59 62 65 65 63 62 61 69 72 73 75 73 75 72 74 75 75 76 76 76 76 76 77 77 77 77 77 77 76 75 75 74 74 74 74 74 74 74 74 74 74
50 46 42 42 46 50 58 62 59 63 63 64 68 58 59 64 72 73 74 74 73 74 74 74 74 74 74 75 75 76 76 76 76 76 76 76 75 75 75 74 74 74 74 74 74 74 74 74 73
54 49 42 44 46 49 58 62 65 62 64 68 68 58 58 69 74 71 72 71 71 73 72 72 72 73 72 72 73 74 74 74 75 75 74 72 72 73 74 73 73 74 74 73 73 74 73 73 73
57 44 40 45 48 52 60 59 66 68 63 64 64 65 70 74 73 69 68 69 70 71 71 71 70 70 69 69 71 72 72 72 72 71 70 69 67 69 70 70 71 73 73 73 73 73 73 71 70
50 42 45 54 55 53 59 58 61 62 61 59 62 68 71 72 69 68 67 67 69 69 70 70 70 69 69 73 68 67 69 67 67 67 66 65 65 66 70 68 70 72 72 72 73 73 72 69 64
50 44 54 56 59 59 59 58 61 57 57 59 58 63 67 67 68 69 69 68 68 69 70 71 70 70 70 71 68 67 65 64 65 65 65 64 65 64 66 66 66 65 66 65 67 66 64 63 62
46 54 56 58 61 58 56 59 55 57 60 62 61 63 66 68 67 67 70 69 68 69 70 71 71 70 70 72 69 68 67 66 64 64 64 62 62 63 63 65 64 63 63 62 62 61 61 62 62
48 51 57 59 58 57 60 56 56 57 62 64 62 65 65 64 65 67 68 70 71 70 71 72 71 71 71 70 69 68 68 67 67 66 65 64 62 63 64 63 62 61 61 61 61 60 61 60 60
53 55 55 56 56 56 55 55 55 55 61 61 62 61 62 64 65 64 66 68 67 71 73 73 72 72 72 70 69 69 69 69 68 68 67 65 65 65 63 61 61 60 61 61 60 59 59 57 58
54 49 50 53 53 53 56 52 50 59 60 58 59 59 61 62 65 65 67 67 68 68 74 73 73 74 73 71 70 71 71 71 68 69 68 67 67 65 64 62 60 61 60 61 59 57 56 56 56
48 46 39 50 53 55 54 45 52 58 54 55 56 59 59 62 64 65 67 67 67 67 68 74 77 74 73 72 71 71 70 71 67 70 69 68 68 66 61 61 59 59 59 58 57 55 53 52 52
42 35 38 44 54 53 49 42 54 61 56 53 55 54 58 59 61 62 65 68 69 67 67 69 75 74 73 72 72 70 69 72 68 68 70 69 68 65 62 61 59 59 57 56 56 52 53 50 49
36 36 37 40 48 49 46 44 51 54 53 53 53 55 55 58 62 65 65 66 71 70 66 68 71 73 72 71 69 68 66 70 70 68 70 67 67 63 62 59 59 58 55 53 53 52 49 48 48
46 40 38 44 50 45 44 43 48 52 51 52 56 55 55 58 63 61 62 62 62 63 63 63 66 72 72 68 67 66 65 66 67 70 72 66 65 63 62 61 58 56 57 54 53 50 49 46 45
41 41 37 44 48 44 43 43 49 52 53 55 56 59 59 58 59 59 61 61 62 63 62 63 64 70 72 73 71 69 66 63 66 66 69 68 64 63 62 60 58 57 53 52 51 50 47 45 44
39 35 36 38 43 42 40 42 44 49 51 54 58 59 59 59 60 62 58 59 60 59 61 63 63 64 70 74 65 58 59 58 58 60 61 65 63 60 59 59 58 55 54 52 50 49 49 45 45
35 43 43 40 36 28 39 26 34 43 46 49 49 49 53 55 56 59 59 58 59 60 60 62 63 64 65 64 63 66 65 61 60 64 58 55 57 59 57 56 55 54 52 50 49 50 47 47 44
40 46 42 39 32 29 30 27 33 39 43 48 49 51 51 51 53 54 56 59 60 58 57 58 60 61 63 62 65 63 65 64 56 54 53 53 54 55 56 55 53 52 51 52 52 50 49 48 46
47 41 37 34 29 18 28 28 30 37 43 44 49 51 55 55 52 54 56 56 57 56 55 55 57 60 60 61 62 64 59 54 53 51 51 51 51 52 54 54 52 51 50 51 51 50 50 48 48
41 31 17 17 16 20 32 27 32 42 48 48 49 49 50 52 53 55 54 55 54 53 56 57 57 58 59 58 59 61 58 56 55 53 52 49 49 50 52 54 51 50 52 51 50 48 48 47 46
35 32 20 17 20 22 32 26 36 43 48 48 50 48 50 51 51 52 53 53 54 54 54 55 56 56 57 57 57 58 58 57 55 54 52 52 51 49 50 51 52 50 52 50 49 47 46 46 45
34 25 35 24 23 16 25 31 41 44 45 47 47 49 48 51 52 50 52 52 53 53 55 55 55 55 55 56 55 52 53 52 51 49 50 49 49 51 52 52 52 52 51 50 49 47 46 45 44
39 41 24 19 9 16 23 25 32 40 42 43 45 46 48 51 54 53 53 52 53 53 53 52 53 54 54 54 51 50 50 50 49 49 49 49 51 53 52 51 51 50 50 49 48 46 45 45 43
35 32 32 29 25 16 19 27 38 40 42 41 44 47 51 51 52 53 50 51 51 51 51 52 52 52 52 50 48 47 46 47 48 48 48 50 53 52 52 51 50 49 48 48 47 46 45 44 43
39 35 34 21 21 22 20 26 45 42 43 47 52 51 50 50 50 51 50 52 51 50 50 51 51 51 50 49 47 46 46 47 47 47 49 50 49 52 52 51 50 49 48 47 46 45 44 43 42

GFSSGP_sfc_temp_051.txt.gz
Temp
71 69 65 63 51 46 41 48 50 55 58 61 63 65 63 60 63 57 66 70 73 73 76 77 78 79 79 79 78 78 78 78 78 79 78 78 78 77 77 78 79 79 78 79 78 77 78 77 76
67 70 63 54 45 38 42 48 53 58 62 65 62 62 61 60 65 63 65 71 74 74 75 75 78 78 79 78 78 78 78 78 78 78 77 78 77 77 77 77 78 78 78 77 76 76 76 75 75
68 68 58 51 42 39 43 51 55 61 63 61 61 64 64 62 65 66 68 73 74 73 75 75 78 78 78 78 78 77 77 78 78 78 77 77 77 77 77 77 76 75 76 75 75 75 75 75 75
63 60 55 46 43 48 50 54 56 60 65 64 63 60 63 67 68 70 72 74 72 72 73 75 77 77 77 77 77 77 77 77 77 77 77 77 76 76 76 76 75 74 74 74 74 74 74 74 74
59 53 44 40 45 50 50 58 58 58 58 62 65 60 60 67 69 70 71 73 71 71 72 74 77 77 77 77 77 77 77 77 77 77 77 77 76 76 75 74 74 74 74 74 74 74 74 74 74
52 51 39 41 46 51 53 57 56 56 59 63 60 59 60 64 67 69 72 71 73 71 73 74 75 76 76 76 76 76 77 77 77 77 77 77 76 75 75 74 74 74 74 74 74 74 74 74 74
50 45 41 42 49 49 55 59 56 59 58 61 63 57 59 62 67 70 70 70 72 72 72 72 72 73 74 75 75 76 76 76 76 76 76 76 75 75 75 74 74 74 74 74 74 74 74 74 73
52 48 42 43 45 49 56 60 62 59 62 65 67 57 56 65 68 69 70 69 69 70 71 70 69 70 70 70 73 74 74 74 75 74 74 72 71 72 74 73 73 74 74 74 73 74 74 73 73
54 43 39 45 47 50 56 55 62 64 61 62 62 62 66 69 68 68 68 69 70 71 70 70 69 68 68 68 70 72 72 72 72 72 70 69 67 68 69 69 71 73 73 73 73 73 73 71 70
49 40 44 52 53 51 57 55 57 59 58 59 61 66 67 68 67 66 68 68 69 69 70 71 69 68 68 72 67 66 68 67 67 67 66 65 65 66 69 67 69 72 72 72 73 73 71 67 62
49 42 51 54 58 57 54 56 58 54 55 56 57 62 65 64 62 66 66 69 70 72 71 72 71 69 68 70 66 65 64 64 65 65 64 64 64 63 64 64 65 65 66 65 67 65 63 62 61
45 52 54 57 59 56 53 58 54 55 58 60 59 62 64 64 65 64 65 66 70 71 71 72 72 69 68 69 67 67 65 64 63 64 64 62 61 62 63 64 63 63 63 62 61 60 60 60 60
47 50 55 57 57 54 56 54 54 55 61 60 62 62 62 62 62 64 66 66 66 68 68 70 70 69 69 68 68 67 66 65 66 64 64 63 61 61 62 62 62 62 61 60 59 59 59 58 58
51 53 54 55 55 54 53 53 53 53 59 59 59 60 60 61 62 61 64 66 65 67 68 70 69 69 69 69 68 67 68 67 66 65 64 63 63 62 63 62 61 61 60 60 59 58 57 56 56
52 47 48 51 53 52 53 50 47 56 59 57 59 56 58 60 62 62 64 65 67 67 69 70 70 70 69 69 68 68 67 68 66 66 64 64 63 62 62 62 60 60 60 60 58 56 55 54 55
47 45 39 49 53 54 53 44 51 56 53 53 54 57 56 58 60 62 64 64 65 66 65 69 74 71 70 70 68 67 68 69 66 67 66 65 65 63 61 61 59 59 58 57 55 54 52 52 52
41 34 38 45 53 51 48 41 52 57 54 52 53 55 54 56 58 59 64 63 64 64 66 65 70 71 70 70 69 68 67 69 67 67 68 65 65 63 62 61 59 58 56 55 56 52 52 50 50
35 36 35 39 46 47 44 42 51 53 51 50 51 53 52 55 59 61 60 62 65 63 63 65 67 71 70 69 69 67 67 67 67 67 68 66 66 63 62 59 57 57 55 53 53 51 48 49 49
43 39 37 42 48 44 42 41 47 51 48 48 51 54 56 57 62 59 60 61 61 61 60 62 63 67 69 67 65 65 64 65 65 66 67 65 65 63 62 59 57 57 57 56 53 50 49 47 46
44 41 40 42 46 42 41 40 48 51 52 53 55 56 58 59 56 57 59 59 59 62 61 59 61 64 69 69 69 67 66 65 67 65 65 65 64 62 61 60 59 58 54 52 51 50 47 45 44
39 35 36 37 41 40 38 38 42 48 48 51 53 55 56 57 59 61 57 58 58 58 60 62 60 61 66 70 67 60 60 59 59 59 61 63 63 61 61 60 60 58 57 53 52 50 50 45 43
34 42 42 39 35 29 37 26 35 42 43 46 48 47 50 52 55 56 56 55 55 58 59 60 61 61 61 63 63 65 63 62 62 65 65 60 60 60 60 59 57 56 54 51 52 52 49 47 45
39 44 40 37 31 27 30 26 34 38 43 45 47 49 50 51 51 53 54 56 57 57 55 56 58 58 60 59 64 64 64 62 60 62 62 54 55 58 56 55 54 54 53 52 52 50 51 51 48
45 40 36 32 29 19 27 28 31 37 39 43 45 46 48 50 51 53 53 54 54 53 54 55 56 57 58 57 58 61 63 56 55 54 57 54 53 54 54 55 54 54 52 50 51 51 51 50 49
40 31 18 18 17 21 30 27 33 41 45 46 44 46 46 48 50 52 51 52 53 55 54 54 54 56 56 55 55 57 59 57 57 56 57 54 52 51 51 52 50 51 51 51 51 50 49 49 47
33 32 20 18 19 21 31 26 36 41 43 47 47 46 47 50 48 49 51 51 50 51 53 54 54 55 56 54 54 54 56 58 58 56 56 55 55 56 52 51 50 50 51 51 50 48 47 47 46
33 25 34 23 21 17 25 31 39 42 42 42 45 46 46 47 49 49 50 53 53 52 52 52 53 54 55 54 53 53 54 54 55 54 52 51 50 50 50 50 49 49 50 50 49 48 46 46 44
37 40 26 20 11 16 22 24 29 36 38 43 43 44 46 47 48 48 49 50 51 51 51 51 51 52 53 52 51 52 51 51 50 48 47 47 48 50 49 49 50 51 50 49 48 46 46 45 42
34 29 30 28 24 15 18 27 36 37 39 41 43 46 46 50 49 48 50 50 50 49 49 50 50 51 51 51 48 46 45 45 46 46 46 48 48 49 49 49 50 49 48 48 47 45 45 43 43
38 34 32 21 20 20 19 25 40 38 42 44 49 49 54 50 47 47 47 48 47 48 49 49 49 49 48 46 44 43 43 44 44 44 46 49 48 49 49 51 50 49 48 47 46 45 43 42 41

GFSSGP_sfc_temp_054.txt.gz
Temp
70 68 63 61 51 45 40 46 47 52 54 58 60 61 62 61 62 57 64 69 71 72 74 77 79 79 79 79 78 78 78 78 78 78 78 78 78 77 78 78 79 79 79 78 77 78 78 76 76
67 68 62 53 44 37 41 46 51 54 60 62 62 60 59 58 63 62 65 70 73 73 74 75 78 78 79 78 78 78 78 78 79 78 78 78 77 77 78 77 79 79 79 77 76 76 76 75 76
67 66 57 50 40 39 42 49 52 58 60 58 60 61 60 61 63 64 66 71 73 72 73 74 78 79 78 78 78 78 78 78 78 77 77 77 77 77 77 77 77 77 77 77 76 75 75 75 75
62 59 54 44 41 45 50 50 54 57 61 62 60 59 63 65 65 67 69 72 71 70 71 74 78 78 78 77 77 78 78 78 77 77 77 77 77 77 77 76 75 75 75 75 75 75 74 74 75
57 52 43 40 44 47 49 54 54 54 56 58 60 60 60 64 66 68 70 72 70 69 70 73 77 77 77 77 77 77 77 77 77 77 77 77 76 76 76 75 74 74 74 74 74 74 74 74 74
50 50 39 41 44 49 51 55 54 54 55 59 57 55 60 61 64 67 70 69 73 71 71 73 75 76 76 76 76 77 77 77 77 77 77 76 76 75 75 74 74 74 74 74 74 74 74 74 74
48 44 40 41 48 48 52 56 54 54 54 58 60 56 59 59 65 68 68 69 71 71 70 70 71 73 74 75 75 76 76 76 76 76 76 75 75 74 74 74 74 74 74 74 74 74 74 74 73
50 48 41 43 45 48 55 58 59 57 59 61 63 58 59 60 67 67 68 69 69 70 70 69 69 69 69 70 73 74 74 74 74 74 74 72 71 72 74 73 73 74 74 74 73 74 73 73 72
52 42 38 45 47 51 56 53 59 61 58 60 61 58 64 64 67 67 68 69 70 70 70 68 67 68 68 68 70 72 72 72 72 71 70 69 66 67 68 68 71 73 73 73 73 73 73 71 69
47 40 43 52 53 52 55 54 54 57 56 56 59 64 64 65 66 66 67 67 68 70 70 71 67 67 67 71 67 66 68 68 68 67 67 65 65 65 68 66 69 72 72 72 73 73 71 66 60
47 42 51 53 56 56 53 53 56 52 52 56 55 59 64 61 63 67 69 70 69 71 71 73 71 67 67 68 65 64 65 65 65 66 65 64 64 63 65 64 64 64 66 64 66 64 62 60 59
44 51 52 56 57 55 51 54 51 54 57 61 58 59 60 61 61 62 67 69 71 71 71 73 73 69 67 67 65 64 63 63 63 64 64 62 61 61 62 63 63 63 63 62 61 60 59 59 58
46 49 54 56 56 53 55 52 52 53 58 59 61 60 60 60 61 62 64 66 71 71 72 72 72 71 69 66 66 64 63 63 64 63 63 62 61 60 61 63 62 62 61 60 59 59 58 57 57
51 52 53 54 54 53 52 51 51 53 54 56 57 59 59 59 61 60 62 63 64 71 72 72 72 71 71 67 66 65 65 64 63 63 64 63 62 61 62 62 62 61 61 60 59 58 56 55 55
51 46 47 50 52 51 52 47 46 54 57 56 55 55 58 59 59 61 63 63 64 65 69 70 71 71 70 69 67 66 66 66 64 64 63 63 62 61 62 62 60 61 60 59 57 56 54 53 54
46 44 38 48 51 52 53 41 50 55 52 52 52 51 53 57 59 60 62 62 63 63 64 68 71 70 69 70 69 68 66 66 65 66 65 63 63 62 61 61 60 60 59 57 55 54 52 51 51
39 32 36 44 51 51 48 40 50 53 49 50 51 51 51 53 56 57 60 60 61 62 63 63 68 69 68 68 69 69 67 66 66 65 66 63 63 63 62 61 60 59 56 55 55 51 52 50 49
38 35 34 38 45 45 42 41 48 52 50 49 49 50 51 52 56 59 58 59 61 60 61 62 63 68 68 69 69 68 67 66 67 65 66 63 64 63 62 60 58 58 55 52 52 51 48 49 48
41 37 36 40 46 42 41 39 46 51 48 47 49 50 53 56 60 58 59 59 58 58 58 59 61 64 67 67 67 67 66 66 66 65 66 64 64 62 61 60 58 57 56 55 55 49 49 46 46
42 37 35 41 44 41 40 39 46 52 49 50 53 53 53 53 56 56 57 56 56 60 58 57 59 63 66 67 67 68 68 68 67 65 65 65 63 61 61 60 58 57 55 52 53 50 47 46 45
41 38 36 36 40 38 37 37 41 47 47 49 50 49 50 50 52 56 54 55 54 55 57 58 58 59 63 67 66 60 60 60 63 61 62 63 62 61 61 60 59 56 56 54 52 51 51 46 45
35 44 42 39 35 29 36 27 36 40 43 46 44 45 47 47 49 50 51 52 53 54 55 57 59 58 59 61 64 63 64 62 63 64 64 62 62 61 61 59 58 56 54 52 51 52 51 50 46
39 44 40 37 31 28 30 28 35 37 40 41 43 44 46 47 48 50 50 52 53 53 52 54 56 58 59 58 61 62 63 64 59 60 61 61 60 61 60 59 56 55 54 52 51 50 49 50 48
44 39 35 31 30 20 27 28 32 36 36 40 43 45 46 47 48 52 53 53 51 51 51 51 53 55 56 56 56 61 62 60 56 56 58 54 56 57 58 57 56 54 53 51 51 50 51 50 50
41 35 20 18 17 20 29 27 33 39 43 41 42 44 45 46 47 48 50 50 52 51 51 53 52 53 54 53 53 54 58 58 58 59 60 57 55 56 55 56 55 52 52 51 51 50 51 50 48
33 32 21 18 19 21 30 25 34 40 43 44 43 44 45 46 46 47 48 48 49 50 50 51 51 52 52 52 52 52 52 55 58 57 58 57 56 56 56 55 53 51 50 50 51 51 48 49 47
32 24 33 21 19 16 24 30 39 41 39 42 44 45 45 46 47 46 47 48 48 49 50 49 49 50 51 51 51 50 50 52 54 54 55 55 53 52 52 51 51 51 51 51 51 49 48 48 46
37 38 26 18 11 17 24 24 29 33 36 41 42 44 45 46 46 47 47 48 48 49 48 49 49 49 50 50 49 50 49 51 52 50 49 48 47 48 48 49 49 50 50 50 50 48 47 45 43
34 28 30 28 25 18 20 28 35 36 38 40 43 45 46 47 46 45 46 47 47 47 47 47 48 47 48 48 47 46 45 45 45 45 44 45 46 47 47 49 50 50 49 49 48 47 46 44 43
37 33 31 20 19 20 20 25 40 40 39 41 43 46 46 46 46 46 47 46 46 45 45 45 43 43 43 44 43 43 46 46 44 44 44 47 48 50 50 50 50 49 48 48 47 46 44 43 41

GFSSGP_sfc_temp_057.txt.gz
Temp
74 73 71 68 60 56 50 54 58 60 63 70 71 70 70 72 70 67 71 76 77 79 82 81 79 79 79 79 79 78 78 78 77 78 78 78 78 78 78 78 79 79 79 78 77 78 78 77 76
72 72 68 61 54 48 51 56 57 62 68 67 67 70 70 71 72 67 71 75 78 80 82 83 78 79 79 79 78 78 78 78 78 78 78 78 78 78 78 78 79 79 78 77 77 77 76 76 76
72 71 65 58 50 49 51 57 60 65 66 67 70 72 71 72 72 72 75 76 79 79 81 80 78 78 79 78 78 78 78 78 78 78 78 77 78 78 78 78 79 77 76 76 76 76 75 76 75
68 67 62 53 49 52 57 61 61 63 68 69 69 69 74 74 74 75 75 77 77 78 80 78 77 78 78 77 77 78 78 78 78 77 78 77 77 77 77 76 76 76 75 75 75 75 75 75 75
64 61 52 48 50 54 57 60 62 63 64 68 68 69 70 74 72 74 75 76 76 77 79 81 78 78 77 77 77 77 78 78 78 78 77 77 77 77 76 75 75 75 75 75 75 75 74 75 75
57 58 47 47 49 55 59 62 63 63 65 68 68 67 71 71 70 71 74 75 78 76 78 80 77 77 77 77 77 77 77 77 77 77 77 77 76 76 76 75 74 74 74 74 74 74 74 74 74
54 52 49 48 51 53 58 63 62 64 65 68 71 68 72 71 71 72 72 76 76 76 77 79 80 78 74 75 75 76 76 76 76 76 76 76 75 75 75 74 74 74 75 74 74 74 74 74 74
56 55 46 48 50 52 61 62 66 65 66 72 71 67 70 70 70 71 72 73 73 75 76 77 78 78 78 78 74 74 74 74 74 74 74 72 72 72 74 73 74 74 74 74 74 74 74 73 73
57 49 44 49 50 55 61 60 66 67 66 68 70 68 69 70 70 69 69 70 71 72 74 75 75 76 76 76 75 73 73 72 72 72 70 71 76 76 75 71 71 73 73 73 73 73 72 70 69
53 46 47 55 56 56 60 61 62 64 61 65 66 69 66 68 68 67 67 68 69 70 72 73 75 74 75 75 76 76 76 77 77 77 77 76 75 75 74 70 70 72 72 72 73 73 70 69 73
51 47 53 56 58 60 58 59 62 61 60 64 63 65 66 66 67 68 69 71 71 73 72 73 74 74 74 75 74 74 74 75 76 76 75 75 74 74 74 74 74 74 69 74 74 73 73 72 72
48 52 55 58 59 59 57 60 59 60 63 66 65 66 68 67 65 66 68 70 71 72 73 74 75 73 73 75 74 74 73 73 73 74 75 73 73 72 72 73 72 72 73 73 73 73 72 71 70
50 52 55 58 57 58 59 56 58 58 62 64 64 64 66 68 69 70 71 72 72 72 73 73 74 74 72 72 73 73 73 73 74 73 73 73 72 71 71 72 72 72 72 72 71 71 71 70 69
53 54 55 57 57 57 55 55 56 59 61 61 62 64 64 66 68 69 69 70 71 74 75 75 74 74 73 70 71 73 73 73 72 72 72 72 73 72 70 70 70 71 72 72 72 71 69 69 69
53 48 51 54 54 55 55 51 49 60 61 60 62 62 62 64 66 68 71 70 71 72 75 76 75 74 72 71 70 72 71 72 72 72 72 72 71 71 71 71 68 70 71 71 70 68 67 66 66
48 49 42 51 53 54 56 45 55 58 56 57 58 58 59 62 64 66 68 69 71 70 71 75 75 74 72 72 69 69 70 71 71 72 72 71 71 71 70 70 70 70 70 69 68 66 65 65 65
44 36 40 46 52 52 53 45 54 57 56 56 57 57 57 59 62 64 66 66 69 70 70 70 73 74 72 72 71 69 69 69 70 71 72 71 71 70 70 70 70 70 69 68 66 64 65 63 62
37 38 40 43 48 48 46 45 51 55 53 54 55 57 57 57 61 66 66 67 68 68 68 69 70 73 73 71 70 69 69 67 71 69 72 70 71 69 69 69 70 69 67 66 64 64 61 63 62
44 41 40 44 49 47 44 44 48 53 52 52 55 57 59 59 63 64 64 65 65 66 65 66 67 69 72 69 68 67 66 67 66 68 70 70 69 68 67 68 69 68 67 66 65 62 60 58 60
43 40 39 44 47 46 43 42 49 53 52 53 54 55 55 56 58 59 61 62 62 64 65 64 64 67 70 72 72 72 71 70 69 68 67 70 68 68 67 67 67 66 66 64 62 61 58 58 58
42 39 38 40 43 43 40 41 44 50 51 50 49 51 53 53 54 56 56 58 59 60 61 63 64 64 66 70 71 67 67 66 67 66 66 66 68 67 67 67 67 65 65 62 61 60 59 56 55
38 45 43 41 39 34 40 33 41 44 46 46 48 49 51 52 54 55 56 58 58 58 57 59 61 62 63 66 68 67 67 66 67 68 68 66 67 66 65 65 65 64 63 61 58 57 59 57 54
39 45 41 39 35 35 35 33 40 43 43 45 48 49 50 51 52 54 55 56 57 56 55 57 58 60 62 63 67 67 67 68 68 67 67 66 65 66 65 66 64 63 61 61 59 57 59 58 57
44 40 37 34 33 27 32 32 37 41 43 46 49 49 50 50 51 53 55 56 56 56 56 57 58 59 60 61 62 64 66 66 64 64 64 64 63 63 64 64 64 63 61 59 58 58 57 57 56
43 38 26 24 23 26 32 30 37 43 46 47 48 49 50 50 51 52 53 53 55 55 55 57 56 57 58 59 59 60 61 63 63 64 64 64 60 59 61 62 61 60 60 59 58 56 55 55 54
37 39 26 23 24 27 32 28 39 45 48 49 49 49 48 50 51 51 51 52 53 54 54 55 55 56 57 58 59 59 58 58 62 63 64 64 63 62 63 60 61 60 59 56 54 53 54 55 51
36 29 35 24 23 22 29 33 42 45 44 46 47 48 49 50 50 51 51 52 53 53 54 53 54 55 56 55 56 57 57 57 58 60 61 63 62 60 60 59 57 56 56 55 54 54 53 53 49
39 39 28 23 17 21 27 28 35 39 43 46 47 47 48 49 50 51 51 52 53 53 53 53 53 53 53 53 53 53 53 54 56 57 57 57 56 56 55 55 53 53 53 53 53 50 50 48 46
35 31 31 30 28 23 24 32 39 41 44 45 46 48 47 48 49 49 50 51 50 50 49 50 49 49 49 50 50 49 49 50 51 52 52 53 53 52 52 52 51 51 50 50 48 47 47 46 45
39 35 33 26 24 23 23 31 44 43 44 45 46 47 47 48 48 48 48 47 45 45 46 46 46 47 47 48 48 48 49 49 50 49 49 51 51 52 52 52 51 50 49 48 47 46 46 44 42

GFSSGP_sfc_temp_060.txt.gz
Temp
80 85 89 83 68 68 63 65 71 70 71 79 79 78 78 81 79 74 81 85 89 89 90 84 79 79 80 80 79 78 78 78 78 78 78 78 78 78 78 78 78 79 79 77 78 78 77 77 76
83 82 84 78 64 58 63 71 67 73 76 79 78 78 78 79 83 79 81 83 89 90 89 87 78 79 79 79 78 78 78 78 77 78 78 78 78 79 79 79 79 79 77 77 77 77 76 76 76
81 83 76 69 64 59 63 70 74 74 77 77 78 81 81 79 82 84 85 85 89 89 90 87 78 79 79 78 78 78 78 78 77 78 77 78 78 78 78 79 78 76 76 76 76 76 76 76 76
79 79 77 64 60 66 69 71 73 73 76 78 79 77 83 84 83 86 86 87 88 90 91 80 78 78 78 78 78 78 78 78 78 78 77 77 78 78 77 77 76 76 75 76 76 75 75 75 75
78 76 64 60 63 69 72 73 73 71 74 77 78 77 80 82 83 85 86 87 88 89 90 85 78 78 78 77 77 78 78 78 78 78 77 77 77 77 76 76 75 75 75 75 75 75 75 75 75
69 73 60 57 62 69 72 75 74 73 75 77 76 78 81 82 82 82 85 87 88 87 87 87 77 77 77 77 77 77 77 77 78 77 77 77 77 77 76 75 75 75 75 75 75 75 75 75 74
66 64 60 63 63 64 69 77 72 74 75 76 81 76 82 83 80 76 81 88 87 88 87 88 83 79 75 76 76 76 77 77 77 76 76 76 75 75 75 75 74 75 75 75 74 74 74 74 74
68 66 61 63 61 62 73 72 76 75 76 81 81 76 78 79 77 75 77 85 86 86 87 88 88 86 83 84 74 74 75 75 75 75 73 72 72 73 74 73 74 75 74 74 74 74 74 74 73
68 60 57 59 60 65 72 70 74 77 77 78 79 78 77 79 74 72 72 74 77 82 85 87 87 87 87 86 81 74 73 73 73 73 70 71 82 79 76 73 72 73 74 74 74 74 73 71 70
64 58 60 66 66 66 69 72 72 72 73 75 76 78 75 74 71 70 70 70 72 75 81 85 85 86 85 84 84 84 84 83 84 81 77 82 83 83 81 73 70 72 72 72 73 72 71 71 80
63 58 63 61 64 67 68 69 72 72 68 75 74 74 74 71 70 71 72 73 73 76 79 79 84 85 84 83 84 85 84 84 86 84 83 84 82 81 80 80 78 79 71 79 76 75 79 80 80
56 63 63 62 64 63 64 70 68 71 73 76 75 75 76 74 70 70 73 74 78 75 76 76 78 82 83 85 83 84 83 84 84 84 84 83 81 81 81 81 80 80 80 81 81 81 80 79 79
57 59 62 64 63 63 65 64 67 68 73 74 75 73 75 76 77 77 76 77 76 75 76 76 78 78 79 82 84 84 83 83 83 83 83 83 81 80 81 81 78 80 81 81 80 80 79 79 79
61 60 61 64 63 62 60 62 63 68 73 73 73 74 77 76 78 79 79 80 81 82 80 78 77 78 77 75 81 82 83 84 83 83 82 82 82 81 80 80 79 77 79 81 80 80 79 78 78
59 54 59 60 62 62 63 57 57 69 73 71 73 75 75 76 78 78 81 81 84 85 85 83 81 78 78 76 74 79 82 83 82 82 83 81 81 80 80 80 79 80 78 79 79 79 78 77 76
55 56 49 59 60 61 61 55 61 67 69 68 70 73 73 74 76 79 81 80 82 82 83 85 84 82 80 77 75 72 76 81 82 83 83 82 81 80 79 79 79 79 79 76 77 76 75 75 74
52 47 49 51 60 61 58 55 64 66 65 66 69 70 70 72 75 77 79 80 81 83 83 82 83 83 82 79 76 73 72 76 81 81 82 81 80 80 79 79 79 80 78 75 75 75 75 73 73
45 46 50 50 55 56 54 56 61 65 63 65 68 70 70 70 72 77 77 79 80 81 82 83 82 83 84 81 74 71 70 71 77 80 81 81 81 79 78 79 79 79 77 74 74 74 73 73 73
53 50 48 52 54 53 54 54 58 63 64 64 67 70 71 71 73 73 73 75 77 78 79 80 80 81 82 81 70 69 68 69 69 72 76 80 79 79 77 77 77 78 76 75 74 73 70 68 72
52 49 48 48 52 53 52 51 58 61 62 62 63 65 67 66 68 68 69 71 72 74 76 78 78 79 80 81 80 77 77 74 73 72 72 72 77 76 76 75 76 75 75 75 73 71 68 69 68
50 48 47 47 49 51 49 50 52 55 56 57 59 62 63 63 65 67 69 69 70 70 71 72 74 75 77 78 80 79 78 76 74 73 73 73 71 74 75 74 76 73 75 74 73 70 67 65 65
43 50 50 47 46 43 48 46 49 52 52 56 59 60 61 62 65 66 67 67 68 67 66 67 69 70 72 73 74 75 74 71 74 76 76 75 73 69 70 72 74 73 71 70 71 69 68 68 62
44 51 48 46 46 44 43 44 47 53 50 52 57 59 61 62 63 64 65 65 67 66 66 68 69 70 71 72 72 74 73 75 76 76 75 75 73 71 67 69 70 70 70 69 69 67 67 68 68
49 48 46 46 43 36 43 41 45 48 52 53 56 59 60 61 63 65 66 66 67 67 66 67 69 69 69 69 70 71 72 73 72 72 72 72 72 68 66 67 66 68 67 67 67 66 64 65 67
43 44 34 33 33 36 39 38 48 52 54 57 55 57 59 61 62 62 63 63 64 64 65 66 67 67 68 68 68 69 69 70 71 72 71 71 70 67 65 66 65 65 65 65 65 64 63 63 62
43 45 37 30 34 38 37 37 47 54 56 58 56 57 58 60 61 61 61 62 63 63 64 65 65 65 66 67 67 68 68 69 70 71 72 72 72 72 70 66 64 64 64 63 62 62 61 62 60
41 38 44 35 34 35 42 43 49 51 52 55 56 57 57 58 59 59 61 61 61 62 62 62 63 64 64 64 65 66 67 66 66 67 69 70 71 71 71 67 63 62 60 60 59 57 57 57 56
46 47 36 35 29 31 38 40 45 46 50 54 55 55 56 57 58 58 59 58 58 58 59 60 61 61 62 61 62 62 61 61 62 63 64 66 68 68 64 63 60 58 57 56 54 54 54 53 50
41 40 39 41 38 35 38 43 55 52 54 52 54 55 55 56 56 57 57 57 56 57 57 57 57 58 58 59 60 59 57 56 56 55 56 57 58 59 58 58 56 54 53 54 51 50 49 46 44
46 43 43 37 32 34 34 43 55 57 56 53 55 54 55 55 54 55 54 55 55 54 55 55 55 56 56 57 58 58 58 58 57 56 57 57 56 56 55 55 53 52 51 50 48 47 46 44 42

GFSSGP_sfc_temp_063.txt.gz
Temp
79 87 91 84 69 69 65 70 78 74 75 83 83 82 82 83 81 73 86 90 93 91 88 85 79 79 80 80 79 78 78 78 78 78 78 78 78 78 78 78 78 79 78 79 78 78 77 77 76
86 87 85 79 64 60 65 76 71 77 80 83 83 82 81 81 88 83 85 89 93 93 90 88 78 79 79 79 79 78 78 78 77 77 78 78 78 79 79 79 79 79 77 77 77 77 76 76 76
80 87 76 70 65 61 65 75 77 78 81 81 81 86 85 82 86 88 90 90 93 93 91 86 78 79 79 78 78 78 78 78 77 78 78 78 78 77 78 79 77 76 76 76 76 76 76 76 76
79 79 77 65 62 69 73 76 78 78 80 82 82 79 87 88 87 90 90 92 93 93 92 79 78 78 78 78 78 78 78 78 78 77 77 77 78 77 78 76 76 75 75 76 76 76 76 75 75
79 77 64 61 64 72 78 79 78 77 78 80 81 80 82 85 89 90 90 92 92 93 91 85 78 78 78 78 78 78 78 78 78 77 77 77 77 77 76 76 75 75 75 75 75 75 75 75 75
66 73 60 58 64 72 78 80 78 77 80 80 80 81 82 87 87 88 90 91 93 92 90 83 76 77 77 77 77 77 78 78 78 77 77 77 77 76 75 75 75 75 75 75 75 75 75 75 74
65 65 61 64 66 69 75 82 76 77 79 79 84 78 84 85 84 86 91 92 92 92 91 88 85 80 75 76 76 77 77 77 77 76 76 76 76 76 75 75 75 75 75 75 74 74 74 74 74
69 67 61 64 64 66 78 78 82 78 77 87 86 77 79 83 81 80 86 90 90 89 90 90 86 83 80 79 75 75 76 76 76 75 73 72 72 73 74 73 74 74 74 74 74 74 74 74 73
72 60 58 62 64 69 79 74 80 83 80 81 84 83 81 83 79 77 80 85 87 87 89 91 89 86 85 83 79 74 73 73 73 73 70 71 80 78 75 73 72 73 74 74 74 74 73 72 71
63 58 60 70 71 69 76 74 77 74 76 78 80 82 81 80 75 73 72 72 78 84 87 90 90 89 89 89 83 84 83 82 82 81 78 79 84 82 81 73 71 73 73 73 74 73 71 70 78
63 59 67 70 68 68 71 72 79 74 72 79 78 82 80 78 74 74 75 76 75 83 85 87 88 89 88 86 87 86 86 85 86 85 79 82 84 82 81 78 76 76 70 76 75 74 76 78 81
58 65 69 68 66 66 67 75 72 75 77 83 81 80 80 79 77 76 78 81 81 81 81 84 86 87 87 87 86 87 86 86 86 86 84 84 83 81 81 81 79 79 78 79 78 78 80 80 80
58 65 67 68 65 66 70 69 71 72 78 79 79 77 79 80 81 79 80 83 84 83 81 79 80 81 85 85 86 86 86 85 86 86 86 86 83 82 82 82 81 81 82 82 81 81 81 79 79
62 64 64 67 64 64 63 67 69 72 79 77 77 77 80 80 81 83 82 82 83 83 83 82 78 78 79 83 85 85 86 86 85 85 84 84 84 82 81 81 80 77 82 82 81 81 80 79 79
62 57 60 63 64 63 64 59 62 73 75 74 76 77 78 80 81 81 84 83 86 87 88 85 83 80 79 78 79 83 85 86 85 84 85 84 83 82 81 81 81 80 76 80 81 81 80 78 78
54 57 49 60 62 64 62 54 66 72 72 72 75 77 78 79 81 83 84 85 86 86 86 87 87 85 82 80 76 76 83 84 85 85 85 84 83 82 81 80 80 82 81 74 76 78 77 76 75
53 46 50 55 62 61 58 57 67 70 69 71 73 75 76 77 79 82 84 84 84 85 85 85 86 86 85 84 80 74 75 77 82 84 84 84 83 82 81 80 80 81 80 76 72 77 76 74 73
47 48 54 53 57 59 57 57 65 68 66 68 72 74 74 74 76 80 82 84 85 85 86 86 86 85 86 86 84 75 72 73 73 82 84 84 84 82 81 80 80 81 78 78 72 74 76 75 73
58 52 53 57 59 56 56 58 62 66 66 67 69 71 73 74 79 78 77 78 79 81 81 82 82 84 84 83 83 74 69 69 71 75 82 83 83 82 80 79 79 79 78 77 74 72 73 71 74
55 52 50 54 57 56 57 56 62 64 64 67 68 69 71 73 73 74 73 74 75 77 79 80 81 82 83 83 83 80 76 72 72 72 72 75 80 81 80 78 77 78 76 76 75 71 69 70 71
53 51 51 49 52 56 54 51 55 61 61 62 63 67 67 67 68 70 71 71 72 73 72 74 76 78 80 81 82 82 80 78 76 74 73 73 73 76 77 77 77 76 76 74 74 72 69 66 68
47 57 55 49 46 43 55 47 53 56 55 59 62 64 65 66 68 68 69 69 69 68 69 71 72 73 75 76 76 76 77 75 77 78 79 78 78 74 71 73 74 74 72 72 73 73 70 67 63
47 56 53 51 48 46 47 45 51 55 51 56 60 62 63 66 66 67 67 67 69 67 67 70 72 73 73 73 74 74 74 77 78 78 77 78 79 77 72 69 68 69 69 68 71 69 71 66 66
54 51 50 50 46 36 48 47 46 50 54 56 60 62 63 64 66 67 68 68 69 68 68 69 70 72 72 71 72 71 71 74 74 75 74 75 75 74 74 69 68 68 67 67 66 68 66 65 65
48 46 33 31 32 36 46 43 51 57 60 59 59 61 63 65 65 65 65 65 66 66 67 68 69 69 71 71 71 71 71 71 71 72 73 73 73 72 70 67 66 65 65 65 65 64 63 63 62
43 44 38 31 36 40 42 38 50 58 61 61 60 61 62 63 64 63 64 64 65 65 65 66 66 67 68 68 69 71 71 70 70 71 72 73 74 74 75 71 67 66 65 64 63 62 61 61 61
37 35 48 39 41 40 44 48 51 54 56 57 59 59 59 61 61 62 63 64 63 63 62 63 64 65 66 65 67 67 68 66 66 67 69 70 71 71 72 71 69 63 62 62 61 59 58 58 58
48 52 39 37 30 33 41 45 47 47 50 55 57 58 59 60 61 61 62 61 61 61 61 62 62 62 63 63 64 64 63 62 62 62 62 63 65 67 67 66 64 61 60 59 57 56 55 54 51
44 42 43 44 42 37 39 44 57 53 55 55 57 58 58 59 59 59 59 59 59 60 59 59 60 60 60 61 62 62 61 61 61 60 60 60 59 60 60 61 60 59 57 55 53 51 51 47 44
50 47 48 39 38 39 37 42 60 58 57 58 57 57 58 57 57 57 57 57 58 57 57 57 58 58 58 59 60 59 58 58 57 57 57 57 56 57 56 57 56 54 52 51 49 47 45 43 42

GFSSGP_sfc_temp_066.txt.gz
Temp
77 81 81 73 56 57 54 61 66 66 66 72 77 71 68 72 70 59 78 84 84 80 81 80 79 79 80 79 79 78 78 78 78 78 78 79 78 78 78 78 79 79 79 79 78 78 77 77 76
76 82 75 66 53 49 54 67 66 68 73 75 74 72 70 70 78 76 76 84 86 83 81 80 78 79 79 79 78 78 78 78 78 78 78 78 79 79 78 79 79 78 77 78 77 77 76 76 76
76 79 65 59 55 51 55 67 69 73 74 72 71 75 73 72 80 78 82 86 87 83 83 80 78 79 79 78 78 78 78 78 78 78 78 78 78 78 79 77 77 77 77 76 76 76 76 76 75
72 71 67 56 55 61 64 67 72 72 73 74 73 69 76 80 78 81 84 87 86 84 79 76 78 78 78 78 78 78 78 78 78 77 77 78 77 79 77 76 76 76 76 76 76 76 75 75 75
71 67 56 54 57 65 70 72 70 69 71 73 70 68 70 77 83 83 83 87 85 82 79 77 78 78 77 78 78 78 78 78 77 77 77 77 77 77 76 75 75 75 75 75 76 75 75 75 75
58 63 51 48 57 66 70 73 71 68 72 71 69 69 69 79 80 81 84 84 86 80 80 78 76 77 77 77 77 77 77 77 77 77 77 77 77 76 76 75 75 75 75 75 75 75 75 75 74
53 54 51 55 57 64 69 73 69 68 67 70 72 66 71 74 78 82 82 84 85 83 79 77 76 76 75 75 76 76 77 77 76 76 76 75 75 75 75 75 75 75 75 75 74 75 75 74 74
61 54 51 56 58 60 73 74 75 70 70 77 75 64 61 70 75 77 82 82 82 82 81 79 77 76 75 74 74 75 75 75 76 75 73 72 72 73 74 73 74 74 74 74 74 74 74 74 73
67 52 46 51 57 63 74 71 74 75 70 71 73 71 74 74 75 71 73 78 79 81 81 81 79 76 78 77 76 75 74 74 73 71 70 69 69 69 70 70 72 73 74 74 74 74 73 71 70
58 50 53 64 67 64 71 71 70 68 67 67 70 75 76 74 71 68 70 70 73 76 79 82 80 78 78 81 73 73 74 72 72 72 68 70 71 70 73 68 70 72 72 72 73 73 71 69 66
58 51 61 66 65 65 67 67 70 66 62 68 69 71 73 71 69 69 69 68 69 72 77 80 80 80 79 79 75 76 76 74 75 74 72 71 73 69 69 65 66 66 67 67 69 68 66 66 67
54 60 63 66 64 62 62 69 68 67 66 72 71 74 73 72 68 69 70 71 71 73 74 78 79 78 78 77 75 75 74 74 73 73 74 72 71 69 69 68 66 66 66 66 66 67 67 68 70
55 60 64 66 63 62 66 63 63 64 70 73 73 73 69 71 72 72 73 76 75 74 74 74 74 75 77 76 75 75 75 74 75 74 76 76 71 70 70 69 70 69 69 68 69 69 71 69 69
60 61 63 64 61 62 60 62 64 66 69 69 69 67 67 70 70 71 73 73 74 73 75 74 75 73 73 74 75 75 75 75 75 74 74 75 73 71 70 70 70 69 69 69 69 69 69 68 68
61 54 58 60 60 59 61 56 57 66 68 67 67 67 69 70 71 69 72 74 75 75 78 76 75 75 74 72 72 74 75 77 74 74 75 75 74 72 71 70 68 69 69 69 69 69 69 67 68
51 53 46 57 60 60 58 47 60 66 64 63 65 63 66 70 72 72 73 73 72 72 77 79 81 76 74 76 74 71 72 74 74 74 74 75 75 74 71 69 69 69 69 68 66 66 65 65 64
48 40 44 50 59 59 56 49 61 67 64 62 63 65 66 66 68 66 71 71 73 73 74 75 76 76 76 75 74 72 72 70 72 75 74 75 75 74 71 70 69 71 68 67 67 66 65 63 62
40 41 46 48 55 57 52 51 59 62 59 60 62 64 63 65 67 68 70 67 71 71 72 73 74 75 76 77 76 70 68 71 71 71 73 75 74 74 71 70 70 70 67 66 65 66 64 63 62
52 47 45 52 58 53 51 53 56 61 60 57 60 61 62 65 70 67 69 68 68 69 69 70 71 72 72 71 69 67 67 67 67 70 71 72 70 73 70 69 68 68 69 69 67 65 65 63 63
51 48 46 53 56 53 51 51 58 59 59 60 59 59 61 63 63 65 66 62 65 65 65 67 69 70 71 70 70 69 68 67 68 68 70 70 69 70 70 70 69 66 65 65 65 66 63 65 64
49 46 47 46 50 52 48 46 51 57 58 58 57 57 60 59 60 62 62 63 62 60 60 63 64 65 66 67 67 67 67 66 65 65 67 71 71 69 66 70 69 66 67 65 62 65 62 62 61
43 54 54 48 43 36 48 34 48 53 51 54 53 54 56 57 59 61 61 60 59 59 60 62 64 64 66 65 64 62 61 62 65 66 68 68 68 68 67 65 68 69 69 66 65 66 64 60 61
46 54 50 47 42 40 42 34 42 50 46 49 53 54 56 56 59 59 59 61 61 60 59 61 63 64 64 63 62 61 60 61 63 65 66 66 67 67 66 65 64 63 64 65 66 64 65 64 63
54 48 47 43 41 29 41 39 37 43 48 51 53 54 56 57 58 60 61 61 60 59 59 59 61 63 63 62 61 60 59 59 59 61 62 63 64 65 65 65 66 66 66 65 63 65 63 62 63
48 40 29 27 28 26 42 39 41 51 54 53 53 54 55 57 56 56 56 57 58 57 57 60 59 59 61 60 60 60 59 58 57 58 59 61 62 62 63 63 62 62 63 64 64 63 63 61 60
40 39 28 24 25 28 39 31 40 52 57 56 56 55 56 55 55 55 55 55 55 56 55 55 56 57 58 58 58 58 57 56 57 57 57 58 59 61 64 63 61 62 63 62 62 62 61 61 60
37 34 42 32 33 26 33 38 44 49 49 52 53 54 53 54 54 54 54 54 53 53 53 53 54 55 56 56 56 55 54 54 53 53 54 55 56 60 58 58 57 60 61 61 60 60 60 58 58
41 46 33 29 22 25 31 34 37 42 46 50 51 52 53 55 54 54 53 52 52 52 52 53 54 53 54 54 54 55 53 53 53 52 51 52 52 54 54 54 54 55 55 57 57 56 56 55 50
36 35 39 37 34 23 26 30 45 46 49 49 51 54 54 53 52 52 52 52 52 52 51 51 51 51 51 52 52 50 50 50 50 48 49 49 50 51 53 54 55 53 53 53 52 51 50 47 44
45 43 43 28 31 28 26 31 51 49 50 52 52 54 54 54 52 52 51 51 50 50 50 49 49 49 49 50 49 47 47 47 45 44 45 46 45 46 46 48 48 48 49 49 47 45 44 44 42

GFSSGP_sfc_temp_069.txt.gz
Temp
74 73 70 64 52 49 45 53 59 61 62 63 67 68 64 65 65 58 72 77 76 76 79 79 79 79 79 79 79 78 78 78 79 79 79 79 78 78 78 79 79 79 79 78 78 77 77 76 76
72 75 66 58 46 41 46 55 61 61 67 67 71 68 67 63 71 72 71 77 79 78 79 78 78 79 79 79 78 78 79 78 78 78 78 79 79 78 79 79 79 78 78 78 77 76 76 76 76
74 74 57 51 46 43 47 57 61 65 70 68 65 69 67 67 72 72 77 79 79 77 78 78 78 79 79 78 78 78 79 78 78 78 78 78 78 79 78 78 78 77 77 76 76 76 76 75 75
70 64 59 48 46 54 55 59 63 66 69 72 67 63 70 74 73 77 81 80 77 77 75 76 78 78 78 78 78 78 79 78 78 77 77 77 78 78 77 77 76 76 76 76 76 75 75 75 75
65 60 48 45 49 56 58 66 66 64 67 67 67 62 64 72 77 78 80 81 75 74 75 76 77 78 77 78 78 78 78 78 77 77 77 77 78 77 76 75 75 76 75 76 76 75 75 75 75
55 56 46 44 49 58 58 67 68 64 66 66 66 63 63 70 75 77 81 78 77 75 76 77 76 76 77 77 77 77 77 77 77 77 77 77 77 76 76 75 75 75 75 75 75 75 75 74 74
54 51 46 51 52 56 61 68 63 65 61 63 69 60 62 68 71 75 78 78 77 76 75 74 75 76 75 75 76 76 76 76 76 76 76 75 75 75 75 75 75 75 75 75 75 75 74 74 74
55 52 49 51 52 55 68 70 69 67 64 71 70 59 60 67 72 74 80 77 76 75 74 72 72 76 75 73 74 74 74 74 75 74 73 72 72 73 74 73 74 74 74 74 74 74 74 73 73
62 47 43 48 52 58 68 64 68 71 68 68 66 66 68 72 73 70 71 74 73 75 74 73 72 71 72 72 73 73 73 73 73 71 70 69 67 68 69 69 71 73 73 74 74 74 73 71 71
54 48 49 56 58 58 62 67 68 65 64 63 63 68 71 70 68 67 68 67 70 72 74 74 73 73 73 78 72 71 73 71 70 69 67 67 66 66 70 67 70 72 72 72 73 73 71 69 64
55 48 57 60 63 60 62 67 70 63 58 63 62 63 66 67 65 65 66 67 66 71 75 75 74 74 73 74 70 68 68 69 69 68 67 67 69 65 65 63 65 65 66 65 68 68 65 63 63
51 58 59 62 62 60 59 66 64 62 61 66 66 68 66 65 64 65 66 67 66 68 72 77 76 72 72 73 72 71 71 69 69 70 69 67 65 64 64 63 63 63 64 63 63 64 64 63 64
52 56 61 63 61 60 64 60 60 59 64 69 70 69 66 66 66 67 68 69 69 69 71 71 72 71 73 72 72 69 71 72 71 70 71 70 67 66 65 64 64 63 63 63 62 63 64 63 64
56 57 59 61 59 59 59 60 62 62 66 66 68 64 64 68 67 66 69 69 68 69 72 73 72 71 71 69 71 71 71 73 71 69 72 71 68 70 67 65 65 64 66 66 66 65 65 64 64
55 52 54 55 57 56 60 56 57 62 62 61 59 62 65 65 67 66 69 70 70 70 72 72 73 73 70 69 69 70 71 73 71 71 71 72 70 69 68 66 66 67 67 67 64 66 64 64 65
50 50 42 52 56 57 58 47 58 62 56 60 58 57 60 66 68 67 70 70 70 70 71 72 77 72 71 70 69 69 69 69 69 71 71 72 72 70 67 67 66 68 67 66 65 63 63 62 62
44 38 40 48 56 55 54 47 58 62 59 59 57 57 60 61 62 64 67 65 67 69 71 71 73 70 70 69 70 70 70 68 69 70 69 71 72 71 68 67 67 67 66 65 64 63 62 60 59
38 36 39 42 51 53 50 50 56 59 58 59 58 58 59 61 64 67 65 64 66 66 66 68 73 70 71 70 69 67 65 67 68 68 68 70 70 71 70 69 67 67 64 64 62 62 61 61 60
44 42 41 47 54 51 50 50 54 57 55 55 57 57 59 61 63 62 62 61 63 63 62 63 66 67 67 65 65 64 65 63 64 66 68 68 68 67 67 69 66 66 67 65 65 64 61 59 59
45 39 40 46 53 51 49 49 54 56 55 56 58 57 57 57 59 60 62 61 58 56 57 59 60 62 63 64 64 65 65 65 67 67 66 67 66 66 66 64 66 64 63 62 62 62 59 60 59
44 39 39 42 45 48 45 44 49 54 55 56 56 57 57 58 57 57 58 58 57 56 56 59 60 61 61 62 63 62 63 63 63 63 63 65 66 66 65 65 63 62 62 61 60 63 62 61 57
38 49 49 45 40 33 45 31 44 51 50 52 52 52 54 56 57 57 58 58 57 56 57 59 60 61 63 61 61 59 58 58 61 63 64 65 66 66 65 65 65 63 63 63 64 65 64 61 59
42 52 50 43 39 36 37 33 40 49 44 47 49 50 52 55 56 56 58 59 59 58 57 57 59 61 60 59 58 57 56 56 57 58 60 62 64 65 65 65 63 61 61 61 61 60 61 62 63
47 47 46 41 38 26 36 34 36 40 49 46 47 50 53 54 55 56 58 58 57 57 57 57 58 59 58 57 57 55 54 54 54 55 56 58 59 61 63 63 63 62 63 63 62 62 62 61 62
43 38 28 27 23 23 37 34 40 48 48 49 49 50 52 53 53 53 54 54 54 53 54 57 56 56 56 56 55 54 53 52 51 52 52 54 56 57 58 60 60 60 61 63 63 62 61 61 60
36 37 26 21 21 25 36 30 39 47 53 53 53 52 53 51 51 53 53 51 51 52 52 52 53 53 54 54 53 52 51 51 51 51 51 51 51 53 54 55 57 58 61 62 62 60 61 61 59
37 34 41 31 30 23 29 34 45 47 48 51 51 52 50 51 52 52 51 50 50 50 50 51 51 51 52 52 52 50 50 50 49 49 49 49 50 55 52 52 52 54 54 55 58 58 58 58 58
40 45 34 29 23 24 26 28 33 40 44 49 49 48 50 51 50 49 49 49 49 49 49 49 50 49 50 50 49 48 47 48 47 47 46 46 48 49 49 50 50 50 50 50 51 51 52 54 49
37 35 37 38 31 22 23 29 42 45 47 48 49 50 50 49 48 48 48 48 48 47 47 47 47 47 47 47 46 45 44 44 44 43 43 43 44 44 45 46 46 46 46 46 47 48 47 46 44
44 39 40 28 30 27 23 29 46 45 47 49 49 52 51 50 49 48 48 47 46 46 46 45 45 45 45 45 44 43 43 42 41 41 41 42 41 42 42 43 42 42 42 42 42 43 44 43 41

GFSSGP_sfc_temp_072.txt.gz
Temp
74 72 68 63 51 47 43 50 55 58 59 61 64 67 64 61 63 58 69 73 75 75 77 78 79 79 79 79 78 78 78 78 78 79 79 78 78 78 78 79 79 79 79 78 77 77 77 76 76
73 73 65 55 45 40 44 52 56 60 66 67 66 65 64 61 68 66 68 74 76 76 77 77 78 79 79 78 78 78 78 78 78 78 78 78 78 79 78 79 78 78 78 77 76 76 76 76 76
74 72 58 51 43 41 45 54 57 63 66 66 64 67 65 63 69 69 72 76 77 75 77 77 78 78 78 78 78 78 78 78 78 78 78 78 78 79 78 78 78 77 76 76 76 75 75 75 75
70 64 57 46 44 51 52 54 61 63 64 68 65 61 66 69 72 72 76 76 74 72 74 77 77 78 78 78 78 78 78 78 77 77 77 77 78 78 78 77 76 76 75 76 75 75 75 75 75
65 59 49 43 47 52 56 61 63 63 62 63 64 58 62 71 73 76 75 76 73 72 74 76 77 78 77 78 78 78 78 78 77 77 77 78 77 77 77 76 76 75 75 75 75 75 75 74 75
54 56 44 42 48 55 58 62 62 63 61 63 62 61 60 68 72 75 76 75 75 73 74 75 75 76 77 77 77 77 77 77 77 77 77 78 77 76 76 75 75 75 75 75 75 75 74 74 74
54 51 44 47 50 55 59 64 60 62 61 60 66 58 61 65 70 73 74 74 75 75 74 74 74 75 75 75 76 76 76 76 76 76 76 75 75 75 75 75 75 75 75 75 75 75 74 74 74
55 53 48 50 50 53 60 63 65 65 61 67 66 58 59 67 71 72 75 73 72 73 73 73 73 75 73 73 74 74 74 74 74 74 73 72 71 73 74 73 74 74 74 74 74 74 74 74 73
58 48 45 49 50 55 60 55 66 71 63 62 63 63 69 70 70 70 70 70 69 71 71 71 71 73 75 72 73 73 72 72 72 71 70 68 67 69 69 69 71 73 73 74 74 74 73 72 71
51 46 48 57 58 53 57 58 61 65 61 58 61 66 69 69 66 66 66 66 67 67 69 71 71 70 71 75 71 70 71 69 68 68 66 65 65 65 68 67 69 72 72 72 73 73 72 69 63
53 46 55 59 60 55 55 56 62 61 59 59 60 62 64 65 64 65 65 66 66 69 71 71 71 71 70 73 69 68 68 67 67 66 65 65 65 63 64 63 65 65 66 65 68 67 65 63 61
50 56 59 59 56 56 53 56 58 61 63 67 64 65 64 64 63 64 65 66 67 68 70 72 71 70 70 69 69 68 68 67 66 66 66 63 62 61 61 62 62 63 63 62 63 63 63 63 62
50 56 60 61 58 56 57 53 57 61 65 64 65 65 63 63 63 65 66 67 68 69 70 70 70 68 70 69 70 67 68 68 68 67 67 66 63 63 62 62 62 62 62 61 61 62 62 61 61
54 56 57 59 59 60 54 55 59 65 65 64 65 62 62 63 64 63 65 66 66 68 69 69 70 69 69 68 67 68 67 69 66 67 69 68 67 65 64 62 63 61 62 62 61 62 62 62 61
53 50 52 55 56 57 60 52 53 64 62 60 59 62 64 63 64 64 67 67 68 67 70 70 71 70 68 68 67 67 67 70 67 68 69 70 68 67 66 64 63 64 63 63 62 62 61 61 62
47 47 42 53 55 58 58 46 58 62 59 57 56 53 57 61 64 64 67 67 66 68 70 71 75 71 69 68 68 68 68 68 67 67 69 70 69 67 66 65 65 66 64 64 62 62 61 60 60
42 36 40 47 56 54 53 46 57 60 58 58 56 56 57 59 59 62 63 62 66 66 67 68 70 70 69 68 68 67 68 67 68 68 67 68 70 69 68 68 67 64 65 65 64 61 60 59 58
35 35 38 40 50 52 49 48 56 57 55 57 57 57 58 59 61 61 62 62 63 62 63 65 67 68 68 68 67 66 65 66 66 67 67 68 68 68 67 67 66 66 63 63 60 61 60 60 59
42 39 40 45 52 49 48 48 53 58 53 53 54 56 58 60 57 59 57 57 59 57 59 59 62 62 64 64 64 63 64 64 63 64 67 68 67 66 65 64 64 63 65 66 64 62 60 60 57
42 38 38 44 51 47 47 48 53 55 54 55 56 56 57 56 56 58 56 54 55 55 55 57 58 60 61 61 62 64 64 64 65 65 65 65 65 65 65 63 63 63 61 61 60 60 58 60 57
40 37 37 40 43 45 44 41 45 51 52 54 55 56 55 57 56 54 54 55 54 53 54 57 57 58 60 60 60 59 61 62 62 62 62 65 66 65 65 64 63 62 61 61 61 61 59 61 56
39 45 46 43 38 32 43 29 39 47 51 52 53 51 53 53 53 54 55 55 55 55 55 57 58 58 59 57 57 57 57 57 59 60 62 63 64 64 64 64 63 63 61 61 61 60 60 59 59
42 46 45 41 38 35 35 31 35 43 43 49 48 50 50 51 52 54 55 57 57 55 54 54 57 57 56 55 55 54 54 54 55 55 57 59 61 63 63 63 62 61 60 60 60 59 59 59 60
45 43 42 39 37 26 34 32 32 39 44 48 47 48 50 51 52 54 55 56 55 54 54 54 55 54 54 54 52 52 50 51 51 51 51 53 56 56 57 59 61 61 60 60 60 61 59 58 60
42 35 28 28 28 25 34 32 42 44 48 50 47 46 49 50 50 51 51 52 52 52 52 55 53 53 53 52 51 50 50 50 49 49 49 50 51 51 52 55 57 58 59 60 61 62 61 60 59
36 37 25 22 22 24 33 28 39 45 48 51 53 52 50 49 49 50 50 50 50 50 50 51 51 51 51 51 50 49 49 49 49 49 49 48 49 50 51 52 53 54 55 55 56 57 57 58 56
36 33 39 27 25 20 28 33 43 42 42 47 50 51 49 49 50 49 49 49 48 48 48 49 49 49 49 49 48 46 46 46 45 45 46 46 46 52 49 49 50 50 51 51 52 52 51 52 54
40 43 30 24 18 20 26 26 33 35 40 48 49 48 49 50 49 48 48 47 47 47 47 47 48 47 47 46 46 45 44 44 43 43 42 43 44 45 45 45 45 45 45 46 47 47 49 51 47
37 35 35 35 29 21 22 28 38 40 45 47 49 50 49 48 47 47 47 47 46 46 45 45 45 45 45 44 43 42 41 41 41 40 40 40 41 42 42 43 42 42 41 42 42 43 43 45 44
43 38 37 27 27 24 21 28 42 42 45 49 49 51 50 50 48 47 47 46 45 44 44 44 44 43 43 43 41 40 40 39 39 39 39 39 39 40 40 40 40 39 39 39 39 39 39 42 41

GFSSGP_sfc_temp_075.txt.gz
Temp
73 71 67 63 52 47 41 49 51 56 56 60 63 63 63 60 62 57 66 71 74 75 76 77 79 79 79 79 78 78 78 78 78 78 79 78 78 78 79 79 79 79 78 78 77 77 77 77 76
70 72 66 54 45 39 43 50 54 58 61 62 65 61 62 59 65 64 67 73 76 75 76 76 78 78 79 78 78 78 78 78 78 78 78 78 78 78 78 78 78 78 77 77 76 76 76 76 76
72 71 60 50 42 41 45 52 55 61 63 60 60 63 61 61 65 66 69 76 75 74 76 76 78 78 78 78 78 78 78 78 78 78 78 78 78 78 79 78 78 77 76 76 75 75 75 76 76
65 65 57 48 42 49 51 53 57 60 65 65 61 59 64 67 69 70 73 75 73 72 74 76 77 78 78 77 77 78 78 78 77 77 77 78 78 78 78 77 76 76 75 75 75 75 75 75 75
60 59 47 43 45 51 53 58 59 59 60 61 60 58 59 67 70 72 72 74 71 72 74 75 77 77 77 77 78 78 77 77 77 77 77 77 78 78 77 76 75 75 75 75 75 75 75 75 75
52 53 41 40 47 54 55 58 58 58 60 62 60 59 58 65 69 71 73 72 74 72 74 75 75 76 77 77 77 77 77 77 77 76 77 78 77 77 76 75 75 75 75 75 75 75 75 74 74
50 47 43 45 51 52 56 60 56 58 59 62 63 57 58 62 67 71 72 72 73 73 73 73 74 74 74 75 76 76 76 75 76 76 77 76 75 75 76 75 75 75 75 75 75 75 74 74 74
51 49 45 46 51 51 57 58 60 60 60 66 63 57 58 64 68 69 71 70 70 71 74 75 72 73 72 72 73 74 74 74 74 74 73 72 72 73 74 73 73 74 74 74 74 74 74 74 73
58 46 45 48 50 53 56 54 60 65 60 61 61 61 66 67 69 68 69 70 71 73 74 75 71 71 71 71 72 72 72 72 72 71 69 68 68 69 69 69 71 73 73 73 73 74 73 72 70
51 47 48 55 56 55 56 56 56 57 58 58 58 65 66 68 67 67 67 67 68 70 72 73 70 70 70 74 70 69 70 69 68 67 66 66 65 66 68 66 69 72 72 72 73 73 72 69 63
48 47 55 58 54 54 54 56 58 54 55 59 59 61 63 64 65 66 67 67 67 68 69 69 69 69 70 71 68 67 67 66 66 66 65 64 65 63 64 63 64 64 66 64 67 66 65 63 61
46 54 58 56 54 54 53 56 54 54 56 62 62 63 62 63 63 64 64 65 65 66 68 69 69 68 68 68 68 67 67 66 65 65 65 62 61 61 61 61 62 62 62 62 62 62 63 62 61
45 53 58 54 54 54 56 53 52 52 59 63 64 63 61 62 62 63 65 65 65 65 66 67 68 67 68 67 67 66 67 66 66 65 65 63 61 60 60 60 61 61 61 61 60 61 62 61 61
51 54 54 54 54 57 52 53 52 56 60 62 61 61 61 61 62 62 64 64 65 66 67 68 68 67 67 68 66 67 66 67 66 65 66 65 64 62 61 60 61 61 61 61 60 60 60 61 60
51 49 50 54 55 53 55 47 47 57 60 60 58 59 61 62 63 63 64 65 66 65 68 68 69 69 67 67 67 66 66 67 65 66 66 66 65 63 63 61 60 62 61 61 60 60 60 60 61
45 45 40 52 55 55 54 43 52 56 57 58 60 60 59 60 63 63 65 65 66 66 67 68 73 69 68 69 67 66 66 66 65 66 66 66 66 65 63 62 62 63 60 60 60 60 59 58 59
40 33 39 46 55 54 53 47 54 59 58 59 59 59 61 57 57 60 62 63 66 66 67 67 69 68 68 66 66 66 66 66 66 66 66 66 67 66 65 65 64 62 62 60 61 59 59 58 58
33 32 39 42 49 52 49 48 55 58 55 54 55 56 57 60 60 57 61 56 59 61 63 64 66 67 67 66 66 65 65 65 66 66 65 66 66 66 65 64 64 63 62 61 59 60 58 60 61
40 36 38 44 51 49 47 48 53 58 55 53 51 53 55 59 58 57 56 56 55 56 58 59 62 61 63 64 63 63 63 64 64 65 67 67 66 66 64 64 62 62 62 64 62 60 60 59 57
41 37 35 44 49 48 46 47 52 55 52 53 53 51 54 56 56 55 55 54 54 53 54 56 58 59 60 60 61 64 63 64 64 64 64 65 65 64 64 63 62 62 61 61 60 59 58 58 56
37 34 35 39 44 45 44 43 47 53 50 53 54 53 53 55 55 53 53 53 53 53 53 55 56 57 58 58 58 58 61 62 62 62 62 63 64 64 64 64 63 62 61 60 60 59 58 60 55
34 43 43 41 38 32 43 29 39 48 50 50 52 52 52 52 52 53 53 54 53 53 54 55 56 56 56 55 56 56 56 58 58 58 59 59 62 63 63 63 62 62 61 60 60 59 59 57 58
39 44 43 41 36 33 35 31 36 40 40 48 52 52 50 51 52 53 53 55 54 54 53 53 55 54 54 53 54 53 53 53 53 54 55 56 56 57 59 61 61 60 60 59 59 58 57 58 59
45 42 41 37 34 24 34 33 32 38 42 45 48 47 52 49 50 51 53 54 52 52 53 52 53 52 52 52 51 51 50 50 50 50 50 50 52 53 53 56 58 59 59 59 59 58 58 57 58
42 36 29 26 26 24 32 32 40 43 45 47 48 45 47 48 48 49 50 50 51 50 50 52 52 50 51 50 49 49 49 48 48 48 48 49 50 50 50 52 53 55 57 58 58 58 58 57 58
36 35 26 21 22 24 31 27 36 45 47 48 50 47 46 46 47 48 49 49 49 49 48 49 49 49 49 48 48 47 48 47 46 46 47 46 47 48 48 50 50 51 52 55 55 54 54 53 55
35 34 36 26 23 19 27 32 41 43 44 45 45 46 45 46 47 48 48 48 47 47 47 47 47 46 46 46 45 43 43 44 43 43 43 43 44 49 46 46 46 46 47 48 50 49 50 52 51
40 41 31 25 20 18 24 26 34 37 41 42 43 45 47 48 48 47 47 46 46 46 45 45 45 44 44 44 44 42 41 42 41 41 40 41 42 43 43 43 43 42 43 44 44 44 48 50 47
37 36 36 34 27 22 21 27 37 39 41 42 44 46 49 49 48 45 45 46 46 45 44 44 44 43 42 42 41 40 39 39 39 39 38 39 40 40 40 41 41 40 40 40 40 41 45 45 44
42 39 38 25 25 22 20 27 40 38 40 44 45 49 49 49 47 46 45 44 44 44 43 42 42 42 41 41 39 39 39 38 37 37 37 38 37 38 38 38 38 37 38 37 37 37 40 41 41

GFSSGP_sfc_temp_078.txt.gz
Temp
73 69 64 64 51 46 40 47 49 55 53 60 60 62 60 59 61 57 64 69 73 74 76 77 79 79 79 79 78 78 78 78 78 78 78 78 79 79 79 79 78 78 78 78 77 77 77 77 76
68 70 62 55 45 38 42 48 51 55 58 60 61 60 59 57 63 64 66 72 75 75 75 76 78 79 79 78 78 78 78 78 78 78 78 78 78 78 78 78 78 78 77 76 76 76 76 76 76
70 68 57 49 40 40 44 51 52 58 60 59 58 62 60 59 63 66 67 74 74 74 75 75 78 78 78 78 78 78 78 78 78 78 78 78 78 78 78 78 77 76 76 75 75 76 76 76 75
65 60 56 46 40 48 50 52 56 58 62 60 58 57 62 65 66 68 75 76 73 73 73 76 77 78 78 77 77 78 78 78 77 77 77 78 78 78 78 77 76 75 75 75 75 75 75 75 75
62 55 47 41 44 50 52 57 56 56 58 59 58 56 57 65 67 72 75 74 74 73 73 75 77 77 77 77 77 77 77 77 77 77 77 78 78 78 77 76 75 75 75 75 75 75 75 75 75
52 50 41 41 44 53 55 56 55 55 57 60 59 55 56 63 69 72 73 71 74 74 73 75 75 76 77 77 77 77 77 77 77 77 77 77 77 77 76 75 75 75 75 75 75 75 75 74 74
49 46 41 46 48 52 56 56 54 53 54 57 60 52 56 61 69 70 69 71 71 73 73 73 73 74 74 75 76 76 76 75 75 76 76 76 75 76 76 75 75 75 75 74 74 74 74 74 74
50 48 41 43 50 51 56 57 57 56 53 62 61 55 56 63 69 68 69 69 71 71 73 74 71 72 71 72 73 74 74 74 74 74 73 72 72 73 74 73 74 74 74 74 74 74 74 73 73
55 45 40 44 50 54 56 55 57 60 56 58 61 58 64 66 68 68 68 70 71 72 74 75 71 70 70 70 71 72 72 72 72 70 69 68 67 68 68 69 71 72 73 73 73 73 73 71 69
49 44 44 51 53 53 55 55 53 55 54 56 60 64 64 67 67 68 67 68 69 71 73 74 72 69 69 73 69 68 69 68 67 66 66 66 66 66 68 66 69 71 72 72 73 73 72 68 62
47 45 53 51 52 56 55 55 55 52 51 53 53 59 65 67 66 68 68 69 69 72 72 73 72 68 69 70 68 67 67 66 66 65 65 64 65 64 64 63 64 64 65 63 65 64 64 62 61
44 51 54 52 53 55 53 55 52 50 55 58 59 61 64 64 66 67 67 67 67 68 71 72 69 68 68 68 67 67 66 65 65 64 64 62 61 61 61 61 61 61 62 61 61 61 61 62 61
50 54 55 53 54 54 55 53 50 52 57 59 62 62 61 61 62 66 67 65 65 65 66 67 67 67 68 67 66 66 66 65 65 64 64 62 60 60 60 60 60 61 61 60 60 60 60 60 60
51 55 52 52 54 54 51 51 53 60 59 59 60 61 60 60 61 61 63 64 64 65 66 66 67 67 67 66 66 66 66 66 65 64 64 63 62 61 60 60 60 60 61 61 60 59 60 60 60
54 47 47 48 51 51 53 48 48 57 58 56 57 59 59 60 62 63 63 63 64 65 67 66 67 67 66 66 66 66 66 66 65 65 65 64 63 62 62 60 60 60 60 61 60 59 59 59 60
47 48 40 46 50 51 51 41 51 57 54 54 57 59 59 60 62 63 65 64 65 65 66 67 72 68 66 66 66 65 65 65 65 64 64 65 65 63 61 61 60 61 60 60 59 59 58 58 58
42 37 39 41 51 49 48 44 53 54 53 53 56 59 60 58 60 62 63 64 64 64 65 66 67 67 66 66 65 65 65 64 65 64 63 64 65 65 63 62 62 61 60 59 59 58 58 57 57
37 37 39 37 47 48 45 47 51 52 52 52 55 55 58 59 60 60 62 61 60 61 63 64 66 66 66 65 65 64 64 64 65 64 64 64 65 64 63 62 61 61 59 58 58 59 57 58 58
39 37 36 41 49 47 46 48 49 52 50 49 54 58 55 57 57 56 55 54 57 57 58 60 63 63 64 63 63 62 62 63 63 64 66 65 64 64 62 62 61 60 60 61 59 58 58 58 56
40 36 33 40 48 46 46 47 52 54 51 53 55 58 52 53 52 53 54 51 55 55 55 57 58 59 60 60 62 63 63 63 63 63 64 64 65 64 63 62 61 61 60 59 59 59 57 57 56
36 34 34 36 42 43 44 42 46 52 55 55 56 55 52 53 54 53 51 52 52 54 54 56 56 57 56 57 57 57 59 61 61 62 61 62 63 63 64 64 63 62 60 60 59 58 58 58 55
33 41 42 41 38 33 41 31 39 50 50 51 55 55 53 52 51 52 51 51 51 52 54 55 55 55 55 55 55 55 55 56 56 56 57 57 58 60 61 62 62 62 61 60 59 59 58 57 59
38 43 41 39 34 33 32 30 37 41 42 51 57 53 51 51 51 52 51 52 52 51 51 53 54 54 54 54 54 53 52 51 51 52 53 53 54 55 55 57 59 60 60 59 59 58 57 57 58
46 41 38 35 32 28 32 32 33 39 43 46 49 52 55 51 50 51 51 51 49 50 50 51 52 51 52 52 51 51 50 50 50 50 50 50 51 51 51 53 54 59 60 59 58 58 57 57 58
42 37 24 22 27 25 30 29 39 43 47 48 50 50 49 50 48 49 49 48 49 49 49 50 50 49 49 49 49 49 48 48 48 48 47 48 48 48 48 50 50 53 56 58 59 59 58 58 58
36 36 25 20 21 23 30 26 36 44 48 50 50 49 48 45 45 47 48 47 47 48 47 48 48 47 47 47 46 46 46 46 45 45 45 44 45 46 46 47 47 48 50 54 56 55 54 53 55
35 31 36 29 22 18 27 31 40 42 44 45 45 45 44 45 45 46 46 46 46 46 46 46 46 45 45 44 43 42 42 42 42 42 42 42 42 47 44 44 44 44 45 47 48 50 51 51 50
39 39 30 29 20 19 23 24 31 39 42 43 43 43 43 45 44 44 44 44 44 44 43 44 44 44 42 42 41 41 40 40 40 40 39 40 40 42 42 42 41 42 42 43 44 44 50 49 47
37 35 34 32 27 20 20 27 35 38 42 41 42 43 43 44 45 44 43 43 43 42 42 42 42 42 41 41 39 39 38 38 38 38 38 38 39 39 39 40 39 39 38 39 40 42 46 45 44
43 39 38 30 26 23 19 30 40 40 40 40 41 44 45 46 44 44 43 42 42 42 41 41 40 40 40 39 38 38 38 37 37 36 36 37 37 37 37 37 37 36 36 36 37 38 42 42 41

GFSSGP_sfc_temp_081.txt.gz
Temp
74 73 70 68 59 55 51 55 59 61 63 68 69 70 71 70 70 67 71 75 79 79 81 82 79 79 79 79 78 78 78 78 78 79 79 79 79 79 79 79 79 79 78 78 78 78 78 77 77
72 73 68 61 53 48 52 56 58 62 67 67 68 69 69 67 68 67 71 76 79 80 81 82 78 79 79 78 78 78 78 78 78 79 78 79 79 79 79 78 78 77 77 77 77 77 76 76 76
73 71 63 56 49 48 52 57 60 63 65 66 68 69 68 67 67 70 75 77 80 79 81 81 78 79 78 78 78 78 78 78 78 78 78 78 79 78 78 78 77 76 76 76 76 76 76 75 75
68 66 62 53 48 53 56 58 61 64 68 68 67 66 70 71 70 74 77 78 78 78 81 78 78 78 78 77 77 78 78 78 77 77 77 78 78 78 78 77 76 75 75 75 76 76 75 75 75
66 60 52 48 50 55 58 61 62 62 64 67 67 65 65 70 73 76 77 77 77 77 80 81 77 77 77 77 77 77 77 77 77 77 78 78 78 78 77 76 75 75 75 75 75 75 75 75 75
56 58 49 46 49 56 60 61 62 60 62 65 66 65 65 70 72 75 76 77 78 76 79 80 76 76 77 77 77 77 77 77 77 77 77 78 78 77 76 75 75 75 75 75 75 75 75 75 74
53 51 48 50 50 55 59 62 60 59 61 64 66 63 65 67 71 73 75 77 77 78 78 79 80 77 75 75 76 76 76 76 76 76 76 76 76 75 75 75 75 75 75 75 74 74 74 74 74
54 51 49 49 51 54 58 61 61 60 61 67 67 63 64 68 70 71 73 73 75 76 77 78 79 79 79 79 74 74 74 74 74 74 73 72 72 73 74 73 74 74 74 74 74 74 74 73 73
58 47 46 50 51 55 58 59 61 63 62 63 66 63 66 70 70 70 70 71 72 74 76 77 77 78 78 78 76 73 72 72 72 72 69 71 77 76 75 70 71 73 73 73 73 73 73 71 69
52 46 48 55 57 55 57 57 57 60 60 60 63 67 68 68 68 68 68 68 70 72 74 76 75 76 77 77 77 77 77 77 77 76 76 76 75 75 74 70 69 72 72 72 73 73 72 70 75
52 48 53 52 56 58 57 56 58 58 57 57 57 61 65 65 66 68 69 70 71 73 73 74 74 75 76 77 76 75 76 75 75 75 75 74 74 74 74 74 74 74 69 74 74 74 75 72 73
49 53 55 53 55 56 54 57 56 56 60 61 61 63 64 65 65 68 69 70 71 72 73 74 74 72 75 76 75 75 75 74 74 74 74 74 73 72 72 72 72 72 73 72 72 72 73 72 72
52 53 54 55 55 54 56 53 54 56 60 62 63 63 64 64 65 68 70 72 71 71 72 72 72 72 74 74 74 74 74 74 75 73 73 73 72 72 72 72 71 71 72 71 71 71 72 72 72
55 54 52 54 54 54 53 52 55 57 61 62 62 62 62 64 65 66 68 68 68 70 71 72 71 74 74 74 74 74 74 74 73 73 73 72 73 72 71 71 71 71 71 72 72 72 71 71 71
54 47 49 51 52 51 56 52 51 58 59 59 58 61 62 64 65 65 67 67 69 69 72 71 72 73 73 73 74 74 74 74 73 73 73 73 72 72 71 71 71 72 72 71 71 70 70 70 70
50 47 41 48 51 51 55 46 55 56 57 56 58 60 61 63 65 66 67 68 68 70 71 72 73 72 73 73 74 74 74 74 74 74 74 73 73 72 71 71 71 72 71 70 70 70 69 69 69
45 38 40 42 51 49 50 46 55 55 54 57 58 59 60 62 65 67 68 68 69 69 70 71 72 72 72 72 73 73 73 73 74 74 73 73 73 72 71 71 72 71 71 70 69 70 69 69 70
37 39 42 40 46 47 46 46 53 53 54 56 57 59 59 60 64 67 67 68 68 67 69 71 71 72 72 71 71 70 70 72 71 73 73 72 73 72 71 70 71 70 69 69 68 69 69 69 69
43 43 42 44 50 46 45 47 50 52 52 51 55 57 59 60 64 64 64 64 63 63 66 69 69 70 70 69 68 68 69 69 69 70 72 71 71 70 69 70 69 68 69 69 69 68 66 66 67
42 39 39 45 48 48 46 45 51 51 52 53 54 58 59 59 62 63 62 62 63 62 64 65 67 67 68 69 69 69 69 69 71 70 70 71 71 69 68 68 68 68 67 67 67 65 65 65 64
39 38 39 40 46 48 46 43 46 52 53 54 56 58 61 61 60 61 61 60 59 60 61 62 63 63 64 65 65 65 66 66 67 67 67 68 68 68 68 69 68 67 66 65 66 66 65 64 63
37 44 43 42 40 35 45 34 42 49 48 52 55 60 62 59 58 58 58 58 58 59 58 59 60 60 60 61 62 63 63 63 63 62 63 63 63 63 63 64 65 66 66 65 66 65 64 63 61
40 45 42 41 38 38 38 36 40 46 47 51 55 58 61 60 60 59 58 57 57 57 57 58 58 58 58 59 60 60 60 59 58 59 60 60 60 59 59 60 61 63 63 64 65 64 62 62 63
46 42 40 37 36 29 35 36 37 42 47 50 56 60 62 62 59 59 57 56 55 55 55 56 56 56 57 57 57 57 57 56 57 56 57 57 58 57 56 57 58 60 61 61 62 63 63 62 61
44 37 28 25 27 26 34 32 40 48 49 51 53 54 57 60 56 55 54 53 53 53 53 54 55 53 54 55 54 54 54 54 54 53 53 54 54 53 53 54 55 56 57 58 60 61 60 60 60
38 38 28 21 23 26 33 30 39 48 50 52 53 52 53 51 52 53 54 54 53 52 52 53 53 52 52 52 51 51 52 52 51 50 51 51 51 51 51 51 52 52 54 55 57 57 56 56 55
37 34 38 30 26 24 31 35 43 46 48 49 49 50 50 51 49 52 52 52 51 51 51 52 51 50 50 50 49 49 49 49 48 48 49 48 48 51 49 49 49 49 50 52 54 55 53 54 53
41 41 32 31 22 21 28 29 37 43 45 48 49 49 49 49 48 48 49 49 50 50 50 50 51 49 48 48 48 47 46 46 46 46 45 45 46 46 47 47 47 47 47 49 50 51 52 52 51
37 35 35 34 30 25 24 32 40 42 45 45 46 47 47 47 47 47 48 48 48 48 48 48 48 47 47 47 46 45 44 44 44 44 43 43 44 44 44 44 44 44 45 45 48 50 50 49 48
43 38 39 32 28 25 25 33 45 44 44 43 44 46 47 47 47 48 47 47 46 46 46 47 47 47 46 45 44 44 43 43 42 42 42 42 42 43 42 43 42 42 42 43 44 45 46 45 43

GFSSGP_sfc_temp_084.txt.gz
Temp
79 83 85 78 67 68 64 65 70 69 72 78 78 80 81 82 80 74 82 87 90 89 89 85 79 79 80 79 79 78 78 78 79 79 79 79 79 79 79 79 79 79 79 79 78 78 77 77 77
82 81 80 75 64 59 63 69 67 71 75 77 77 78 79 78 80 76 80 85 89 89 89 88 78 79 79 79 78 78 78 78 79 79 79 79 79 79 78 78 78 77 77 77 77 77 76 76 76
80 80 73 68 65 60 64 68 69 72 76 76 76 79 79 76 77 81 87 87 90 89 90 87 78 79 78 78 78 78 78 78 78 78 78 79 78 79 78 77 77 76 76 76 76 76 76 76 76
78 77 75 64 61 66 66 69 70 72 76 77 78 76 78 79 79 84 87 89 89 90 90 80 78 78 78 77 78 78 78 78 77 77 78 78 78 78 77 76 75 75 75 76 76 75 75 75 75
78 75 64 61 62 66 69 69 70 71 73 75 76 74 74 78 82 84 84 84 88 90 89 86 78 78 77 77 77 78 78 78 77 77 78 78 78 78 76 75 75 75 75 76 76 75 75 75 75
66 72 60 58 61 65 69 70 71 71 73 74 75 76 74 75 77 78 80 82 83 88 86 86 77 76 77 77 77 77 77 77 77 77 78 78 78 77 76 75 75 75 75 75 75 75 75 75 74
63 63 60 63 61 62 66 72 70 69 72 71 74 73 73 72 75 76 78 82 82 88 87 87 86 80 74 75 76 76 76 76 76 77 77 76 76 75 76 75 75 75 75 75 75 75 74 74 74
65 64 61 63 60 62 67 68 69 70 69 74 75 69 70 72 72 74 77 77 80 85 87 88 86 86 84 83 74 74 74 74 75 75 73 72 72 73 74 73 74 74 74 74 74 74 74 73 73
64 51 54 59 61 66 68 67 67 71 71 71 73 71 71 76 72 72 71 73 75 79 84 88 87 86 85 85 80 74 72 72 72 72 70 72 84 82 78 71 72 73 73 73 73 74 73 71 70
56 51 58 68 68 67 67 69 68 68 68 68 71 75 71 71 70 69 70 70 72 76 78 82 86 85 85 84 84 85 83 84 85 84 83 85 84 84 82 73 70 72 72 72 73 73 72 70 83
61 49 61 65 69 70 67 65 67 69 64 66 66 70 70 66 68 69 72 72 74 77 78 78 80 84 84 83 85 86 85 85 85 85 85 85 84 82 82 82 81 81 71 81 78 78 81 80 82
54 61 62 62 63 65 65 67 65 66 67 69 70 73 73 66 67 68 71 74 75 76 77 77 80 82 84 85 84 85 85 84 84 84 84 84 83 82 83 83 82 81 83 82 81 82 82 80 80
57 60 61 59 62 63 64 63 67 65 68 69 71 73 72 70 67 70 75 78 78 75 76 77 77 80 82 82 84 84 84 84 84 83 83 84 82 82 82 82 82 82 82 82 81 81 82 81 81
60 61 61 61 60 62 61 61 62 68 69 69 69 71 73 72 72 70 75 76 75 75 76 77 76 77 81 82 83 84 84 84 83 83 82 82 83 82 80 81 80 81 81 82 82 82 81 81 81
62 55 57 58 61 59 63 58 58 70 69 69 70 71 72 72 73 74 76 74 75 73 76 77 76 76 81 82 82 83 83 84 83 83 83 82 81 80 80 80 80 81 81 81 81 80 80 79 80
56 58 50 58 58 59 60 54 66 69 68 69 71 72 72 72 73 75 76 77 78 77 78 81 79 79 81 82 82 83 84 84 83 84 83 82 82 81 80 80 80 81 81 80 79 79 78 78 79
52 47 50 50 59 58 57 56 65 66 65 67 71 73 73 72 72 76 77 77 78 78 77 77 78 79 81 81 82 83 83 83 84 84 83 82 82 81 80 80 81 81 79 79 78 77 77 77 78
42 48 50 50 54 56 55 56 62 63 62 66 71 74 72 72 72 74 75 77 77 78 77 77 76 79 80 81 80 80 80 82 83 83 83 82 83 81 80 80 80 80 78 77 77 76 78 77 78
53 50 49 53 56 54 54 56 60 64 62 63 67 71 73 72 75 73 74 76 73 71 73 73 74 77 79 78 77 77 76 77 79 80 81 81 80 80 79 79 79 78 76 77 77 77 75 74 76
52 50 48 51 55 54 55 54 60 63 62 64 65 68 72 73 73 72 72 74 74 73 71 71 72 75 75 76 79 79 79 79 80 78 78 79 79 78 76 76 76 75 74 75 75 74 72 72 73
50 49 49 49 53 55 52 51 55 61 63 64 66 66 72 72 71 71 72 71 71 72 71 72 73 74 74 74 74 74 75 74 75 75 75 76 75 75 74 74 73 73 73 72 73 73 70 68 71
44 51 51 49 48 42 53 44 53 59 59 61 64 66 67 69 71 70 70 68 68 69 67 69 69 70 70 70 73 74 75 74 76 74 73 72 70 70 68 66 67 67 68 67 68 69 68 67 67
47 51 51 49 48 46 46 41 53 56 55 59 63 65 65 67 71 67 68 69 68 67 66 68 68 68 68 70 72 73 72 72 70 70 68 69 68 66 65 65 66 67 66 66 66 66 66 67 66
52 49 49 48 47 36 47 44 49 53 57 60 64 67 65 66 70 70 73 71 67 64 63 63 65 65 66 67 68 68 68 67 67 66 66 66 66 65 63 63 65 65 65 65 65 65 64 64 64
50 46 34 33 32 34 44 43 49 59 61 62 62 66 69 67 69 71 68 66 65 62 62 62 63 63 65 65 65 65 65 65 64 63 64 64 64 63 62 61 63 63 62 63 64 64 62 62 61
47 46 37 27 32 38 40 38 51 60 62 64 64 65 62 64 65 66 68 66 64 63 63 63 64 62 63 63 62 63 63 64 63 62 63 62 62 62 59 60 60 60 61 62 62 61 59 60 59
43 37 47 37 36 36 43 46 55 61 60 61 60 60 61 64 62 59 62 63 65 63 63 63 62 61 61 60 60 60 60 59 58 58 59 59 58 58 58 57 57 57 58 59 60 62 59 57 56
46 51 36 36 28 29 38 41 48 54 57 60 61 61 61 61 61 60 59 59 61 62 62 62 63 61 60 59 59 58 57 56 56 57 56 55 56 55 55 55 55 55 55 56 58 58 57 56 53
39 40 42 43 41 34 35 42 56 53 57 57 60 58 57 59 58 58 59 58 58 59 59 60 60 58 58 58 57 56 55 54 55 54 54 53 53 52 53 53 53 53 53 55 57 57 56 55 54
48 45 45 36 34 39 37 42 55 56 56 56 58 57 57 56 57 58 58 57 56 56 57 58 59 58 58 57 56 55 54 53 53 52 51 51 51 51 50 51 51 51 51 52 54 52 52 51 50

GFSSGP_sfc_temp_087.txt.gz
Temp
79 86 87 79 64 69 64 69 78 74 76 84 84 83 79 83 80 69 89 94 92 90 87 84 79 79 80 79 79 78 78 78 79 79 79 79 79 79 79 79 79 79 79 78 79 78 77 77 77
86 85 82 76 62 59 64 75 69 77 82 82 83 81 80 79 84 81 85 93 93 91 87 87 78 79 79 79 78 78 78 78 78 79 79 79 79 79 78 78 78 78 78 78 77 77 76 76 76
83 86 74 68 64 61 65 74 75 77 80 80 81 85 85 78 84 85 92 93 93 91 89 87 78 79 78 78 78 78 78 78 78 78 78 79 79 78 77 77 76 76 76 76 76 76 76 76 76
80 78 77 64 62 69 72 75 76 76 79 83 84 79 82 84 85 90 91 93 93 92 93 79 78 78 78 77 78 78 78 78 77 77 78 78 78 77 76 76 75 75 76 76 76 75 75 75 75
80 76 64 62 65 72 75 76 75 76 78 80 81 78 77 81 86 90 90 92 92 93 89 84 77 77 77 77 77 78 78 77 77 77 78 78 78 77 76 75 75 75 75 76 75 75 75 75 75
66 71 58 59 65 72 74 76 75 76 78 79 78 80 74 81 83 87 90 92 94 92 86 85 76 76 77 77 77 77 77 77 77 77 78 78 77 76 76 75 75 75 75 75 75 75 75 75 74
62 64 61 64 64 66 70 77 74 73 77 75 80 77 74 73 76 79 81 87 93 90 85 84 84 79 75 75 76 76 76 76 76 77 77 76 75 75 75 75 75 75 75 75 75 75 74 74 74
67 64 62 66 62 63 73 73 74 74 70 78 79 75 69 73 74 76 79 80 90 88 83 84 84 84 83 81 74 74 75 75 75 75 73 72 72 73 74 74 74 74 74 74 74 74 74 73 73
67 55 56 64 64 66 73 69 72 75 73 74 77 76 75 78 74 72 73 75 84 88 83 84 84 84 84 83 78 74 73 73 72 72 70 71 82 79 77 71 72 73 74 74 74 74 73 72 71
56 54 60 72 73 68 71 73 71 72 71 70 73 78 74 73 71 69 70 71 74 81 80 86 83 83 82 82 82 84 82 82 83 83 80 85 86 84 83 73 71 73 72 73 73 73 72 71 81
61 54 67 66 64 71 69 72 74 73 68 70 68 73 70 69 70 70 71 74 74 81 83 80 79 83 82 81 84 87 85 86 87 86 86 87 86 82 82 80 78 78 70 78 75 75 78 81 82
55 63 60 66 62 68 67 73 70 74 71 74 74 75 73 67 68 67 74 74 77 75 80 77 83 81 83 83 82 88 87 86 86 86 86 86 84 83 84 84 83 82 83 82 82 82 82 81 81
57 56 64 64 66 69 71 68 71 70 72 74 75 76 75 71 70 70 72 77 78 77 81 80 83 82 82 82 84 88 87 86 86 85 86 86 84 83 83 83 83 83 83 82 82 81 82 82 82
63 56 62 61 64 67 65 67 66 73 74 73 72 74 75 74 75 70 72 74 76 76 76 79 80 80 85 82 80 85 87 86 86 85 84 84 84 83 82 82 82 82 82 83 82 82 81 81 82
65 55 58 61 61 62 67 61 60 74 74 73 72 73 75 75 76 76 77 77 77 76 77 78 78 79 80 81 81 81 82 83 85 85 85 84 83 82 82 82 81 82 83 82 82 82 81 80 81
59 58 48 57 62 64 63 55 67 73 72 71 74 76 75 75 76 77 78 80 82 80 78 79 78 77 79 81 80 82 81 85 86 86 86 84 84 83 82 81 81 83 82 81 80 80 79 79 79
55 49 51 54 64 63 60 57 68 74 70 70 73 77 76 76 76 78 79 80 82 82 81 80 78 79 79 80 80 81 81 83 86 86 86 84 84 83 82 82 82 83 81 80 79 79 78 77 78
46 51 55 54 58 60 57 58 68 69 66 68 72 75 77 77 76 77 76 79 81 82 80 80 80 81 82 79 79 77 78 81 80 84 85 85 84 83 82 82 82 82 80 79 79 78 78 77 76
56 54 55 59 61 57 56 58 63 68 67 65 70 74 76 78 79 77 76 77 79 78 80 79 79 79 79 77 76 74 75 76 80 82 83 84 83 83 81 80 81 81 79 79 79 78 75 75 76
54 53 52 55 59 57 58 57 63 67 67 68 69 71 74 78 79 75 74 75 76 75 76 78 78 77 77 78 79 78 76 76 78 78 79 80 81 80 79 78 78 78 77 76 76 76 73 73 74
53 52 50 51 55 58 56 53 58 65 68 69 70 71 73 73 79 78 74 74 75 75 75 74 76 77 77 77 74 71 71 72 75 76 77 78 78 77 75 74 73 72 72 72 73 73 71 68 70
47 57 56 52 49 44 56 44 58 63 63 65 68 70 71 72 77 79 75 73 71 73 73 74 74 75 73 70 70 69 69 70 73 74 76 74 73 73 71 69 68 68 68 67 67 67 66 66 64
50 56 53 52 48 48 49 43 54 63 59 63 67 69 71 72 74 76 74 72 71 70 68 71 72 72 71 71 72 72 71 73 70 72 71 71 70 68 67 67 68 68 68 67 66 66 66 67 65
56 52 52 51 47 34 48 46 49 57 60 64 69 71 72 72 73 75 74 73 71 69 67 68 68 69 69 69 71 71 71 70 68 68 68 68 68 67 65 65 65 66 66 66 65 65 65 64 64
52 48 35 32 31 34 50 47 51 62 65 66 66 69 72 74 73 72 72 72 72 66 65 65 65 65 68 68 69 69 68 68 67 66 66 66 66 65 64 62 63 64 64 64 65 65 65 64 63
48 48 38 30 34 40 47 40 50 64 67 70 69 69 68 70 73 71 71 73 70 66 63 64 66 65 66 66 66 67 67 66 65 65 64 64 64 63 61 61 61 62 62 62 63 63 61 60 59
45 41 53 40 43 38 45 50 58 63 63 64 65 65 66 68 68 68 66 65 70 66 65 65 66 64 65 65 64 64 64 63 62 61 62 61 60 60 60 59 59 59 59 60 60 62 60 57 55
45 53 38 38 29 30 42 44 48 56 59 63 64 64 66 67 67 68 65 62 67 67 66 66 66 64 64 63 64 62 61 60 60 60 59 58 58 57 57 57 57 57 57 58 58 59 58 57 55
43 41 44 45 44 35 36 43 58 58 61 59 62 62 62 63 65 66 65 63 64 65 64 63 64 63 62 62 61 60 58 58 58 57 56 55 55 55 55 55 55 55 55 56 57 58 57 57 55
49 45 46 37 36 41 40 41 60 60 60 60 61 61 62 61 62 63 64 62 61 60 60 62 62 61 61 61 60 59 57 57 56 55 54 55 54 54 52 53 53 53 52 53 55 55 54 54 52

GFSSGP_sfc_temp_090.txt.gz
Temp
76 79 78 71 55 55 53 59 70 71 71 73 77 70 71 73 67 59 82 84 82 79 80 79 79 79 80 79 79 78 78 78 78 79 79 79 79 79 79 79 79 79 79 79 78 78 77 77 77
78 81 73 65 53 48 54 67 63 67 73 77 75 74 72 67 77 77 78 85 84 82 80 79 78 79 79 78 78 78 78 78 78 78 79 79 79 78 78 79 78 78 78 77 77 77 76 76 76
76 80 64 58 54 51 56 67 67 72 75 72 74 71 72 72 80 79 85 87 85 81 82 80 78 79 78 78 78 78 78 78 78 78 78 78 78 78 77 77 77 76 76 76 76 76 76 76 76
72 71 67 56 53 61 65 70 72 71 72 76 76 69 74 79 78 83 87 87 83 82 81 76 77 78 77 77 77 78 78 77 77 77 78 78 77 77 76 76 76 75 75 76 76 75 75 75 75
73 68 55 53 56 65 69 71 70 70 72 72 73 67 68 77 81 84 86 88 84 82 78 77 77 77 77 77 77 77 77 77 77 77 78 77 77 76 76 75 75 75 75 75 75 75 75 75 75
57 64 51 51 57 67 68 70 67 69 72 71 71 67 66 74 77 81 84 85 86 79 79 78 75 76 77 77 77 77 77 77 77 77 77 77 76 76 75 75 75 75 75 75 75 75 75 75 74
55 54 52 56 58 63 66 71 67 67 70 68 73 64 67 68 72 77 82 86 83 82 78 77 76 75 75 75 76 76 76 76 76 76 76 76 75 75 75 75 75 75 75 75 74 74 74 74 74
59 55 52 58 59 59 68 69 71 67 64 74 74 63 63 68 73 74 76 80 82 81 80 77 76 76 75 73 74 74 74 74 75 74 73 72 72 73 74 73 74 74 74 74 74 74 74 73 73
63 49 48 55 59 61 70 64 69 71 68 70 71 67 71 72 72 71 70 73 78 78 79 78 77 77 77 74 73 72 73 73 72 71 70 69 71 71 70 70 71 73 73 74 74 73 72 71 71
54 48 53 64 60 62 68 67 67 67 65 66 68 70 72 70 69 68 67 68 72 74 77 79 79 79 79 79 72 72 73 71 72 73 69 73 73 71 74 69 70 72 72 72 73 73 71 70 68
55 50 61 64 62 61 64 68 70 66 62 66 64 65 67 68 68 68 70 70 69 77 77 77 77 80 78 78 74 77 73 74 75 74 73 73 74 71 70 66 67 66 67 67 69 68 67 67 68
48 57 59 62 62 61 62 69 65 66 64 70 70 69 68 68 67 68 69 71 70 73 74 75 76 76 77 78 75 80 75 75 75 75 76 74 71 71 70 70 69 68 67 67 66 67 68 71 71
49 52 60 59 62 61 64 63 66 63 68 71 73 71 67 67 68 68 70 72 73 71 74 74 76 75 76 78 75 79 76 75 75 75 76 74 72 71 71 71 71 70 70 70 69 70 70 70 70
54 53 54 57 62 63 62 63 63 65 68 67 70 69 69 68 69 68 69 71 71 74 75 75 75 76 76 75 75 78 77 76 76 74 74 76 73 72 71 71 70 70 70 71 71 70 70 69 70
56 48 52 53 58 61 64 57 57 64 68 66 66 67 69 69 70 69 69 71 72 71 72 71 76 78 75 77 74 77 73 79 77 75 76 75 74 73 71 70 70 70 71 72 71 71 70 69 71
51 49 42 52 58 60 59 48 61 67 64 63 64 65 67 69 71 70 72 74 74 71 72 73 74 75 76 76 75 76 76 77 77 75 75 76 75 74 71 70 70 71 71 70 69 69 67 67 67
50 41 41 46 54 57 55 49 62 68 65 62 63 65 66 66 69 71 71 72 75 76 73 73 72 74 74 73 73 73 77 77 78 78 77 76 76 75 72 71 71 72 70 69 69 68 67 66 66
41 44 49 46 51 55 50 51 59 66 63 57 59 63 65 67 67 70 71 72 74 74 74 72 72 72 73 72 71 71 72 75 76 76 77 77 76 76 73 72 72 74 71 69 68 67 67 67 66
52 49 48 53 56 52 53 54 56 62 60 57 59 61 64 67 69 69 69 70 71 72 72 71 71 72 70 68 67 66 67 68 71 74 77 78 77 77 75 72 73 71 70 71 69 71 69 66 66
48 47 46 51 55 51 52 51 57 60 61 60 60 60 63 66 66 65 66 67 68 68 69 71 72 70 69 71 70 67 68 67 68 70 71 72 71 73 71 71 71 73 71 68 67 67 66 66 65
48 45 46 46 52 51 47 45 51 59 61 62 63 63 64 64 63 64 63 64 66 66 67 69 69 70 70 71 67 65 66 67 67 67 68 69 72 71 69 68 68 68 67 67 68 67 66 64 66
43 54 49 47 44 35 49 32 46 54 56 60 59 59 61 62 65 65 64 62 63 65 66 67 68 68 68 66 64 65 64 63 64 66 67 65 67 66 66 66 66 66 65 65 65 65 65 64 62
47 54 50 48 43 40 43 34 42 51 52 56 59 60 61 62 64 64 65 63 62 61 60 63 66 66 64 64 65 64 64 63 62 62 64 65 63 63 62 61 61 61 62 64 64 63 64 64 63
55 48 48 45 41 27 38 38 37 45 51 54 58 61 63 62 63 64 64 63 60 58 59 60 62 64 64 63 63 63 63 61 61 60 60 60 61 59 59 60 59 59 59 59 59 60 61 62 61
48 41 29 26 28 24 44 39 42 51 56 55 57 55 59 62 62 63 61 60 59 56 56 58 60 59 60 61 61 63 61 61 60 59 58 57 58 57 56 57 57 56 57 58 58 58 59 60 60
42 41 31 25 25 29 44 32 41 55 57 58 61 58 58 59 59 61 61 61 59 57 58 57 57 58 60 59 59 59 59 58 58 58 57 56 56 55 56 55 55 55 56 55 56 58 59 56 57
40 34 46 33 36 26 35 41 50 55 54 54 54 56 55 55 57 56 59 60 58 58 59 59 60 59 59 58 58 58 57 57 54 55 56 55 53 56 54 54 53 53 53 54 54 53 57 55 54
42 46 34 30 19 23 31 35 39 46 51 54 52 52 54 55 55 56 57 57 57 58 60 60 58 58 58 58 57 57 56 55 54 54 52 51 52 51 51 51 51 51 51 51 51 51 56 55 53
39 37 38 39 34 23 24 33 45 48 50 51 51 53 53 54 55 55 55 56 57 56 58 60 59 58 56 57 55 54 53 53 53 50 50 50 50 50 49 49 49 49 49 49 49 50 51 51 53
47 42 40 31 31 32 27 32 50 51 52 54 53 55 54 53 53 54 54 53 53 53 53 56 56 56 56 56 55 53 52 52 50 49 49 49 48 47 46 47 47 47 47 46 46 47 48 47 46

GFSSGP_sfc_temp_093.txt.gz
Temp
74 73 69 66 54 48 44 54 64 68 68 67 75 68 64 66 65 57 75 76 76 75 78 78 79 79 79 79 79 79 78 78 78 79 79 79 79 79 79 79 80 80 78 78 78 78 77 77 77
72 74 66 60 50 40 45 59 60 68 68 70 74 69 65 63 73 70 70 76 77 77 77 78 78 79 79 78 78 78 78 78 78 78 78 78 79 79 79 79 79 78 77 77 77 76 76 76 76
73 73 58 51 49 42 48 62 64 66 71 73 69 73 66 66 75 73 77 78 77 76 77 78 78 78 78 78 77 77 78 78 78 78 78 78 78 78 78 77 77 76 76 76 76 76 76 75 76
65 61 59 47 46 53 57 62 68 67 71 75 71 65 69 73 74 79 80 79 76 76 76 76 77 78 77 77 77 77 77 78 77 77 77 77 77 77 76 76 76 75 75 76 76 75 75 75 75
60 55 47 44 48 57 63 67 63 64 68 72 72 65 63 73 77 81 80 79 76 74 75 76 77 77 77 77 77 77 77 77 77 77 77 77 77 76 76 75 75 75 75 75 76 75 75 75 75
53 55 45 42 48 60 65 67 63 63 66 68 66 64 63 70 71 79 80 78 76 74 75 77 75 76 76 77 76 76 76 77 77 77 77 76 76 76 75 75 75 75 75 75 75 75 75 74 74
50 48 43 45 50 58 63 68 64 64 63 64 67 60 65 68 70 74 80 77 76 75 74 74 74 74 74 75 75 75 76 75 76 76 76 75 75 75 75 75 75 75 75 75 74 74 74 74 74
54 50 46 46 50 55 63 65 66 65 62 70 68 59 59 66 70 74 77 76 75 74 73 72 72 73 72 73 73 73 73 74 74 74 72 71 71 72 73 73 74 74 74 74 74 74 74 73 73
58 46 44 48 53 56 62 61 66 69 66 66 63 64 69 71 72 71 72 72 73 74 73 72 72 72 71 71 72 72 72 72 71 70 69 69 69 70 70 70 71 73 73 73 73 73 72 71 71
52 45 49 56 57 59 62 63 64 63 63 61 62 68 68 69 69 68 68 68 70 71 72 73 73 72 72 75 69 68 70 69 69 69 69 68 68 68 71 68 70 72 72 72 73 73 71 70 65
53 48 55 56 61 64 62 62 66 62 58 62 59 62 65 66 67 66 68 69 71 72 74 73 73 75 73 72 69 67 67 67 68 68 68 69 70 67 66 65 66 65 66 66 68 67 66 64 64
49 54 55 57 58 62 59 64 61 61 61 67 65 66 67 66 67 66 66 69 71 71 73 73 75 75 76 73 71 71 70 69 68 69 70 68 66 67 65 64 64 64 64 63 64 63 64 65 66
48 52 56 56 57 59 62 58 60 58 64 67 67 67 66 68 68 69 68 69 72 70 71 73 74 75 75 76 72 72 70 72 72 71 70 70 68 67 66 65 64 64 64 63 63 63 64 65 67
51 52 52 55 56 57 58 58 57 60 63 65 66 64 64 66 68 67 67 68 68 70 70 72 72 73 74 74 71 74 74 73 72 71 71 72 69 68 68 67 66 65 66 67 66 66 66 66 66
55 46 50 53 54 54 58 53 52 61 63 62 63 63 64 66 67 68 69 70 70 70 71 70 71 73 71 72 72 75 74 76 71 72 73 73 71 69 69 68 67 67 67 69 67 67 66 66 67
48 48 41 50 53 55 52 46 55 64 59 58 59 60 63 65 67 68 69 71 70 71 71 72 74 74 74 72 72 73 74 76 75 77 72 74 73 71 69 68 67 68 68 67 66 66 65 64 64
46 38 39 44 52 51 52 46 58 64 60 58 57 58 61 63 65 67 69 69 70 71 71 71 71 73 74 72 72 72 75 75 74 75 75 72 73 73 70 69 69 69 67 67 67 66 64 63 63
39 40 41 40 48 50 48 47 55 59 59 57 57 57 58 61 63 67 68 69 71 71 70 70 70 73 74 72 69 69 71 73 74 74 76 76 73 72 70 69 69 72 70 67 66 66 65 64 64
47 46 45 48 51 48 47 49 54 58 54 55 55 58 59 60 64 66 68 69 69 68 69 69 69 69 69 68 70 66 70 69 71 73 75 76 75 74 72 69 70 70 70 69 71 68 69 67 67
46 44 44 46 53 49 47 47 55 58 55 55 56 56 58 59 60 62 64 65 67 68 68 69 70 70 69 70 69 67 68 66 66 67 68 68 69 69 71 71 70 70 70 69 68 68 66 66 66
43 41 43 42 49 48 45 40 48 57 55 57 58 59 60 60 59 58 59 62 64 65 65 67 69 69 70 69 66 64 64 65 65 66 66 66 67 66 66 66 67 67 67 67 67 67 66 64 65
39 50 49 46 41 33 46 28 39 51 51 55 55 55 58 59 58 61 59 58 58 64 64 66 66 68 68 66 65 64 64 64 64 65 66 65 66 64 64 64 64 65 65 65 64 65 64 63 62
45 50 47 45 41 36 38 32 37 44 46 52 52 53 56 60 61 61 61 62 60 59 60 61 63 64 63 65 66 64 63 63 62 62 63 62 62 63 62 62 61 60 60 61 62 62 62 63 62
51 47 45 45 39 25 34 34 33 40 47 49 53 57 58 58 60 60 62 60 58 56 57 58 60 60 61 60 61 63 62 60 59 58 57 59 58 59 59 59 58 58 57 57 57 58 58 58 59
45 39 28 22 21 22 37 33 39 47 51 52 53 53 54 56 58 57 55 56 55 55 55 56 58 57 58 58 58 59 60 58 59 57 57 57 56 55 55 56 55 55 56 56 56 56 56 56 56
40 38 27 23 21 25 39 29 38 50 53 53 56 55 55 55 55 56 58 57 55 55 54 55 55 55 57 57 56 57 59 58 57 58 58 56 54 54 55 54 55 55 55 54 54 54 55 56 55
38 32 42 30 30 22 30 36 46 50 52 51 54 54 53 54 55 54 54 55 54 54 53 54 54 54 55 55 54 53 54 56 55 52 52 53 52 54 54 53 52 51 52 52 52 51 53 53 53
42 44 33 31 25 22 27 31 36 41 48 51 48 47 50 53 54 54 54 53 53 53 53 54 55 55 54 54 56 55 52 52 52 51 50 51 50 51 52 51 50 49 50 50 49 49 51 52 51
37 35 37 35 32 23 24 30 43 43 47 47 48 49 49 50 51 52 52 53 52 52 52 53 55 56 55 56 54 52 52 51 49 49 50 50 50 50 49 48 48 48 47 47 46 47 49 49 50
45 39 39 26 27 28 25 31 47 46 47 49 49 51 50 51 51 50 50 50 49 50 51 52 52 56 56 54 53 51 52 49 49 49 49 49 48 47 47 46 46 46 45 43 43 44 45 46 45

GFSSGP_sfc_temp_096.txt.gz
Temp
76 73 67 62 53 45 44 52 63 63 64 63 68 66 66 63 62 55 71 74 75 75 77 78 78 79 79 79 78 78 78 78 78 79 79 79 80 79 80 79 79 78 78 78 78 78 78 78 77
70 72 63 56 47 38 44 56 61 61 69 66 68 65 64 62 67 67 69 74 76 76 77 77 78 79 79 79 78 77 78 78 78 78 79 79 79 79 79 79 78 78 77 77 77 77 76 76 76
71 70 55 49 43 44 45 59 61 69 71 68 64 67 66 66 70 69 74 76 76 75 76 77 78 78 78 78 78 77 77 78 77 77 78 78 78 79 79 77 77 76 76 76 76 76 76 76 76
65 58 55 46 43 50 54 60 67 66 72 72 68 61 69 72 73 73 75 76 74 73 75 76 77 78 77 77 77 77 77 77 77 77 77 77 78 78 77 76 76 75 75 76 75 75 75 75 75
60 53 47 42 45 54 61 65 64 66 69 71 69 62 63 71 75 75 74 75 72 72 74 76 77 77 77 77 77 77 77 77 77 77 77 77 77 76 76 75 75 75 75 75 75 75 75 75 75
53 53 42 40 45 56 63 67 64 64 66 66 67 64 62 68 72 73 75 73 74 73 74 76 75 76 76 76 76 76 76 77 77 76 76 76 76 76 75 75 75 75 75 75 75 75 75 75 75
51 49 44 42 46 52 63 67 61 62 61 62 65 64 63 67 68 72 75 73 74 74 73 74 74 74 74 75 75 75 76 75 76 76 76 75 75 75 75 75 75 75 75 75 74 74 74 74 74
54 51 45 44 48 53 61 64 63 62 58 67 68 59 60 66 69 71 73 73 72 72 72 71 72 73 72 71 73 73 73 74 74 74 72 71 71 72 74 73 74 74 74 74 74 74 74 73 73
58 47 42 47 53 55 60 62 65 66 62 61 64 65 68 70 70 71 69 71 71 72 71 71 71 71 70 70 71 71 72 72 71 71 69 68 68 68 69 69 71 73 73 73 73 73 73 71 70
51 45 47 54 57 55 60 63 63 62 59 58 61 66 69 69 71 67 68 67 69 70 71 71 70 70 70 74 68 68 70 69 69 69 68 67 67 67 69 67 69 72 72 72 73 73 71 69 64
52 46 52 53 57 60 59 59 64 60 58 60 60 62 65 65 67 68 67 68 69 71 72 70 70 70 70 69 66 66 67 67 67 68 67 67 68 66 66 64 65 65 66 65 67 66 64 63 63
48 53 54 54 57 59 58 61 57 59 60 65 64 66 65 64 64 67 67 69 68 69 70 71 71 70 69 69 67 65 66 66 66 67 68 66 65 64 64 63 64 63 63 62 62 62 63 63 63
48 50 54 55 57 56 61 55 54 57 62 64 65 66 65 64 63 65 69 70 70 69 70 71 72 71 70 70 68 68 66 67 67 67 68 68 65 65 64 63 63 62 62 62 61 61 62 62 63
50 49 51 54 54 57 57 55 58 58 60 62 63 62 64 65 65 64 66 69 70 70 70 72 72 72 72 71 70 70 69 69 68 67 68 68 68 66 65 63 63 62 62 62 62 62 62 63 63
51 46 48 51 52 52 56 54 52 57 59 60 60 60 63 65 67 65 66 68 70 70 70 70 73 73 72 72 70 72 72 72 70 70 69 69 68 66 66 65 64 64 64 65 64 64 64 63 64
46 46 39 48 50 53 54 47 53 57 55 55 57 57 60 64 66 66 68 69 69 69 69 71 74 72 72 72 69 72 71 72 71 72 71 70 70 69 67 66 65 66 66 65 65 64 63 63 63
45 35 39 43 50 50 50 45 55 58 56 54 54 56 59 60 63 65 67 69 69 69 70 70 71 71 71 70 69 69 72 72 74 74 73 73 71 70 68 67 67 67 66 65 65 64 63 62 62
36 36 38 41 46 49 47 47 53 56 57 56 54 54 56 59 62 64 65 66 68 68 70 71 70 70 71 71 70 68 69 73 72 74 74 74 73 70 68 67 67 67 65 65 64 64 63 63 64
45 42 42 45 50 47 46 46 51 53 54 55 53 53 54 58 63 63 64 66 64 65 65 68 68 69 70 69 69 67 65 68 70 72 73 74 74 72 69 68 68 69 70 70 69 68 67 66 66
43 42 40 45 50 46 47 45 52 53 54 56 53 54 55 56 59 62 62 62 64 67 67 67 68 67 68 68 68 68 66 67 69 68 69 70 71 70 70 68 68 69 68 68 66 66 65 66 66
40 39 40 42 47 47 45 42 47 53 57 56 55 56 57 58 57 58 60 61 62 63 65 67 68 67 69 68 65 64 65 65 64 64 65 66 66 67 67 66 66 66 66 66 66 65 64 64 65
36 47 48 45 41 34 45 30 38 45 52 54 54 53 55 56 56 58 60 58 60 62 64 68 68 68 68 67 65 66 67 65 65 65 64 64 65 65 65 65 66 65 64 64 64 65 64 63 62
41 48 45 44 39 38 37 34 36 41 44 51 50 52 55 56 56 58 59 62 60 59 59 61 63 64 64 65 66 64 62 63 62 62 63 61 60 62 62 62 62 62 62 62 61 60 60 60 61
49 45 44 42 36 29 35 36 35 38 44 50 52 54 57 59 56 57 59 60 57 56 57 58 60 61 62 62 62 62 62 61 59 58 59 57 58 58 59 60 58 59 59 59 58 57 57 57 57
46 39 29 27 27 27 34 33 39 45 47 50 51 52 53 55 56 55 56 55 54 55 55 56 58 58 58 59 59 60 60 59 59 58 58 57 56 56 57 57 57 56 56 56 56 56 56 56 55
39 36 28 22 23 26 36 28 38 49 52 52 54 50 52 53 52 53 55 55 55 55 54 55 55 55 55 55 55 56 57 56 56 56 57 56 56 55 55 53 53 55 54 54 54 54 54 54 54
37 33 42 30 27 22 30 36 45 49 47 46 49 50 47 48 52 53 53 53 54 53 54 55 54 54 54 53 53 52 53 54 53 53 56 55 55 54 54 53 52 52 51 51 51 51 51 53 53
40 44 33 31 24 22 25 28 36 40 45 47 46 46 46 48 49 50 50 51 51 51 51 52 53 53 52 52 51 51 51 51 50 52 50 49 49 51 51 50 50 50 50 49 49 48 49 50 50
37 34 36 36 34 24 24 28 40 43 46 46 46 47 47 47 48 49 49 50 51 50 50 51 52 52 51 52 52 50 51 52 50 48 48 50 49 48 49 49 49 48 48 47 46 46 47 48 48
41 39 40 30 26 27 25 31 45 42 46 47 46 48 47 48 48 48 48 49 48 49 49 50 50 51 52 54 53 50 51 51 51 48 48 50 49 49 48 48 47 46 46 46 45 45 45 45 45

GFSSGP_sfc_temp_099.txt.gz
Temp
74 72 65 62 50 44 40 50 60 58 59 62 63 66 65 62 62 55 70 74 74 74 76 77 78 78 79 78 78 77 77 78 78 78 78 78 79 79 79 79 78 78 78 78 78 78 78 77 77
69 68 61 55 46 36 41 54 58 62 66 66 69 65 62 61 64 67 69 73 75 75 76 76 78 78 78 78 77 77 78 78 78 78 79 79 79 79 79 78 78 78 78 77 77 77 76 76 76
69 70 55 47 41 43 43 56 60 67 68 67 66 64 63 61 68 69 72 75 75 74 75 76 78 78 78 78 77 77 77 77 78 78 78 79 79 78 78 77 77 76 76 76 76 76 76 76 76
63 58 55 45 40 47 52 60 64 65 67 69 67 61 64 68 68 70 75 75 73 72 74 76 77 78 78 77 77 77 77 77 77 77 77 78 79 78 77 76 75 75 75 75 76 75 75 75 76
59 54 47 43 44 48 54 64 65 63 64 65 66 62 62 67 73 74 74 74 72 71 73 75 77 77 77 77 77 77 77 77 76 77 77 78 78 77 76 75 75 75 75 75 75 75 75 75 75
52 53 44 41 43 52 58 65 64 65 65 65 64 61 62 68 71 73 74 72 73 72 73 75 75 76 76 76 76 76 76 76 76 76 76 77 76 76 75 75 75 75 75 75 75 75 75 75 75
51 49 42 44 45 49 57 67 62 62 63 65 69 60 63 66 70 72 72 72 73 73 72 73 73 74 74 75 75 75 76 75 75 75 75 75 74 75 75 75 75 75 75 75 74 74 74 75 75
52 49 45 44 46 49 59 61 64 63 59 66 67 58 60 65 68 71 70 70 70 70 71 71 71 72 70 71 73 73 74 74 74 73 72 71 71 72 74 73 74 74 74 74 74 74 74 73 73
57 45 43 44 51 54 58 59 64 64 62 62 63 64 69 68 69 68 68 69 71 72 72 71 72 71 69 69 70 71 72 72 71 70 69 68 66 67 68 69 71 72 73 73 73 73 73 71 70
49 44 46 50 53 54 58 60 62 60 59 58 63 66 67 68 68 67 66 67 68 69 70 72 72 70 68 72 68 67 70 70 69 68 67 66 66 65 67 66 69 71 71 72 72 72 71 68 62
50 46 52 51 56 58 58 58 62 60 56 60 61 64 66 66 67 67 67 68 69 70 70 70 70 69 68 68 66 66 67 68 68 67 66 66 66 65 64 64 64 64 65 64 66 65 63 62 62
43 51 53 53 57 57 55 57 56 59 61 65 66 66 66 66 66 66 66 64 66 69 71 70 70 69 68 68 66 66 66 66 68 67 66 65 64 63 63 63 63 62 62 61 61 61 61 61 62
42 47 53 55 56 56 58 54 54 55 60 63 64 65 65 66 67 66 67 67 68 68 71 70 70 69 68 67 66 66 66 66 66 67 67 65 64 63 63 62 62 62 61 61 60 60 61 61 61
47 49 50 54 53 55 52 55 55 56 60 61 62 62 62 63 64 65 68 68 68 69 70 71 70 70 70 68 67 67 67 66 66 66 67 66 65 64 63 63 62 62 61 61 61 61 61 61 61
50 43 48 50 52 51 52 52 50 53 59 58 60 60 61 62 64 66 67 70 68 69 70 70 71 72 70 69 68 68 69 68 66 67 67 67 66 64 64 63 62 62 62 62 61 61 61 61 63
45 42 36 48 51 53 52 43 52 54 55 54 55 53 59 62 65 64 65 66 69 70 70 71 73 72 71 70 69 70 70 69 68 68 68 68 68 66 64 63 63 64 63 62 62 62 61 61 61
43 35 35 41 50 49 49 45 52 56 53 52 53 53 56 59 60 64 65 66 67 68 68 68 70 71 71 68 67 68 70 70 71 69 68 69 69 68 66 65 65 65 63 63 63 62 62 61 61
33 36 39 38 46 47 45 46 51 53 53 50 51 51 52 56 60 63 65 65 67 67 67 67 68 70 71 68 67 66 68 69 69 70 70 71 71 70 67 66 66 65 64 63 63 63 62 62 63
42 41 40 44 48 45 43 44 49 53 51 49 51 52 54 55 59 61 61 62 63 65 66 66 66 67 68 66 66 66 66 66 66 68 73 74 73 72 69 66 66 66 65 67 67 67 67 66 66
41 39 37 45 48 46 44 44 48 50 50 50 51 52 53 54 57 59 60 60 62 63 65 65 67 66 69 69 67 67 66 66 67 67 68 71 70 70 69 67 66 66 67 68 66 65 63 64 63
38 35 36 41 45 46 44 41 44 49 54 53 55 53 54 56 58 58 58 59 59 61 63 66 67 67 68 66 65 63 64 64 63 64 65 67 69 68 67 66 65 65 65 64 65 65 63 62 63
35 45 45 42 39 32 44 32 37 48 49 52 54 51 52 53 54 58 58 57 58 60 63 64 66 66 67 65 64 64 66 64 66 64 64 64 65 65 65 65 65 65 65 64 64 64 63 63 61
40 47 45 42 39 36 37 31 38 43 43 49 53 51 51 54 55 56 58 59 59 59 59 61 63 64 63 63 64 63 63 63 62 61 62 63 62 63 62 62 62 62 62 62 62 62 61 61 60
46 41 40 39 37 30 34 34 34 37 44 46 51 53 54 57 56 55 56 57 56 55 57 59 61 61 62 62 62 62 62 60 59 59 60 58 58 59 60 60 60 60 59 59 59 58 58 58 57
42 35 29 26 28 24 33 34 36 45 45 48 51 53 54 57 57 54 54 54 54 54 55 56 58 59 60 60 61 61 60 59 59 59 58 56 56 57 58 57 57 57 57 57 57 56 55 56 55
36 35 26 21 23 25 35 30 36 48 49 50 51 51 51 51 50 52 54 55 53 54 54 54 55 57 57 57 59 59 59 58 57 56 56 56 56 56 56 55 54 56 55 55 53 53 53 54 54
36 29 38 31 25 21 30 34 43 48 49 47 47 49 49 47 50 51 52 53 54 52 53 53 53 53 53 53 53 53 53 53 53 53 54 54 54 54 54 53 53 52 52 51 51 51 50 51 52
39 41 31 30 23 20 25 27 33 41 46 46 45 47 47 49 49 49 48 50 50 50 50 51 52 52 51 52 51 51 51 51 51 51 50 50 51 51 50 49 49 50 49 48 48 47 49 49 50
35 32 35 35 32 21 22 27 38 42 45 47 48 46 45 47 49 47 47 48 48 48 49 50 50 51 50 50 49 48 48 48 49 48 48 48 48 49 47 47 47 47 47 46 46 46 47 47 48
41 39 39 30 26 25 21 28 42 40 44 47 46 46 45 47 48 47 47 47 47 48 49 49 49 50 49 49 48 47 47 47 47 48 49 50 48 48 46 46 45 45 46 45 46 45 44 44 44

GFSSGP_sfc_temp_102.txt.gz
Temp
72 71 64 58 48 45 39 47 53 57 56 59 63 62 62 60 61 54 67 72 73 74 76 77 78 78 79 78 77 77 77 78 79 79 80 79 79 79 79 79 79 79 79 79 79 79 78 77 77
68 69 60 53 44 36 39 49 55 61 64 63 66 61 61 59 63 67 68 73 74 74 75 76 77 78 78 77 77 77 77 78 78 78 78 79 79 79 79 78 78 78 78 78 77 77 76 76 76
68 68 54 48 46 41 41 51 58 64 66 64 65 65 62 60 68 69 73 74 74 73 75 75 77 78 78 77 77 77 77 77 78 77 78 79 79 79 78 78 77 77 77 77 76 76 76 76 76
61 58 54 45 44 49 49 55 63 63 66 67 67 61 63 67 70 71 75 74 72 72 73 76 77 77 77 77 77 77 77 77 77 77 78 78 78 78 77 76 76 75 75 76 76 76 76 76 76
60 55 45 43 45 52 51 58 63 63 64 66 64 59 61 67 71 72 74 74 73 71 72 75 77 77 77 77 76 77 77 77 77 77 78 78 77 77 76 75 75 75 75 76 76 75 75 75 76
51 52 39 39 44 50 54 60 62 63 69 70 64 62 62 69 70 71 74 74 74 72 72 75 75 76 76 76 76 76 76 76 76 77 77 77 76 76 75 75 75 75 75 75 75 75 75 75 75
48 47 36 41 46 46 54 62 59 61 65 66 65 58 63 67 71 72 73 73 73 72 71 72 72 73 74 75 75 75 75 75 75 76 76 75 75 75 75 75 75 75 75 75 75 75 75 75 74
50 48 44 42 45 46 55 62 62 64 62 68 67 58 60 65 70 71 72 70 71 71 70 70 70 70 70 70 73 74 74 73 74 73 72 71 71 72 74 73 74 74 74 74 74 74 74 74 73
51 41 41 42 47 52 56 57 59 64 62 62 63 64 67 68 69 69 68 69 70 70 71 70 70 68 68 68 70 72 72 71 71 70 69 67 66 67 68 69 71 72 73 73 73 73 72 70 68
45 42 44 54 52 54 58 59 58 59 57 59 63 66 66 67 67 66 66 66 68 68 69 72 72 68 67 71 68 68 70 69 67 66 65 64 64 65 67 66 69 71 71 71 72 72 71 66 61
44 43 50 54 53 56 58 57 58 59 55 60 64 63 65 66 67 66 66 67 68 69 69 71 72 68 67 67 66 66 69 69 67 65 65 64 64 63 63 63 64 64 65 63 65 63 62 61 61
43 47 45 54 55 57 57 57 54 56 59 65 65 67 66 63 64 64 66 67 66 68 69 70 71 68 66 66 65 66 68 70 67 66 65 64 63 63 62 61 62 61 61 60 60 60 60 61 61
41 43 49 52 54 55 57 53 53 52 58 65 66 65 64 65 65 67 68 68 67 68 70 69 71 68 66 65 64 65 67 68 70 66 66 65 63 63 63 62 61 61 61 60 59 60 60 60 60
44 46 46 50 52 54 53 53 54 54 57 61 64 65 65 65 64 64 64 65 67 67 69 70 70 69 68 65 64 65 65 65 67 68 66 65 64 63 63 62 62 61 61 60 60 60 60 60 59
47 42 42 48 52 51 52 49 47 52 55 56 58 63 64 66 66 64 64 64 66 68 68 67 68 70 67 65 64 65 65 66 65 66 66 66 65 64 63 62 62 62 61 61 60 60 60 60 61
43 39 33 44 49 52 52 42 49 53 52 52 54 57 60 62 65 67 66 67 69 70 68 67 70 69 69 69 66 67 68 64 65 67 66 66 66 64 63 62 62 63 61 61 60 60 60 60 60
42 34 33 37 49 49 48 42 50 54 51 50 51 54 56 59 61 65 67 69 69 69 68 65 70 68 70 69 67 67 67 68 68 65 65 66 67 65 64 63 63 63 61 61 61 60 61 60 60
35 35 37 35 44 48 44 42 49 51 51 48 49 52 54 56 60 62 65 67 70 70 71 70 68 67 68 68 67 66 66 66 68 68 67 67 67 66 65 64 64 63 62 61 61 62 61 62 62
41 39 38 41 46 43 42 44 48 49 48 47 48 50 53 56 58 60 62 63 64 65 66 67 68 69 68 66 65 65 66 65 65 67 69 69 69 68 66 65 64 64 64 64 63 63 63 62 63
39 38 37 42 46 45 42 43 50 49 47 48 49 50 52 53 57 59 59 61 62 64 65 65 68 69 69 68 68 67 68 66 67 67 67 68 68 67 68 68 67 65 64 64 64 64 63 62 62
37 34 37 39 44 45 41 40 43 48 48 51 52 52 52 54 55 57 58 59 60 62 63 64 66 66 67 67 66 64 64 64 64 65 65 66 68 69 68 68 66 65 64 64 64 64 63 61 62
33 42 43 41 38 32 43 32 39 45 47 50 51 49 52 52 53 55 58 58 58 60 63 65 65 65 66 65 65 63 64 64 64 63 64 65 66 65 65 65 64 64 64 63 64 63 63 62 61
38 43 42 41 36 33 35 32 37 44 44 49 52 52 50 52 53 54 55 59 60 60 59 62 63 63 64 63 64 63 63 63 62 62 62 62 62 63 63 63 63 63 63 62 62 62 61 61 61
45 40 39 37 36 27 33 34 34 38 44 50 55 52 52 53 53 55 56 56 57 55 57 59 61 62 62 62 63 63 63 61 59 59 60 60 60 60 60 61 62 61 60 60 59 59 59 58 57
40 35 28 26 27 24 32 31 38 44 45 48 49 49 51 52 53 52 53 53 55 54 54 56 59 60 60 61 62 63 62 61 60 59 59 58 57 57 58 59 58 58 58 57 57 57 56 56 54
34 34 24 21 21 22 32 28 35 46 49 50 50 50 48 49 50 51 54 55 54 54 53 53 55 58 58 60 60 61 62 61 60 58 57 58 57 56 55 54 54 55 56 55 54 54 54 54 52
35 28 37 26 24 19 27 32 42 47 48 48 47 48 46 47 49 48 51 52 54 53 53 53 53 54 55 56 58 58 57 57 57 55 55 54 54 54 53 53 52 53 52 53 51 52 51 50 50
40 40 30 32 24 21 23 25 31 40 44 45 47 45 46 47 48 48 48 49 48 48 50 51 52 53 52 52 52 52 52 52 52 51 51 51 50 50 50 50 51 51 49 48 47 46 47 47 48
36 35 34 34 30 21 20 27 36 40 44 46 47 45 46 46 47 48 48 47 46 47 48 49 50 50 50 50 49 49 49 49 49 49 49 49 50 50 49 48 47 46 45 45 44 45 45 45 46
41 36 35 29 25 24 21 27 40 39 41 44 45 47 47 45 46 46 46 46 46 47 47 48 48 49 49 48 47 47 46 46 45 45 46 47 46 47 46 48 47 46 44 43 42 42 42 42 43

GFSSGP_sfc_temp_105.txt.gz
Temp
72 70 67 61 50 47 46 51 62 60 61 65 68 69 68 70 66 63 72 76 78 78 81 81 78 78 78 78 77 77 78 79 79 79 80 80 80 80 79 79 80 80 80 80 80 79 78 77 77
69 67 61 56 45 39 45 56 57 63 69 65 67 68 67 67 67 68 69 76 78 79 80 81 78 78 78 77 77 78 78 79 79 79 79 79 79 79 79 79 79 80 79 79 78 78 77 77 77
68 66 53 48 45 41 46 55 60 67 67 66 66 69 68 66 69 71 76 76 78 79 80 80 77 78 77 77 77 77 78 78 78 78 78 79 79 79 78 78 78 78 77 77 77 76 76 77 77
59 57 54 45 42 50 55 59 64 65 65 68 64 63 67 72 72 76 77 76 77 78 80 77 77 77 77 77 77 77 78 78 77 77 78 78 78 78 78 77 76 76 76 76 76 76 76 76 76
58 53 46 44 45 53 59 63 66 64 64 64 63 58 64 69 73 75 75 76 75 77 79 79 77 77 76 77 77 77 77 77 77 78 78 78 78 77 76 76 76 75 76 76 76 76 76 75 75
48 51 42 37 44 53 59 64 65 66 64 64 62 58 64 70 71 73 75 75 76 76 78 79 75 75 76 76 76 76 76 77 77 77 77 78 77 76 76 75 76 76 76 76 76 76 75 75 75
46 45 38 38 44 49 56 66 63 64 65 64 67 58 64 66 72 74 75 75 76 77 77 77 77 76 74 75 75 75 75 76 76 76 76 76 75 75 76 76 76 76 76 75 75 75 75 75 74
51 47 42 38 43 48 60 63 66 66 67 72 70 57 58 66 71 72 73 73 74 74 75 75 76 77 77 77 73 73 74 74 74 75 73 72 72 73 74 74 75 75 75 74 74 74 74 74 73
52 42 36 44 43 51 60 61 64 67 64 64 67 63 64 68 71 69 69 70 71 72 73 74 75 75 75 76 74 72 72 71 71 71 69 70 76 76 75 71 72 73 73 74 74 73 72 70 69
47 43 41 50 54 51 56 62 62 62 61 59 63 65 67 67 67 67 66 66 68 69 70 74 73 73 74 74 75 75 74 75 75 75 75 75 74 75 74 70 70 72 72 72 73 72 70 70 75
47 44 45 49 55 55 54 58 63 61 58 61 62 63 64 66 65 66 66 68 68 70 70 73 73 73 73 73 72 72 73 73 72 72 73 73 72 73 73 72 72 73 68 74 73 73 74 73 74
43 48 46 47 48 55 52 59 58 61 62 68 66 67 66 66 60 61 64 68 68 70 70 72 73 71 72 72 72 71 72 72 71 71 72 71 70 70 70 70 70 71 71 71 72 73 73 72 73
44 45 49 49 50 53 57 55 56 55 59 68 68 67 66 65 62 62 65 68 69 69 70 71 72 71 71 71 71 70 71 72 72 72 73 72 70 70 69 70 71 70 70 71 71 72 72 73 74
45 46 46 48 49 49 53 55 55 55 58 64 68 65 66 65 63 62 63 67 68 69 70 71 71 71 71 70 70 71 71 71 72 72 72 72 71 71 70 70 70 71 71 72 72 73 73 73 73
48 43 44 46 45 47 55 52 49 55 57 63 66 65 65 66 64 64 68 67 68 69 71 70 70 71 70 70 70 71 71 71 69 70 71 71 71 71 70 70 71 72 72 72 71 72 72 72 72
42 42 35 44 44 46 51 45 51 55 55 53 58 66 66 64 65 65 67 67 68 69 69 70 71 70 70 70 68 70 70 71 71 70 72 73 72 72 71 70 71 72 72 71 71 71 71 71 72
42 34 34 39 44 44 48 45 52 55 54 52 53 55 63 65 63 65 66 66 68 68 69 68 69 70 70 69 69 70 72 72 72 73 72 73 72 72 71 71 73 72 71 70 70 70 72 71 71
36 35 37 36 41 44 44 46 50 53 53 51 53 54 56 59 63 66 66 65 68 68 70 68 67 69 70 68 68 69 70 72 73 73 72 73 73 72 71 72 72 72 70 69 69 70 69 71 71
42 40 37 40 44 42 41 44 49 53 53 53 53 54 55 56 59 61 64 68 66 67 68 68 68 68 67 66 65 65 68 68 70 72 73 72 72 72 71 72 72 71 70 70 70 70 69 68 70
42 39 38 42 45 44 41 42 50 51 52 54 54 54 55 57 58 59 61 64 66 68 68 68 69 68 68 67 66 67 66 67 68 70 71 71 72 71 72 71 70 69 67 69 69 69 68 68 66
40 39 38 40 44 45 42 40 45 50 51 54 55 55 56 58 60 60 59 60 64 65 67 67 68 68 67 68 66 65 66 65 65 67 66 66 70 70 70 69 69 67 67 66 69 68 66 63 63
38 45 45 42 39 33 43 33 42 47 49 53 58 56 57 57 58 59 59 62 62 63 65 66 67 68 67 68 67 64 63 64 66 66 66 67 66 67 69 69 68 69 68 65 65 64 64 63 61
40 45 43 42 38 37 38 34 39 44 44 50 54 57 57 57 58 60 60 62 63 62 63 65 65 68 67 68 66 66 65 68 68 67 66 64 66 67 68 69 68 66 65 64 63 62 62 63 63
45 41 40 39 38 30 36 35 37 40 44 50 54 57 56 57 58 59 61 61 61 61 61 63 64 64 65 65 65 65 65 64 63 63 62 63 63 63 64 64 64 63 63 63 62 62 60 60 61
42 37 27 28 28 26 34 33 39 46 49 51 53 56 56 58 59 58 59 59 60 59 58 60 63 63 64 63 64 65 64 63 63 62 62 61 60 59 60 61 61 62 63 63 62 61 58 58 59
37 36 27 21 23 26 34 30 39 48 52 52 54 54 54 54 56 57 58 59 60 60 59 59 61 62 63 63 63 65 65 65 64 63 61 61 61 60 60 60 60 58 60 60 60 58 57 58 58
36 32 39 28 27 25 31 35 44 48 47 49 51 51 52 53 53 54 54 57 59 60 60 59 58 60 61 61 62 62 62 62 63 62 61 60 61 59 58 58 58 58 58 56 56 54 54 56 56
39 41 32 33 23 21 27 29 36 42 46 49 50 51 50 52 52 52 52 53 55 56 58 57 58 58 59 59 61 61 60 60 59 59 58 58 57 57 56 56 56 56 55 54 54 52 54 55 55
36 34 35 34 33 25 24 31 40 42 44 45 48 49 51 51 50 49 50 50 52 53 54 55 56 56 56 56 56 56 56 56 55 56 56 55 55 55 55 55 54 53 52 53 53 53 53 53 53
40 35 34 30 27 27 27 32 43 43 43 44 46 49 50 50 50 49 49 50 50 51 52 54 54 55 55 55 54 53 53 53 53 53 53 54 52 52 51 52 52 52 51 52 52 51 51 51 50

GFSSGP_sfc_temp_108.txt.gz
Temp
73 72 65 60 51 55 54 59 73 71 72 79 80 80 79 81 74 71 80 87 89 88 85 84 78 78 79 79 78 78 78 79 79 79 80 80 79 79 80 80 80 80 81 80 79 79 79 78 78
75 72 60 55 46 43 54 66 66 72 77 79 76 75 77 75 78 74 74 84 88 87 84 84 77 78 78 78 78 78 79 79 79 79 79 79 80 80 79 80 80 80 80 79 78 77 77 77 77
70 70 52 48 46 46 55 67 70 75 80 76 73 77 76 77 77 79 83 82 87 84 85 83 77 78 78 78 78 78 79 79 79 79 78 79 79 79 79 79 79 78 78 77 77 77 77 76 76
62 60 52 44 43 53 63 69 72 74 76 79 78 70 74 79 79 83 84 83 84 85 85 78 77 77 77 77 77 78 78 78 78 78 77 78 79 79 79 77 77 76 76 76 76 76 76 76 75
62 52 43 42 50 55 66 72 73 71 73 76 77 65 71 77 80 83 80 80 83 85 85 82 77 77 77 77 78 78 78 78 77 77 78 78 78 78 77 76 76 76 76 76 76 76 76 75 75
51 53 43 37 46 58 59 71 74 73 76 76 73 69 70 78 78 80 78 79 85 85 82 81 76 76 76 76 77 77 77 76 77 77 77 78 78 77 76 76 76 76 76 76 76 76 76 75 75
49 47 43 46 42 48 56 72 70 73 75 75 79 68 65 72 77 77 77 80 84 85 82 80 82 78 74 75 75 76 76 76 76 76 76 76 75 75 76 76 76 76 76 75 75 75 75 75 74
55 51 45 42 41 46 58 60 70 70 74 83 81 69 67 70 77 75 75 78 82 82 82 82 82 84 82 81 73 73 74 74 75 74 74 72 72 73 75 73 75 75 75 75 75 75 74 74 73
61 45 43 42 42 52 61 58 65 76 72 77 79 80 79 72 72 70 70 72 76 79 80 82 84 84 84 83 77 73 72 72 72 72 69 71 81 80 76 74 72 74 74 74 74 74 73 71 70
52 46 44 48 48 50 54 56 61 67 70 71 74 71 71 71 67 66 67 68 71 73 76 82 83 84 82 81 80 81 80 81 82 81 80 84 83 83 82 73 70 72 72 72 73 72 71 71 82
53 47 52 48 49 50 53 56 64 62 65 72 71 71 69 67 61 65 67 69 71 73 75 79 81 83 80 79 82 82 82 83 83 83 83 84 83 80 81 79 78 78 71 79 77 76 81 81 83
49 51 49 49 49 49 50 57 56 62 69 78 78 76 68 66 63 58 60 66 69 71 75 76 81 81 82 79 79 80 81 81 81 81 81 81 80 79 80 81 80 80 80 80 81 82 81 81 81
51 50 50 51 51 51 55 55 55 64 72 69 78 73 70 65 63 60 61 61 66 70 74 76 80 80 81 79 77 77 80 81 80 79 80 80 79 79 80 80 80 80 80 81 81 81 82 82 82
52 51 51 52 49 50 48 54 57 65 68 66 72 73 70 66 63 61 61 61 61 70 73 76 77 80 80 80 79 77 79 80 79 79 79 80 80 80 79 79 79 79 80 81 82 82 81 82 82
52 47 51 50 50 47 47 50 52 65 65 65 69 71 67 67 64 61 62 62 62 70 71 71 77 79 80 79 79 78 76 78 78 78 80 80 80 79 79 79 78 78 80 81 81 81 81 81 81
49 49 40 47 49 48 45 44 59 63 63 65 70 71 66 65 65 63 64 64 67 70 69 69 74 76 78 78 78 79 78 76 74 75 80 80 79 79 79 79 78 80 79 79 79 79 79 80 80
47 41 38 46 47 46 44 44 57 62 62 59 67 69 68 64 64 65 65 65 68 70 70 70 71 75 75 76 77 78 78 79 77 74 76 79 79 79 79 80 80 80 79 78 78 78 79 78 78
42 42 47 45 45 46 43 43 57 61 60 60 62 61 63 65 65 66 64 64 67 68 71 72 73 74 75 74 73 74 77 78 79 78 79 80 80 80 77 78 80 80 78 78 77 78 78 78 78
49 47 50 46 48 44 41 42 49 59 60 60 58 58 58 63 62 63 64 64 65 66 67 67 71 74 71 70 68 69 72 74 75 78 79 80 79 80 79 79 79 79 78 78 78 77 76 75 76
49 47 45 47 48 44 44 42 51 57 61 62 58 58 59 60 60 63 63 63 64 65 68 69 72 72 71 71 69 71 71 72 74 76 77 78 78 78 77 78 78 78 78 78 76 76 74 74 71
47 47 45 45 47 46 46 46 49 55 61 62 62 61 61 60 63 65 67 65 63 64 69 70 71 71 71 71 69 67 66 68 69 71 73 73 75 74 74 75 76 76 72 69 71 72 72 68 69
44 50 49 46 44 37 48 44 46 52 57 61 65 63 61 61 62 65 64 65 64 64 69 68 67 70 69 67 66 66 63 62 68 69 72 72 71 70 67 66 67 70 68 68 67 67 67 66 61
46 50 49 48 44 43 41 41 52 55 50 58 64 66 66 65 63 63 65 66 66 70 65 69 68 67 66 68 67 65 64 64 64 66 67 69 68 67 68 68 68 68 68 68 66 65 64 64 65
50 48 48 48 44 35 44 41 50 52 57 60 63 65 68 68 66 66 66 65 66 64 67 68 69 68 66 66 68 68 64 63 62 64 63 65 66 66 67 67 67 68 68 67 66 66 64 62 65
48 45 34 31 31 34 41 39 50 55 58 59 60 65 67 67 68 67 67 66 66 65 66 67 70 68 70 68 68 68 66 64 64 65 64 66 65 62 64 65 65 66 67 65 64 64 63 61 60
45 42 37 28 32 37 39 36 50 56 59 62 61 64 64 65 68 68 68 69 68 68 68 70 71 71 70 68 67 69 69 67 67 67 67 66 64 63 63 63 65 64 63 62 62 61 61 62 61
37 35 45 35 37 36 42 45 53 57 57 59 59 60 61 63 65 65 66 68 69 70 70 70 71 72 72 68 66 66 67 68 67 66 67 65 65 64 63 62 61 61 60 61 62 65 64 61 58
43 44 33 35 27 28 37 38 44 50 52 56 58 59 59 59 61 62 62 64 67 68 70 70 70 70 71 69 68 66 67 68 67 68 66 64 63 62 61 60 60 60 61 63 62 61 61 62 61
41 37 37 34 35 33 34 40 50 49 51 52 55 58 59 60 60 60 59 60 61 64 65 67 67 67 68 67 65 65 65 65 65 65 62 60 60 59 58 59 59 59 61 62 61 60 60 61 60
44 36 34 31 30 31 35 41 52 52 52 52 54 56 58 58 58 59 59 59 59 61 63 64 65 66 67 66 65 65 64 63 64 62 59 59 58 59 59 59 59 59 59 60 60 58 59 59 58

GFSSGP_sfc_temp_111.txt.gz
Temp
73 76 66 58 49 49 54 59 73 72 76 83 86 83 82 86 81 70 85 93 94 89 85 83 78 78 79 79 79 78 79 79 79 79 80 80 80 80 80 80 80 80 80 80 80 79 79 78 77
73 71 63 54 45 41 52 67 66 74 81 86 83 81 82 79 85 78 84 91 92 87 84 83 77 78 78 78 78 78 78 79 79 79 79 79 80 80 79 80 80 80 79 78 78 78 78 77 76
72 71 51 47 44 42 52 67 71 77 84 82 79 84 82 80 87 82 88 91 92 83 84 82 77 78 78 78 78 78 79 78 78 78 78 78 80 80 79 79 79 78 78 77 77 77 76 76 75
68 64 56 42 42 50 58 69 75 76 81 82 80 73 81 85 86 88 89 91 84 84 84 78 77 77 78 77 78 78 78 78 78 78 78 78 79 79 79 78 77 77 77 76 77 77 76 75 75
67 57 47 41 42 55 61 68 72 73 76 78 74 72 76 82 87 88 86 87 82 83 83 82 77 77 77 77 77 78 78 78 78 77 78 78 79 78 78 77 77 76 76 76 76 76 76 75 75
54 56 43 41 48 49 61 66 68 70 75 78 72 72 74 84 83 83 84 84 83 83 81 82 76 76 76 77 77 77 78 77 77 77 78 78 78 77 77 77 76 76 76 76 76 76 75 75 75
50 49 43 46 49 51 50 61 61 62 68 74 81 70 74 78 82 82 83 83 82 83 82 82 81 78 74 76 76 76 76 76 76 76 77 77 76 76 77 77 76 76 76 76 76 75 75 75 74
55 50 45 48 47 50 57 56 62 63 60 78 79 71 67 77 80 78 79 80 80 79 81 81 83 81 80 79 74 74 74 74 75 74 73 72 72 74 75 75 75 75 75 75 75 75 75 74 73
60 42 40 47 48 53 57 52 64 68 61 72 74 79 81 80 78 73 71 73 74 76 79 81 84 83 82 78 75 73 72 72 72 72 70 71 79 78 74 73 72 74 74 74 74 74 73 71 71
48 42 46 56 52 48 54 51 53 55 60 68 70 80 76 75 73 69 67 68 71 72 77 81 84 84 84 79 75 75 75 76 77 76 78 82 81 81 81 73 70 73 72 73 73 73 72 71 78
52 42 55 53 50 50 51 51 54 52 54 67 63 65 75 71 70 68 68 68 74 75 76 80 84 85 84 80 79 78 77 80 80 80 82 85 84 80 80 74 74 75 70 76 75 74 77 80 83
47 56 55 53 53 51 47 50 50 55 61 66 60 61 75 69 68 63 59 59 62 71 74 79 86 81 83 83 82 81 80 83 83 82 84 84 83 81 81 78 78 78 77 80 80 80 81 81 82
51 53 53 54 52 51 52 49 48 57 66 68 64 63 72 71 68 64 62 60 60 60 73 78 84 75 81 82 83 82 82 83 83 83 83 83 80 80 81 80 80 81 81 81 81 81 81 81 82
57 54 54 54 52 51 49 51 52 58 66 66 66 65 73 73 68 62 62 59 59 61 63 76 81 78 77 82 81 81 82 82 81 81 81 82 81 80 79 79 79 80 81 82 82 82 81 82 82
55 49 51 53 52 51 55 52 51 59 64 64 68 70 71 72 70 64 62 60 60 62 63 73 79 84 77 78 81 83 82 82 80 80 81 81 80 79 79 78 78 80 80 82 82 82 82 81 81
49 49 42 53 52 51 52 42 54 62 62 65 69 70 70 71 67 65 62 62 61 62 63 72 76 80 81 78 78 78 81 81 80 80 80 80 80 80 78 78 78 81 80 80 79 79 78 79 79
50 44 40 49 53 51 50 46 55 57 63 65 70 70 67 67 67 66 63 62 64 64 65 70 73 77 80 80 81 79 78 76 78 79 80 79 79 79 78 79 80 81 79 78 79 78 79 77 78
45 45 48 45 50 50 49 49 51 53 63 66 68 71 69 65 65 64 64 64 65 66 67 70 70 74 77 77 77 78 78 79 77 75 76 79 80 79 79 79 80 81 79 78 78 78 78 78 78
50 51 50 54 52 48 51 49 50 56 63 64 67 65 67 66 66 66 66 65 66 65 65 68 69 72 71 70 70 72 74 74 77 78 79 78 80 80 79 77 79 80 79 79 79 78 76 75 77
52 51 51 52 52 49 52 50 55 57 63 65 65 64 66 61 63 63 63 64 64 64 63 64 66 70 70 70 71 72 71 73 75 76 78 79 79 79 78 77 77 78 78 78 77 76 74 75 72
51 50 50 49 51 52 48 48 51 57 64 66 66 66 65 62 60 60 61 62 62 62 65 65 63 68 69 70 70 69 70 70 70 72 74 75 77 76 76 76 75 75 74 72 72 72 71 68 69
45 54 52 50 47 43 52 39 50 53 59 62 64 62 62 63 63 61 62 62 61 61 62 64 65 66 70 70 67 66 67 66 70 70 71 71 74 74 73 72 73 72 71 69 68 69 70 67 64
47 53 52 51 49 48 48 44 50 56 54 60 64 64 62 61 61 63 64 65 64 63 63 64 64 65 68 69 68 68 66 68 69 68 68 68 67 71 71 70 70 68 66 67 68 65 63 64 64
54 51 51 52 46 37 47 45 48 52 55 60 67 67 65 62 61 63 66 66 65 66 66 65 64 64 65 66 67 66 66 65 65 63 63 64 65 65 67 68 67 66 65 65 65 65 65 64 65
51 45 34 31 33 36 46 43 50 58 61 62 64 68 69 66 64 63 62 62 63 62 65 67 66 65 66 65 66 66 66 64 64 62 61 62 63 64 66 66 66 65 65 66 66 65 65 65 62
45 44 35 27 32 39 45 39 47 60 63 65 65 66 68 68 68 66 66 64 63 63 64 68 69 67 67 65 66 66 66 65 63 63 63 63 65 65 67 66 67 65 65 64 64 64 63 62 60
40 37 47 37 43 38 44 48 56 60 60 61 62 63 63 66 67 69 70 69 69 67 66 66 69 69 71 67 68 67 66 65 64 64 65 66 68 66 65 64 63 62 62 62 61 60 59 60 61
45 45 35 37 27 29 40 41 42 50 53 59 60 61 63 63 65 68 66 68 69 71 70 72 72 73 73 71 68 68 69 70 69 67 67 67 65 63 62 60 60 59 59 60 60 59 59 59 61
42 37 38 33 34 29 32 35 51 50 53 54 58 60 61 61 62 63 63 64 65 66 69 70 72 72 72 72 69 67 67 67 67 65 65 63 61 61 59 58 58 58 59 60 60 60 61 61 60
46 39 37 33 29 37 35 34 56 55 55 57 57 59 60 60 61 62 62 62 64 64 65 67 69 70 71 71 69 67 66 65 64 64 61 61 60 59 59 59 58 58 59 60 61 58 59 58 58

GFSSGP_sfc_temp_114.txt.gz
Temp
72 73 66 60 49 49 44 51 63 64 66 76 79 76 76 79 75 66 81 85 83 78 79 79 78 78 79 79 79 79 79 79 79 79 80 80 80 80 79 80 80 80 81 80 80 79 78 77 77
70 71 62 53 43 40 45 57 58 65 73 78 79 78 76 74 75 75 77 86 82 81 79 79 78 78 78 78 78 78 78 78 79 79 79 80 80 80 79 80 80 80 80 79 78 78 77 76 76
69 70 52 46 44 40 46 58 61 69 75 75 75 81 79 72 77 79 85 86 83 80 80 79 77 78 78 78 78 78 78 78 78 78 78 79 80 80 80 80 78 77 77 77 77 77 76 75 76
64 59 53 41 41 48 51 57 63 65 74 77 77 74 80 81 77 81 85 85 80 79 80 76 77 78 78 77 78 78 78 78 78 78 78 79 79 79 79 78 77 76 76 76 77 76 75 75 75
61 54 42 39 41 49 56 62 63 60 65 68 76 71 73 78 81 83 83 80 79 80 79 77 77 77 77 77 77 77 78 78 78 77 77 79 79 79 77 77 76 76 76 76 76 76 75 75 75
50 51 38 35 42 50 54 60 60 62 59 65 67 71 73 79 78 79 83 81 81 77 77 76 75 76 76 77 77 77 77 77 77 77 78 78 78 78 77 77 76 76 76 76 76 76 75 75 75
47 44 37 40 43 47 53 61 55 55 55 55 66 57 69 72 78 79 80 82 80 78 77 75 75 75 74 75 76 76 77 76 76 76 77 77 76 76 77 77 76 76 76 76 75 75 75 75 74
51 45 39 41 41 43 56 61 62 57 56 65 66 55 60 70 75 78 75 77 76 77 77 75 75 75 74 74 74 75 75 75 75 75 74 73 72 74 77 75 75 75 75 75 75 75 75 74 73
55 38 34 39 42 47 58 52 61 64 55 58 63 62 64 71 74 73 73 72 72 75 77 76 75 75 75 74 72 72 72 72 71 71 70 71 71 75 75 72 72 73 74 74 74 74 73 71 71
45 38 40 50 52 51 54 52 52 54 53 53 57 64 68 71 71 69 69 68 69 71 75 77 76 75 74 75 73 72 72 72 73 73 74 73 71 76 76 70 71 72 72 72 73 73 71 70 66
49 39 49 52 55 53 49 50 53 50 48 53 53 60 63 61 68 66 68 69 69 71 74 77 77 76 74 73 72 71 72 72 73 75 72 73 74 72 70 70 70 70 67 68 68 67 67 66 68
45 52 52 54 53 51 50 52 48 51 52 59 60 63 65 61 59 67 67 61 61 62 70 76 78 76 74 73 71 72 72 74 74 73 73 75 73 71 69 72 71 69 67 67 67 66 68 69 72
47 51 55 55 53 52 53 50 48 49 58 61 61 63 62 61 57 68 63 60 60 60 61 62 78 74 75 73 72 73 73 74 75 73 74 75 74 71 71 71 69 68 68 69 69 69 70 70 71
53 52 54 54 52 53 49 51 52 56 63 61 61 60 62 58 56 60 60 59 59 60 60 62 62 77 74 74 76 76 76 76 76 73 72 73 72 70 71 70 70 69 70 71 70 70 69 70 70
54 47 50 51 52 50 53 48 51 60 61 59 59 62 62 60 58 61 61 60 61 62 61 62 64 74 73 74 75 73 73 73 73 71 72 73 72 71 69 69 68 69 71 71 70 71 71 69 72
47 47 38 51 52 53 49 44 57 56 59 56 57 59 62 61 61 62 61 61 61 62 62 61 64 72 73 73 74 74 73 71 70 71 71 73 72 71 69 68 68 70 70 70 69 68 68 68 68
45 35 38 44 53 50 45 42 53 57 57 56 57 62 60 59 61 60 61 60 61 63 62 61 63 69 72 72 75 76 74 74 72 71 70 72 73 72 70 69 69 70 70 69 70 68 68 68 68
36 37 44 42 48 49 46 44 52 57 55 54 55 62 61 59 60 62 60 60 61 61 62 62 63 68 72 70 70 69 72 72 71 71 73 72 73 72 71 71 71 72 70 70 69 69 69 68 68
47 45 44 51 50 47 45 47 49 55 56 56 60 62 58 58 62 61 61 60 61 62 61 62 62 67 68 66 66 68 68 69 70 69 72 73 74 73 71 71 73 72 70 70 71 70 68 67 67
48 45 46 49 51 45 46 45 50 55 54 58 59 58 60 58 58 60 60 61 61 63 63 64 65 68 69 69 67 66 66 68 70 71 72 72 73 73 72 71 71 72 70 70 70 69 66 65 65
47 43 46 46 50 48 45 42 45 54 56 61 60 60 60 59 59 59 59 60 61 61 61 62 63 67 69 69 68 66 66 66 65 66 66 69 72 70 71 71 71 69 68 66 66 66 67 63 64
39 49 49 49 45 35 46 30 46 51 51 55 55 56 57 58 59 59 60 59 60 60 61 62 62 63 65 68 67 66 66 64 65 66 66 67 70 70 70 69 68 66 65 64 63 65 64 63 61
43 50 47 47 45 42 43 33 40 51 49 52 55 54 54 58 59 57 60 61 60 60 61 61 62 62 63 63 64 63 62 62 65 65 64 64 64 67 67 66 66 65 64 65 63 63 63 62 62
51 46 46 45 43 27 41 37 34 45 50 54 56 57 56 56 57 59 60 61 60 60 60 60 61 62 62 62 63 63 62 62 62 62 62 62 62 63 65 65 65 65 64 63 63 64 63 63 62
46 38 25 22 21 23 40 37 39 51 56 54 53 55 58 55 55 56 60 60 59 59 61 62 62 61 63 62 63 63 63 62 61 61 61 60 60 60 62 64 64 64 64 63 63 63 63 63 63
39 36 29 24 26 29 41 32 39 52 56 57 55 57 60 56 56 56 57 57 60 61 62 62 62 63 63 63 63 62 63 62 62 61 61 61 60 61 62 64 63 64 64 64 64 64 64 64 62
37 31 42 32 36 28 36 39 46 52 52 55 55 58 57 59 58 58 59 59 58 58 61 64 63 64 63 63 63 63 63 63 62 61 61 61 61 62 62 63 62 62 63 63 63 61 60 60 59
42 44 31 32 18 22 31 31 34 41 45 51 52 51 54 58 59 58 58 59 60 61 60 60 65 65 65 65 63 64 64 64 63 62 62 61 62 62 61 61 61 60 60 60 61 59 59 59 58
37 32 36 32 30 26 25 28 43 43 46 48 49 51 51 53 55 55 56 57 58 59 61 62 62 62 63 65 65 63 63 65 62 62 63 62 63 62 60 60 59 58 58 58 58 57 58 57 57
42 38 32 25 24 29 30 29 49 46 48 50 50 52 52 53 54 54 54 55 56 58 60 61 62 63 63 61 62 61 61 61 61 61 62 61 60 59 58 57 57 57 57 58 57 56 56 55 53

GFSSGP_sfc_temp_117.txt.gz
Temp
68 68 61 57 47 47 43 45 56 54 58 65 71 68 68 73 68 60 75 78 77 76 77 78 78 79 79 79 79 78 78 79 80 79 80 80 80 79 79 80 79 80 80 80 79 79 78 78 77
65 68 57 50 42 36 41 52 52 56 64 67 70 72 71 69 71 72 74 78 77 77 77 77 78 78 79 79 79 78 78 79 79 79 79 80 80 79 79 80 80 80 79 78 78 77 76 76 76
67 68 49 42 40 38 42 49 53 60 63 64 65 71 72 67 73 75 77 78 77 76 77 77 77 78 78 78 78 78 78 79 79 79 79 79 79 79 79 79 79 78 77 77 77 76 76 76 76
59 55 50 40 37 45 47 51 56 57 62 64 63 58 70 75 75 78 79 78 76 75 76 76 77 78 78 77 78 78 78 78 78 78 78 79 79 79 79 77 76 76 76 76 76 75 75 75 76
58 50 38 36 37 44 48 53 56 55 58 60 59 56 61 75 78 78 77 78 74 75 75 76 77 77 77 77 77 78 78 78 78 78 78 78 78 79 77 76 76 76 76 76 76 76 75 75 75
45 46 34 31 37 45 49 53 53 54 57 57 55 55 58 68 73 75 78 76 77 74 75 76 75 76 76 77 77 77 77 77 77 77 78 77 78 77 77 76 76 76 76 76 76 76 75 75 75
46 41 34 35 36 40 47 54 51 53 55 55 59 53 59 65 66 73 76 77 75 75 74 75 75 75 75 75 76 76 76 76 76 77 77 76 76 76 77 76 76 76 76 75 75 75 75 75 74
50 44 37 38 36 38 50 52 56 55 54 60 63 52 53 63 65 64 71 72 73 73 73 72 73 74 73 74 74 74 75 74 75 75 73 72 72 74 75 74 75 75 75 74 74 75 74 74 73
53 39 34 36 38 42 51 49 56 58 54 58 62 59 63 65 67 64 62 69 70 71 72 72 72 72 72 73 73 73 73 73 73 72 70 71 73 77 75 71 71 73 74 74 74 74 73 71 71
43 38 40 45 46 45 50 50 51 49 52 53 58 62 65 66 64 60 58 67 68 68 70 72 71 71 72 74 72 72 72 73 74 75 74 72 72 77 76 71 70 72 72 72 73 73 71 69 65
43 38 46 48 50 51 49 49 51 48 45 51 53 59 62 62 62 61 60 69 68 69 72 72 71 71 72 73 72 72 71 71 73 74 73 70 71 73 72 70 68 67 66 67 67 67 65 64 65
43 48 48 49 51 51 47 53 47 49 51 59 59 60 61 58 58 61 59 65 67 68 71 72 72 71 73 73 72 72 72 71 73 74 72 71 69 72 71 69 67 66 65 64 63 62 64 65 66
44 47 51 53 52 52 52 48 48 51 57 60 59 61 58 57 58 62 61 60 65 62 64 65 67 70 72 71 72 72 71 71 74 72 71 72 69 68 67 74 71 66 65 64 63 63 64 65 68
49 49 48 50 51 50 47 48 49 53 58 57 59 58 57 59 61 59 60 61 62 63 63 64 66 66 70 70 71 72 72 74 73 72 70 72 71 69 68 68 66 66 66 65 65 65 65 66 68
50 43 49 50 52 49 52 45 46 55 59 57 59 60 58 61 61 58 60 61 62 62 64 64 65 66 66 69 70 70 71 74 73 72 70 73 71 70 69 69 68 68 67 67 67 67 66 66 68
45 44 36 49 50 50 48 40 51 55 53 54 57 59 60 60 58 59 60 60 61 62 62 64 66 65 65 66 69 69 71 74 73 70 73 73 71 71 69 68 66 66 67 67 66 66 65 66 67
40 31 35 41 52 49 46 39 49 55 53 52 55 56 58 60 60 60 60 60 60 62 62 62 64 63 64 67 70 70 72 73 71 69 71 71 71 70 69 68 66 67 66 65 67 65 67 66 66
35 36 40 38 48 48 42 40 48 53 54 50 51 53 55 58 59 60 60 60 60 61 62 62 63 63 65 68 67 68 70 69 70 69 70 71 71 70 68 68 68 67 66 66 66 66 66 67 67
41 41 39 45 48 45 43 43 46 51 52 52 51 53 54 58 58 59 60 60 60 60 60 61 62 63 65 66 65 65 67 67 68 69 69 70 71 71 69 69 68 69 68 67 68 67 67 64 64
45 42 39 44 49 46 43 43 48 51 51 52 54 54 57 55 57 58 59 59 60 59 61 61 62 64 64 67 68 69 68 68 69 70 69 70 70 70 69 69 69 69 68 67 67 67 64 64 63
42 39 40 42 49 46 42 40 42 49 54 57 58 57 58 57 56 58 58 59 60 61 61 62 63 64 65 65 65 64 67 67 66 67 67 69 71 69 69 69 68 67 66 65 66 65 65 62 62
35 46 45 43 38 31 44 30 44 46 51 56 55 53 56 57 58 58 58 59 60 60 62 61 63 64 66 65 64 65 65 64 66 67 67 68 70 68 68 68 67 66 66 64 64 64 63 62 60
39 46 43 42 37 35 38 34 36 48 46 50 51 52 54 58 58 58 58 60 60 60 60 61 62 64 64 64 65 64 64 64 65 66 65 65 65 67 67 67 66 65 64 63 63 63 63 62 61
47 42 41 39 37 23 35 35 36 42 45 48 51 54 54 56 57 58 59 59 59 59 59 60 60 61 62 63 63 67 65 64 64 62 61 62 62 64 65 65 64 64 64 64 63 63 63 62 61
44 34 19 21 18 21 37 35 37 46 49 48 48 50 54 54 57 56 57 58 57 58 58 60 60 59 61 62 63 61 62 62 62 62 63 61 60 60 62 63 63 63 63 63 64 63 63 62 61
36 35 28 22 25 25 37 28 36 47 52 49 50 51 56 54 54 55 57 59 59 58 58 60 59 59 61 61 61 62 61 61 61 60 61 60 61 61 61 63 63 63 63 62 62 62 63 63 63
35 28 40 31 33 28 29 35 40 48 47 49 48 48 52 55 54 54 56 56 58 59 59 60 60 61 60 61 61 61 61 61 60 61 61 61 60 60 61 61 61 61 61 61 62 62 62 62 63
39 41 28 27 20 23 28 26 32 38 41 46 47 48 51 54 54 55 56 56 57 58 59 61 61 62 62 62 62 62 62 62 62 62 61 60 61 61 60 61 61 61 61 61 61 60 60 60 59
34 30 32 27 28 25 22 28 43 39 42 42 45 49 50 51 52 52 53 56 57 57 58 58 60 61 62 63 62 62 61 62 61 61 62 61 61 61 60 61 60 59 59 60 60 59 59 59 57
39 33 29 20 21 29 25 29 44 42 43 45 45 49 50 49 50 53 52 53 54 55 57 59 59 59 62 62 63 62 62 62 62 62 63 62 61 61 60 60 59 59 58 58 59 57 57 56 56